[[{"header":{"parameterUnit":"m.s-1","parameterCategory":1,"la1":30.6,"la2":29.2853,"lo1":-89.7004,"lo2":-87.6739,"dy":0.0162,"dx":0.0183,"nx":112,"ny":82,"refTime":"2024-11-27T06:00:00:Z","depth":0,"parameterNumber":2,"parameterNumberName":"U-component_of_WINDS"},"data":[0.0,0.0,0.0,0.0,0.0,0.0,0.0,0.0,0.0,0.0,0.0,0.0,0.0,0.0,0.0,0.0,0.0,0.0,0.0,0.0,0.0,0.0,0.0,0.0,0.0,0.0,0.0,0.0,0.0,0.0,0.0,0.0,0.0,0.0,0.0,0.0,0.0,0.0,0.0,0.0,0.0,0.0,0.0,0.0,0.0,0.0,0.0,0.0,0.0,0.0,0.0,0.0,0.0,0.0,0.0,0.0,0.0,0.0,0.0,0.0,0.0,0.0,0.0,0.0,0.0,0.0,0.0,0.0,0.0,0.0,0.0,0.0,0.0,0.0,0.0,0.0,0.0,0.0,0.0,0.0,0.0,0.0,0.0,0.0,0.0,0.0,0.0,0.0,0.0,0.0,0.0,0.7023,0.7362,0.7237,0.66,0.6306,0.5739,0.4762,0.0,0.0,0.0,0.0,0.0,0.0,0.0,0.0,0.0,0.0,0.0,0.0,0.0,0.0,0.0,0.0,0.0,0.0,0.0,0.0,0.0,0.0,0.0,0.0,0.0,0.0,0.0,0.0,0.0,0.0,0.0,0.0,0.0,0.0,0.0,0.0,0.0,0.0,0.0,0.0,0.0,0.0,0.0,0.0,0.0,0.0,0.0,0.0,0.0,0.0,0.0,0.0,0.0,0.0,0.0,0.0,0.0,0.0,0.0,0.0,0.0,0.0,0.0,0.0,0.0,0.0,0.0,0.0,0.0,0.0,0.0,0.0,0.0,0.0,0.0,0.0,0.0,0.0,0.0,0.0,0.0,0.0,0.0,0.0,0.0,0.0,0.0,0.0,0.0,0.0,0.0,0.0,0.0,0.0,0.0,0.0,0.0,0.0,0.0,0.0,0.0,0.0,0.0,0.0,0.5538,0.6809,0.6977,0.6798,0.6294,0.607,0.5598,0.4752,0.0,0.0,0.0,0.0,0.0,0.0,0.0,0.0,0.0,0.0,0.0,0.0,0.0,0.0,0.0,0.0,0.0,0.0,0.0,0.0,0.0,0.0,0.0,0.0,0.0,0.0,0.0,0.0,0.0,0.0,0.0,0.0,0.0,0.0,0.0,0.0,0.0,0.0,0.0,0.0,0.0,0.0,0.0,0.0,0.0,0.0,0.0,0.0,0.0,0.0,0.0,0.0,0.0,0.0,0.0,0.0,0.0,0.0,0.0,0.0,0.0,0.0,0.0,0.0,0.0,0.0,0.0,0.0,0.0,0.0,0.0,0.0,0.0,0.0,0.0,0.0,0.0,0.0,0.0,0.0,0.0,0.0,0.0,0.0,0.0,0.0,0.0,0.0,0.0,0.0,0.0,0.0,0.0,0.0,0.0,0.0,0.0,0.0,0.0,0.0,0.0,0.0,0.0,0.5956,0.6256,0.6842,0.6908,0.6676,0.6088,0.6052,0.5731,0.4962,0.4316,0.0,0.0,0.0,0.0,0.0,0.0,0.0,0.0,0.0,0.0,0.0,0.0,0.0,0.0,0.0,0.0,0.0,0.0,0.0,0.0,0.0,0.0,0.0,0.0,0.0,0.0,0.0,0.0,0.0,0.0,0.0,0.0,0.0,0.0,0.0,0.0,0.0,0.0,0.0,0.0,0.0,0.0,0.0,0.0,0.0,0.0,0.0,0.0,0.0,0.0,0.0,0.0,0.0,0.0,0.0,0.0,0.0,0.0,0.0,0.0,0.0,0.0,0.0,0.0,0.0,0.0,0.0,0.0,0.0,0.0,0.0,0.0,0.0,0.0,0.0,0.0,0.0,0.0,0.0,0.0,0.0,0.0,0.0,0.0,0.0,0.0,0.0,0.0,0.0,0.0,0.0,0.0,0.0,0.0,0.0,0.0,0.0,0.0,0.0,0.0,0.0,0.0,0.675,0.6824,0.6824,0.6824,0.6591,0.6027,0.607,0.5859,0.5224,0.4527,0.0,0.0,0.0,0.0,0.0,0.0,0.0,0.0,0.0,0.0,0.0,0.0,0.0,0.0,0.0,0.0,0.0,0.0,0.0,0.0,0.0,0.0,0.0,0.0,0.0,0.0,0.0,0.0,0.0,0.0,0.0,0.0,0.0,0.0,0.0,0.0,0.0,0.0,0.0,0.0,0.0,0.0,0.0,0.0,0.0,0.0,0.0,0.0,0.0,0.0,0.0,0.0,0.0,0.0,0.0,0.0,0.0,0.0,0.0,0.0,0.0,0.0,0.0,0.0,0.0,0.0,0.0,0.0,0.0,0.0,0.0,0.0,0.0,0.0,0.0,0.0,0.0,0.0,0.0,0.0,0.0,0.0,0.0,0.0,0.0,0.0,0.0,0.0,0.0,0.0,0.0,0.0,0.0,0.0,0.0,0.0,0.0,0.0,0.0,0.0,0.0,0.0,0.6319,0.6616,0.6616,0.6616,0.65,0.6201,0.6016,0.58,0.5492,0.4493,0.0,0.0,0.0,0.0,0.0,0.0,0.0,0.0,0.0,0.0,0.0,0.0,0.0,0.0,0.0,0.0,0.0,0.0,0.0,0.0,0.0,0.0,0.0,0.0,0.0,0.0,0.0,0.0,0.0,0.0,0.0,0.0,0.0,0.0,0.0,0.0,0.0,0.0,0.0,0.0,0.0,0.0,0.0,0.0,0.0,0.0,0.0,0.0,0.0,0.0,0.0,0.0,0.0,0.0,0.0,0.0,0.0,0.0,0.0,0.0,0.0,0.0,0.0,0.0,0.0,0.0,0.0,0.0,0.0,0.0,0.0,0.0,0.0,0.0,0.0,0.0,0.0,0.0,0.0,0.0,0.0,0.0,0.0,0.0,0.0,0.0,0.0,0.0,0.0,0.0,0.0,0.0,0.0,0.0,0.0,0.0,0.0,0.0,0.0,0.0,0.0,0.0,0.6474,0.6599,0.0,0.6599,0.65,0.6236,0.6295,0.6093,0.553,0.0,0.0,0.0,0.0,0.0,0.0,0.0,0.0,0.0,0.0,0.0,0.0,0.0,0.0,0.0,0.0,0.0,0.0,0.0,0.0,0.0,0.0,0.0,0.0,0.0,0.0,0.0,0.0,0.0,0.0,0.0,0.0,0.0,0.0,0.0,0.0,0.0,0.0,0.0,0.0,0.0,0.0,0.0,0.0,0.0,0.0,0.0,0.0,0.0,0.0,0.0,0.0,0.0,0.0,0.0,0.0,0.0,0.0,0.0,0.0,0.0,0.0,0.0,0.0,0.0,0.0,0.0,0.0,0.0,0.0,0.0,0.0,0.0,0.0,0.0,0.0,0.0,0.0,0.0,0.0,0.0,0.0,0.0,0.0,0.0,0.0,0.0,0.0,0.0,0.0,0.0,0.0,0.0,0.0,0.0,0.0,0.0,0.0,0.0,0.0,0.0,0.0,0.6444,0.6599,0.6599,0.0,0.6599,0.6517,0.6336,0.6418,0.6224,0.5652,0.0,0.0,0.0,0.0,0.0,0.0,0.0,0.0,0.0,0.0,0.0,0.0,0.0,0.0,0.0,0.0,0.0,0.0,0.0,0.0,0.0,0.0,0.0,0.0,0.0,0.0,0.0,0.0,0.0,0.0,0.0,0.0,0.0,0.0,0.0,0.0,0.0,0.0,0.0,0.0,0.0,0.0,0.0,0.0,0.0,0.0,0.0,0.0,0.0,0.0,0.0,0.0,0.0,0.0,0.0,0.0,0.0,0.0,0.0,0.0,0.0,0.0,0.0,0.0,0.0,0.0,0.0,0.0,0.0,0.0,0.0,0.0,0.0,0.0,0.0,0.0,0.0,0.0,0.0,0.0,0.0,0.0,0.0,0.0,0.0,0.0,0.0,0.0,0.0,0.0,0.0,0.0,0.0,0.0,0.0,0.0,0.0,0.0,0.0,0.0,0.0,0.0,0.6444,0.6599,0.6599,0.6599,0.6599,0.6599,0.6599,0.6354,0.6112,0.0,0.0,0.0,0.0,0.0,0.0,0.0,0.0,0.0,0.0,0.0,0.0,0.0,0.0,0.0,0.0,0.0,0.0,0.0,0.0,0.0,0.0,0.0,0.0,0.0,0.0,0.0,0.0,0.0,0.0,0.0,0.0,0.0,0.0,0.0,0.0,0.0,0.0,0.0,0.0,0.0,0.0,0.0,0.0,0.0,0.0,0.0,0.0,0.0,0.0,0.0,0.0,0.0,0.0,0.0,0.0,0.0,0.0,0.0,0.0,0.0,0.0,0.0,0.0,0.0,0.0,0.0,0.0,0.0,0.0,0.0,0.0,0.0,0.0,0.0,0.0,0.0,0.0,0.0,0.0,0.0,0.0,0.0,0.0,0.0,0.0,0.0,0.0,0.0,0.0,0.0,0.0,0.0,0.0,0.0,0.0,0.0,0.0,0.0,0.0,0.0,0.0,0.0,0.6444,0.6599,0.6599,0.6599,0.6599,0.6599,0.6599,0.6535,0.6383,0.613,0.0,0.0,0.0,0.0,0.0,0.0,0.0,0.0,0.0,0.0,0.0,0.0,0.0,0.0,0.0,0.0,0.0,0.0,0.0,0.0,0.0,0.0,0.0,0.0,0.0,0.0,0.0,0.0,0.0,0.0,0.0,0.0,0.0,0.0,0.0,0.0,0.0,0.0,0.0,0.0,0.0,0.0,0.0,0.0,0.0,0.0,0.0,0.0,0.0,0.0,0.0,0.0,0.0,0.0,0.0,0.0,0.0,0.0,0.0,0.0,0.0,0.0,0.0,0.0,0.0,0.0,0.0,0.0,0.0,0.0,0.0,0.0,0.0,0.0,0.0,0.0,0.0,0.0,0.0,0.0,0.0,0.0,0.0,0.0,0.0,0.0,0.0,0.0,0.0,0.0,0.0,0.0,0.0,0.0,0.0,0.0,0.0,0.0,0.0,0.0,0.0,0.0,0.6444,0.6599,0.6599,0.6599,0.6599,0.6599,0.6599,0.6599,0.6483,0.6206,0.0,0.0,0.0,0.0,0.0,0.0,0.0,0.0,0.0,0.0,0.0,0.0,0.0,0.0,0.0,0.0,0.0,0.0,0.0,0.0,0.0,0.0,0.0,0.0,0.0,0.0,0.0,0.0,0.0,0.0,0.0,0.0,0.0,0.0,0.0,0.0,0.0,0.0,0.0,0.0,0.0,0.0,0.0,0.0,0.0,0.0,0.0,0.0,0.0,0.0,0.0,0.0,0.0,0.0,0.0,0.0,0.0,0.0,0.0,0.0,0.0,0.0,0.0,0.0,0.0,0.0,0.0,0.0,0.0,0.0,0.0,0.0,0.0,0.0,0.0,0.0,0.0,0.0,0.0,0.0,0.0,0.0,0.0,0.0,0.0,0.0,0.0,0.0,0.0,0.0,0.0,0.0,0.0,0.0,0.0,0.0,0.0,0.0,0.0,0.0,0.0,0.0,0.6427,0.6599,0.6599,0.6599,0.6599,0.6599,0.6599,0.6599,0.65,0.6254,0.0,0.0,0.0,0.0,0.0,0.0,0.0,0.0,0.0,0.0,0.0,0.0,0.0,0.0,0.0,0.0,0.0,0.0,0.0,0.0,0.0,0.0,0.0,0.0,0.0,0.0,0.0,0.0,0.0,0.0,0.0,0.0,0.0,0.0,0.0,0.0,0.0,0.0,0.0,0.0,0.0,0.0,0.0,0.0,0.0,0.0,0.0,0.0,0.0,0.0,0.0,0.0,0.0,0.0,0.0,0.0,0.0,0.0,0.0,0.0,0.2872,0.0,0.0,0.0,0.0,0.0,0.0,0.0,0.0,0.0,0.0,0.0,0.0,0.0,0.0,0.0,0.0,0.0,0.0,0.0,0.0,0.0,0.0,0.0,0.0,0.0,0.0,0.0,0.0,0.0,0.0,0.0,0.0,0.0,0.0,0.0,0.0,0.0,0.0,0.0,0.0,0.0,0.6444,0.6599,0.6599,0.6599,0.6599,0.6599,0.6599,0.6599,0.6582,0.6517,0.0,0.0,0.0,0.0,0.0,0.0,0.0,0.0,0.0,0.0,0.0,0.0,0.0,0.0,0.0,0.0,0.0,0.0,0.0,0.0,0.0,0.0,0.0,0.0,0.0,0.0,0.0,0.0,0.0,0.0,0.0,0.0,0.0,0.0,0.0,0.0,0.0,0.0,0.0,0.0,0.0,0.0,0.0,0.0,0.0,0.0,0.0,0.0,0.0,0.0,0.0,0.0,0.0,0.0,0.0,0.0,0.0,0.0,0.0,0.0,0.0,0.3282,0.0,0.0,0.0,0.0,0.0,0.0,0.0,0.0,0.0,0.0,0.0,0.0,0.0,0.0,0.0,0.0,0.0,0.0,0.0,0.0,0.0,0.0,0.0,0.0,0.0,0.0,0.0,0.0,0.0,0.0,0.0,0.0,0.0,0.0,0.0,0.0,0.0,0.0,0.0,0.0,0.6469,0.6599,0.6699,0.6962,0.6981,0.6981,0.6981,0.6981,0.6887,0.6611,0.6354,0.0,0.0,0.0,0.0,0.0,0.0,0.0,0.0,0.0,0.0,0.0,0.0,0.0,0.0,0.0,0.0,0.0,0.0,0.0,0.0,0.0,0.0,0.0,0.0,0.0,0.0,0.0,0.0,0.0,0.0,0.0,0.0,0.0,0.0,0.0,0.0,0.0,0.0,0.0,0.0,0.0,0.0,0.0,0.0,0.0,0.0,0.0,0.0,0.0,0.0,0.0,0.0,0.0,-0.6949,-0.6516,-0.5342,-0.5419,-0.5388,-0.4915,0.0743,0.2276,0.0784,0.0,0.0,0.0,0.0,0.0,0.0,0.0,0.0,0.0,0.0,0.0,0.0,0.0,0.0,0.0,0.0,0.0,0.0,0.0,0.0,0.0,0.0,0.0,0.0,0.0,0.3794,0.4178,0.0,0.0,0.0,0.0,0.0,0.0,0.0,0.0,0.0,0.0,0.0,0.0,0.6644,0.6737,0.695,0.7493,0.7556,0.7556,0.7556,0.7556,0.7319,0.6774,0.6669,0.6514,0.0,0.0,0.0,0.0,0.0,0.0,0.0,0.0,0.0,0.0,0.0,0.0,0.0,0.0,0.0,0.0,0.0,0.0,0.0,0.0,0.0,0.0,0.0,0.0,0.0,0.0,0.0,0.0,0.0,0.0,0.0,0.0,-0.759,-0.8854,0.0,0.0,0.0,0.0,0.0,0.0,0.0,0.0,0.0,0.0,0.0,0.0,0.0,-0.6561,-0.7363,-0.6795,-0.6535,-0.6577,-0.6314,-0.5531,-0.4252,-0.3081,-0.3588,-0.5272,-0.3534,0.0,-0.4951,-0.5381,0.0,0.0,0.0,0.0,0.0,0.0,0.0,0.0,0.0,0.0,0.0,0.0,0.0,0.0,0.0,0.0,0.0,0.0,0.0,0.0,0.0,0.0,0.3317,0.3792,0.3966,0.4323,0.0,0.5468,0.5319,0.5358,0.5383,0.0,0.0,0.0,0.0,0.0,0.0,0.0,0.7156,0.7294,0.7518,0.8114,0.8185,0.8185,0.8185,0.8185,0.7926,0.7331,0.765,0.7615,0.7081,0.6866,0.0,0.0,0.0,0.0,0.0,0.0,0.0,0.0,0.0,0.0,0.0,0.0,0.0,0.0,0.0,0.0,0.0,0.0,0.0,0.0,0.0,0.0,0.0,0.0,0.0,0.0,0.0,0.0,0.0,-0.7139,-0.8382,-0.8805,-0.9289,-0.9349,0.0,0.0,0.0,0.0,0.0,0.0,0.0,0.0,0.0,-1.0332,-0.9797,-0.9937,-1.0846,-1.0867,-1.1141,-1.1717,-1.2187,-1.1724,-1.0447,-1.0318,-1.0459,-1.0781,-1.0335,-1.0655,-1.1204,-0.7917,-0.617,-0.5521,0.0,0.0,0.0,0.0,-0.344,-0.243,-0.0836,0.0378,0.0,0.0,0.0,0.0,0.0,0.0,0.0,0.0,0.0,0.0,0.0,0.0,0.0,0.4146,0.4352,0.4807,0.6478,0.6878,0.6823,0.0,0.6867,0.6998,0.6372,0.0,0.0,0.0,0.0,0.0,0.7801,0.7901,0.8114,0.8688,0.8738,0.8738,0.8738,0.8738,0.8512,0.7939,0.8021,0.7989,0.7714,0.7548,0.7393,0.0,0.0,0.0,0.0,0.0,0.0,0.0,0.0,0.0,0.0,0.0,0.0,0.0,0.0,0.0,0.0,0.0,0.0,0.0,0.0,0.0,0.0,0.0,0.0,0.0,0.0,0.0,0.0,-0.7882,-0.8939,-0.8903,-0.9706,-0.9844,0.0,0.0,0.0,0.0,0.0,0.0,-1.0651,-1.0951,-1.1607,-1.2704,-1.2931,-1.3428,-1.4254,-1.4806,-1.5459,-1.6223,-1.7077,-1.6889,-1.5788,-1.6363,-1.6129,-1.5287,-1.5177,-1.5371,-1.5432,-1.0645,-0.8468,-0.8088,-0.7435,-0.7112,-0.704,-0.7399,-0.7259,-0.6627,-0.4821,-0.3551,-0.2423,-0.0515,0.0,0.2228,0.2361,0.0,0.0,0.0,0.0,0.3324,0.3147,0.3049,0.3316,0.448,0.4875,0.5467,0.7305,0.8068,0.8203,0.0,0.8239,0.8485,0.776,0.0,0.0,0.0,0.0,0.7798,0.8292,0.8455,0.8678,0.9131,0.9266,0.9314,0.9314,0.9314,0.9088,0.8537,0.8545,0.841,0.8108,0.8144,0.7796,0.703,0.0,0.0,0.0,0.0,0.0,0.0,0.0,0.0,0.0,0.0,0.0,0.0,0.0,0.0,0.0,0.0,0.0,0.0,0.0,0.0,0.0,0.0,0.0,0.0,0.0,0.0,0.0,0.0,0.0,-0.9882,-1.1527,0.0,0.0,0.0,0.0,-0.9554,-0.9588,-0.9741,-1.0032,-1.1258,-1.2552,-1.3864,-1.5301,-1.6361,-1.6886,-1.7312,-1.7535,-1.7597,-1.7676,-1.7371,-1.6823,-1.648,-1.62,-1.6022,-1.5638,-1.5698,-1.6014,-1.5198,-1.4514,-1.3934,-1.3509,-1.231,-1.086,-1.1067,-0.9659,-0.7712,-0.8149,-0.7804,-0.7042,-0.6159,-0.4269,-0.2037,-0.0339,0.0546,0.0,0.0,0.2059,0.2882,0.2629,0.2912,0.361,0.4966,0.5636,0.6387,0.7702,0.87,0.9165,0.0,0.897,0.9117,0.837,0.0,0.8485,0.827,0.8261,0.8304,0.8466,0.8825,0.9156,0.9353,0.9675,0.9855,0.9855,0.9855,0.9629,0.91,0.9524,0.9309,0.815,0.8583,0.8544,0.784,0.7227,0.0,0.0,0.0,0.0,0.0,0.0,0.0,0.0,0.0,0.0,0.0,0.0,0.0,0.0,0.0,0.0,0.0,0.0,0.0,0.0,0.0,0.0,0.0,0.0,0.0,0.0,0.0,0.0,-1.1306,-1.2348,0.0,-1.1247,-1.1601,-1.1616,-1.1026,-1.1665,-1.2277,-1.2642,-1.377,-1.4734,-1.5476,-1.636,-1.7023,-1.7471,-1.7617,-1.7697,-1.7697,-1.8149,-1.77,-1.6522,-1.6806,-1.6487,-1.5694,-1.5546,-1.5731,-1.6063,-1.5597,-1.529,-1.5065,-1.4557,-1.444,-1.454,-1.4793,-1.4439,-1.3752,-1.2949,-1.1997,-1.0866,-0.9068,-0.7935,-0.6954,-0.515,-0.3795,-0.2572,-0.1503,-0.0267,0.0954,0.1718,0.2665,0.3739,0.5014,0.6016,0.6996,0.8174,0.8961,0.9453,0.9609,1.0008,1.0003,0.9041,0.9181,0.9285,0.8874,0.8824,0.8872,0.905,0.9403,0.9553,0.941,0.9686,0.9905,0.9905,0.9905,0.9818,0.9617,0.9391,0.9063,0.8627,0.8387,0.8139,0.7899,0.7674,0.7212,0.0,0.0,0.0,0.0,0.0,0.0,0.0,0.0,0.0,0.0,0.0,0.0,0.0,0.0,0.0,0.0,0.0,0.0,0.0,0.0,0.0,0.0,0.0,0.0,0.0,0.0,-1.1865,-1.281,-1.3946,-1.4158,-1.2908,-1.3445,-1.3734,-1.3423,-1.4076,-1.4629,-1.4922,-1.5924,-1.6637,-1.6902,-1.7719,-1.8242,-1.8388,-1.8507,-1.8507,-1.8388,-1.8634,-1.8115,-1.6932,-1.7167,-1.6755,-1.584,-1.584,-1.5984,-1.6202,-1.5945,-1.584,-1.5789,-1.5582,-1.5909,-1.6649,-1.7438,-1.7849,-1.7928,-1.7141,-1.6317,-1.5318,-1.3369,-1.2556,-1.1963,-1.0026,-0.8182,-0.641,-0.4818,-0.2745,-0.0732,0.0623,0.2344,0.399,0.5316,0.6526,0.7651,0.8529,0.9214,0.975,0.9935,1.0282,1.0352,0.9626,0.988,1.0076,0.9721,0.9564,0.9473,0.9474,0.961,0.9581,0.9235,0.9633,0.9905,0.9905,0.9905,0.9818,0.9642,0.9391,0.9029,0.8557,0.834,0.8094,0.7812,0.7716,0.7448,0.7037,0.0,0.0,0.0,0.0,0.0,0.0,0.0,0.0,0.0,0.0,0.0,0.0,0.0,0.0,0.0,0.0,0.0,0.0,0.0,0.0,0.0,0.0,0.0,-1.0161,-1.2141,-1.3722,-1.4327,-1.6334,-1.73,-1.6268,-1.6742,-1.6967,-1.6572,-1.6564,-1.6529,-1.6529,-1.7534,-1.8129,-1.8129,-1.9515,-2.0089,-1.9711,-2.0089,-2.0089,-1.969,-1.9169,-1.865,-1.8106,-1.7585,-1.7034,-1.6522,-1.6522,-1.6522,-1.6522,-1.6522,-1.6522,-1.6566,-1.687,-1.6954,-1.7111,-1.8828,-1.9464,-1.9593,-2.039,-2.0555,-2.0248,-1.9158,-1.8191,-1.7037,-1.477,-1.2456,-1.0275,-0.8547,-0.532,-0.2053,-0.0591,0.1881,0.439,0.5938,0.7268,0.8301,0.8651,0.9554,1.0156,0.9616,0.9842,1.0113,1.0113,1.0487,1.0802,1.079,1.0469,0.0,0.9656,0.9531,0.9309,0.8916,0.9499,0.9931,0.9931,0.9931,0.9692,0.9162,0.9613,0.9268,0.7875,0.8498,0.8497,0.7635,0.7385,0.7264,0.7313,0.0,0.0,0.0,0.0,0.0,0.0,0.0,0.0,0.0,0.0,0.0,0.0,0.0,0.0,0.0,0.0,0.0,0.0,0.0,0.0,0.0,0.0,-1.1823,-1.2059,-1.3155,-1.4547,-1.6146,-1.7146,-1.759,-1.73,-1.7495,-1.7612,-1.7505,-1.7623,-1.7647,-1.7647,-1.8309,-1.8671,-1.8671,-1.9447,-1.9803,-1.969,-1.9818,-1.9818,-1.969,-1.9566,-1.9207,-1.865,-1.8145,-1.7585,-1.7076,-1.668,-1.6522,-1.6522,-1.6909,-1.7076,-1.7081,-1.7085,-1.7219,-1.751,-1.8269,-1.8747,-1.909,-1.9796,-2.0494,-2.1064,-2.1081,-2.1049,-2.0661,-1.8756,-1.6059,-1.3152,-1.0499,-0.6907,-0.3279,-0.083,0.1904,0.4343,0.577,0.7376,0.8571,0.8678,0.9672,1.0374,0.9873,1.0288,1.0586,1.0218,1.0574,1.0754,1.0361,1.0192,0.0,1.0114,1.0309,1.0397,1.0409,1.0452,1.0577,1.082,1.0495,1.011,0.9698,0.968,0.9288,0.8416,0.8485,0.8433,0.8189,0.8204,0.7982,0.0,0.0,0.0,0.0,0.0,0.0,0.0,0.0,0.0,0.0,0.0,0.0,0.0,0.0,0.0,0.0,0.0,0.0,0.0,0.0,0.0,0.0,-1.2494,-1.3809,-1.4283,-1.5189,-1.6264,-1.7612,-1.8223,-1.8553,-1.8553,-1.8623,-1.8651,-1.8651,-1.8728,-1.8765,-1.8765,-1.908,-1.9244,-1.9244,-1.9717,-1.9874,-1.969,-1.9874,-1.9874,-1.969,-1.9479,-1.9207,-1.8855,-1.8106,-1.7585,0.0,-1.671,-1.6637,-1.6879,-1.7146,-1.7422,0.0,0.0,0.0,0.0,0.0,-1.9514,-1.9775,-2.0185,-2.0883,-2.1693,-2.2049,-2.2422,-2.2544,-2.1557,-1.9256,-1.6366,-1.3474,-0.9644,-0.5645,-0.1967,0.1326,0.4164,0.5977,0.7675,0.8871,0.8732,0.9703,1.0454,0.9908,0.0,0.0,1.0857,1.0882,1.0908,1.0842,1.0497,1.0332,1.0598,1.0612,1.0708,1.097,1.1203,1.127,1.1215,1.1094,0.0,0.0,0.0,0.974,0.9003,0.8531,0.0,0.0,0.0,0.0,0.0,0.0,0.0,0.0,0.8209,0.8424,0.0,0.0,0.0,0.0,0.0,0.0,0.0,0.0,0.0,0.0,0.0,0.0,0.0,0.0,0.0,0.0,-1.3822,-1.5379,-1.6427,-1.7455,-1.8237,-1.8584,-1.9173,-1.953,-1.953,-1.953,-1.953,-1.9603,-1.9603,-1.9639,-1.969,0.0,0.0,0.0,0.0,-2.0054,-1.9711,-2.0054,-2.0054,-1.969,-1.9207,-1.9006,-1.8968,-1.7867,-1.7394,-1.7353,-1.6752,-1.6795,-1.7312,-1.7394,-1.7747,-1.8366,-1.9222,-1.9549,-1.9692,-2.055,-2.0862,-2.0862,-2.091,0.0,0.0,-2.2212,-2.2637,-2.3045,-2.3086,-2.154,-1.9209,-1.6605,-1.2724,-0.8257,-0.3673,0.0324,0.3785,0.6169,0.7898,0.8961,0.8728,0.9725,1.0451,0.9943,1.0513,1.1192,1.1612,1.1256,1.1094,1.1627,1.0999,1.0623,1.1113,1.0799,1.0722,1.1212,0.0,0.0,1.1507,1.1759,1.1561,1.067,1.0683,1.0409,0.9715,0.8914,0.8615,0.8907,0.9066,0.9269,0.9499,1.0419,1.0913,1.1003,0.9508,0.9177,0.0,0.0,0.0,0.0,0.0,0.0,0.0,0.0,0.0,0.0,0.0,0.0,0.0,0.0,0.0,-1.4099,-1.5375,-1.6401,-1.7048,-1.769,-1.8121,-1.8198,-1.8349,-1.8419,-1.8419,-1.8419,-1.8574,-1.9006,-1.9043,-1.9244,-1.969,-1.969,0.0,-1.969,-1.9782,-1.9782,-1.969,-1.9782,-1.9782,-1.969,0.0,0.0,-1.953,-1.8419,-1.7947,-1.7907,-1.6909,-1.6795,-1.7353,-1.7787,-1.8535,-1.9369,-1.9118,-1.9303,-1.9696,-1.9874,-1.9945,-2.0015,-2.0314,-2.0534,-2.0766,-2.1462,-2.1868,-2.2044,-2.1885,-2.0785,0.0,-1.6963,-1.3011,-0.8627,-0.5233,-0.1007,0.2848,0.4483,0.6488,0.8097,0.8591,0.9791,1.077,1.0892,1.1454,1.1925,1.1726,1.0992,1.0611,1.1094,1.102,1.1068,1.1592,1.1907,1.2234,1.2737,1.2819,1.2911,1.3054,1.2546,1.2103,1.1877,1.1242,1.0841,1.0779,1.0774,1.0792,1.086,1.1145,1.1326,1.1368,1.1678,1.1837,1.1856,1.1535,1.1453,0.0,0.0,0.0,0.0,0.0,0.0,0.0,0.0,0.0,0.0,0.0,-1.1741,-1.267,0.0,-1.3998,-1.5103,-1.6203,-1.6901,-1.6912,-1.7353,-1.7787,-1.8066,-1.8106,-1.8106,-1.8106,-1.8106,-1.8341,-1.8855,-1.8893,-1.9132,-1.969,-1.969,-1.9566,-1.9332,-1.9281,-1.9281,-1.9281,-1.9281,-1.9442,-1.969,-1.969,-1.969,-1.9639,-1.8574,-1.8106,-1.8027,-1.6951,-1.6951,-1.7747,-1.8574,-1.9207,-1.969,-1.9406,-1.9442,-1.969,-1.969,-1.969,-1.9726,-1.9929,-2.0124,-2.0382,-2.0766,-2.1049,-2.1249,-2.128,-2.057,-1.9473,-1.8205,-1.5328,-1.1915,-0.8668,-0.4327,-0.021,0.2205,0.5011,0.7416,0.8469,0.9828,1.1056,1.1842,1.2361,1.2772,1.3195,1.208,1.1069,1.1012,1.1244,1.1505,1.1774,1.221,1.2685,1.3163,1.3526,1.3662,1.3498,1.3154,1.2937,1.289,1.2088,1.1658,1.1798,1.1542,1.1486,1.1641,1.1805,1.1929,1.1998,1.2479,1.2711,1.2711,1.3104,1.2835,0.0,0.0,0.0,0.0,0.0,0.0,0.0,0.0,-1.1414,-1.2285,-1.2826,-1.3374,-1.426,-1.4765,-1.5255,-1.5768,-1.6571,-1.6993,-1.6552,-1.6879,-1.7312,-1.7747,-1.7787,-1.7787,-1.7787,-1.7787,-1.8027,-1.8535,-1.8574,-1.8817,-1.9369,-1.9406,-1.9207,-1.8765,-1.8727,-1.8779,-1.8893,-1.8893,-1.9169,-1.969,-1.969,-1.9639,-1.953,-1.8535,-1.8027,-1.7907,-1.7034,-1.7146,-1.8027,-1.9006,-1.9406,-1.9406,-1.9406,-1.9442,-1.9566,-1.9639,-1.969,-1.969,-1.969,-1.9823,-2.0024,-2.0024,-2.0088,-2.0238,-2.0402,-2.0181,-1.9721,-1.91,-1.7603,-1.543,-1.2294,-0.8193,-0.3969,-0.0359,0.3284,0.6511,0.8489,1.0026,1.1358,1.2589,1.2943,1.3371,1.4296,1.3237,1.2087,1.1535,1.1645,1.1811,1.192,1.2365,1.2791,1.3163,1.4,1.4315,1.3896,1.4001,1.4047,1.3918,1.3188,1.2844,1.2944,1.2292,1.2079,1.2339,1.239,1.2454,1.2572,1.3225,1.3537,1.3555,1.4205,1.3757,-1.2924,-1.2829,-1.3004,-1.3155,-1.2709,-1.2636,0.0,0.0,-1.3424,-1.4373,-1.4626,-1.4815,-1.5392,-1.5567,-1.5781,-1.6333,-1.6514,-1.6552,-1.6522,-1.6552,-1.6595,-1.668,-1.668,-1.668,-1.668,-1.668,-1.6909,-1.7422,-1.7463,-1.7706,-1.8263,-1.8302,-1.8263,-1.8185,-1.8185,-1.8419,-1.8893,-1.8893,-1.9169,-1.969,-1.969,-1.9442,-1.8968,-1.838,-1.7827,-1.7394,-1.7271,-1.7271,-1.7422,-1.8027,-1.8302,-1.8302,-1.8302,-1.8574,-1.9043,-1.953,-1.969,-1.969,-1.969,-1.9442,-1.9066,-1.9066,-1.8736,-1.8345,-1.8219,-1.8702,-1.91,-1.822,-1.7567,-1.667,-1.4677,-1.1432,-0.7556,-0.3004,0.0953,0.475,0.8752,1.0671,1.1922,1.2706,1.2929,1.299,1.3239,1.3521,1.353,1.3112,1.2316,1.1957,1.2354,1.2826,1.3129,1.3198,1.4,1.4667,1.5049,1.5599,1.5649,1.5051,1.4719,1.4537,1.4537,1.4119,1.3892,1.3948,1.4113,1.4219,1.4231,1.4334,1.4371,1.4371,1.4451,1.4396,-1.5375,-1.5135,0.0,0.0,-1.4648,-1.451,-1.4722,-1.453,-1.4499,-1.523,-1.5605,-1.5906,-1.6132,-1.617,-1.6245,0.0,-1.6522,-1.6522,-1.6522,-1.6522,-1.6522,-1.6522,-1.6522,-1.6522,-1.6522,-1.6522,-1.671,-1.7271,-1.7312,-1.7544,-1.8066,-1.8106,-1.7947,-1.7626,-1.7626,-1.7907,-1.8419,-1.8419,-1.8688,-1.9258,-1.9549,-1.944,-1.8873,-1.8399,-1.7684,-1.6837,-1.7146,-1.7312,-1.7353,-1.7867,-1.8106,-1.8106,-1.8106,-1.8263,-1.8496,-1.9043,-1.9244,-1.9244,-1.9244,-1.8893,-1.8366,-1.8011,-1.7531,-1.7027,-1.6578,-1.6731,-1.71,-1.7288,-1.7287,-1.7179,-1.6884,-1.487,-1.1651,-0.6622,-0.2226,0.2201,0.7324,1.0202,1.2209,1.3684,1.3931,1.4089,1.4496,1.4543,1.4474,1.4215,1.3862,1.3552,1.3464,1.3788,1.4149,1.4287,1.4803,1.5344,1.5829,1.6214,1.6302,1.6022,1.5833,1.5565,1.5163,1.4998,1.4723,1.4375,1.4464,1.4488,1.4488,1.4488,1.4545,1.4632,1.5106,1.5365,-1.6963,0.0,0.0,-1.5983,-1.5995,-1.5875,-1.5019,-1.5108,-1.5442,-1.5844,-1.6233,-1.6552,-1.668,-1.671,-1.671,-1.671,-1.671,-1.668,-1.6522,-1.6522,-1.6522,-1.6522,-1.6522,-1.6522,-1.6522,-1.6522,-1.668,-1.7034,-1.7076,-1.7229,-1.7626,-1.7666,-1.7463,-1.7076,-1.7076,-1.7353,-1.7867,-1.7867,-1.8214,-1.8906,-1.9282,-1.9307,-1.8927,-1.8275,-1.7432,-1.6522,-1.6909,-1.7076,-1.7118,-1.7504,-1.7666,-1.7666,-1.7666,-1.7747,-1.7947,-1.8341,-1.8535,-1.8688,-1.8688,-1.8341,-1.7773,-1.7205,-1.6621,-1.6034,-1.525,-1.5173,-1.5385,-1.5969,-1.6556,-1.7138,-1.7633,-1.6786,-1.4578,-0.9699,-0.5096,-0.0302,0.5433,0.9036,1.1782,1.3794,1.4201,1.4468,1.5231,1.5104,1.5041,1.5435,1.5405,1.5084,1.4396,1.456,1.4775,1.4916,1.5433,1.5945,1.6394,1.6815,1.7037,1.7037,1.6852,1.6548,1.6056,1.5896,1.5613,1.5166,1.5166,1.5202,1.5242,1.5242,1.5303,1.546,1.6051,1.6497,0.0,0.0,-1.6757,-1.5912,-1.6,-1.6166,-1.5752,-1.607,-1.6471,-1.6497,-1.6509,-1.668,-1.7188,-1.7271,-1.7271,-1.7271,-1.7271,-1.7076,-1.6552,-1.6522,-1.6522,-1.6522,-1.6522,-1.6522,0.0,-1.6522,-1.6522,-1.6522,-1.6522,-1.6522,-1.6552,-1.6552,-1.6552,-1.6522,-1.6522,-1.6795,-1.7312,-1.7312,-1.7867,-1.8893,-1.8907,-1.8952,-1.895,-1.7932,-1.7106,-1.6522,-1.6522,-1.6522,-1.6522,-1.6552,-1.6552,-1.6552,-1.6552,-1.6879,-1.7353,-1.7353,-1.7666,-1.8145,-1.8145,-1.7787,-1.7216,-1.6604,-1.6046,-1.5398,-1.4226,-1.4283,-1.4595,-1.4064,-1.5207,-1.6542,-1.6262,-1.6357,-1.5551,-1.1562,-0.7219,-0.2419,0.3337,0.7284,1.0324,1.253,1.2978,1.3344,1.4525,1.4732,1.5285,1.6983,1.6799,1.6082,1.5003,1.4769,1.4639,1.4538,1.552,1.6343,1.6763,1.7636,1.8153,1.8153,1.7844,1.7651,1.7632,1.7126,1.6853,1.6835,1.6835,1.6922,1.7123,1.7123,1.7176,1.7321,1.734,1.7833,0.0,0.0,-1.7544,-1.6712,-1.7002,-1.725,-1.643,-1.6384,-1.6522,-1.6522,-1.6522,-1.6552,-1.6752,-1.6752,-1.6752,-1.6752,-1.6752,-1.671,-1.6522,-1.6522,-1.6522,-1.6522,-1.6522,0.0,0.0,0.0,0.0,-1.6522,-1.6522,-1.6522,-1.6522,-1.6886,-1.7087,-1.7087,-1.7451,-1.79,-1.8442,-1.8442,-1.8623,-1.8955,-1.8989,-1.896,-1.8961,-1.8652,-1.8166,-1.7614,-1.725,-1.7087,-1.7061,-1.6672,-1.6748,-1.7049,-1.6672,-1.6878,-1.7332,-1.6935,-1.6879,-1.7076,-1.7463,-1.7229,-1.6612,-1.5576,-1.5141,-1.4789,-1.3563,-1.3334,-1.3478,-1.3238,-1.3617,-1.4294,-1.5243,-1.5851,-1.5422,-1.2286,-1.0433,-0.8138,-0.3689,0.2153,0.6767,0.7532,1.1469,1.5005,1.6095,1.6371,1.6731,1.7693,1.7394,1.6872,1.6411,1.661,1.6835,1.7056,1.789,1.8326,1.8128,1.877,1.9056,1.8751,1.8744,1.8523,1.7994,1.7918,1.7634,1.7114,1.7195,1.7265,1.7327,1.7327,1.7406,1.7555,1.8126,1.8586,-1.7887,-1.8022,-1.7836,-1.7418,-1.7435,-1.7353,-1.668,-1.6522,-1.6522,-1.6522,-1.6637,-1.6837,-1.7034,-1.7076,-1.698,-1.6811,-1.66,-1.6312,-1.592,-1.5876,-1.5876,-1.5876,-1.6064,0.0,0.0,0.0,0.0,-1.6522,-1.6522,-1.6522,-1.6522,-1.7074,-1.7388,-1.7388,-1.7915,-1.838,-1.8727,-1.8727,-1.8784,-1.899,-1.9181,-1.9208,-1.8983,-1.8983,-1.8731,-1.8191,-1.7827,-1.7564,-1.735,-1.6727,-1.67,-1.6962,-1.6626,-1.6823,-1.7254,-1.6935,-1.6823,-1.6829,-1.6986,-1.6655,-1.6008,-1.5017,-1.456,-1.4201,-1.32,-1.2725,-1.2501,-1.2501,-1.2472,-1.2696,-1.3733,-1.4588,-1.4828,-1.3322,-1.2207,-1.0748,-0.7988,-0.2576,0.2657,0.5718,0.958,1.349,1.7237,1.8131,1.8422,1.8705,1.8522,1.8047,1.7263,1.7705,1.8164,1.83,1.9198,1.9712,1.9521,1.9834,1.9937,1.9614,1.9538,1.9249,1.8729,1.8827,1.8664,1.8151,1.8214,1.8278,1.8327,1.8345,1.8422,1.8573,1.9134,1.9595,-1.8967,-1.8392,-1.7678,-1.7979,-1.7312,-1.6522,-1.6522,-1.6522,-1.6552,-1.6527,-1.6912,-1.741,0.0,0.0,-1.7799,-1.718,-1.668,-1.5959,-1.488,-1.4698,-1.4709,0.0,0.0,0.0,0.0,0.0,0.0,-1.6467,0.0,-1.6491,-1.6559,-1.7112,-1.7438,-1.7463,-1.8003,-1.8292,-1.8292,-1.8292,-1.8555,-1.907,-1.9572,-1.9547,-1.9021,-1.9021,-1.8781,-1.8292,-1.8254,-1.7953,-1.7418,-1.6769,-1.6444,-1.6397,-1.6432,-1.6681,-1.7085,-1.7242,-1.733,-1.7255,-1.6623,-1.6051,-1.5543,-1.4926,-1.4329,-1.3732,-1.3104,-1.2393,-1.1814,-1.1814,-1.1765,-1.1715,-1.1765,-1.2745,-1.3815,-1.4468,-1.2688,-1.0583,-0.9695,-0.6756,-0.1861,0.6361,0.7481,0.9705,1.7953,1.9935,2.0313,2.004,2.0167,1.9623,1.7723,1.8212,1.8659,1.8448,1.9647,2.0582,2.0876,2.0864,2.0788,2.0741,2.022,1.9896,1.9821,1.9858,1.9858,1.9821,1.9832,1.989,2.0022,2.0078,2.0184,2.0304,2.0348,2.0812,-1.8392,-1.8303,-1.7885,-1.7585,-1.7312,-1.6993,-1.6595,-1.6795,-1.6946,-1.6449,-1.6784,-1.6962,0.0,0.0,0.0,-1.5553,-1.5629,0.0,-1.4789,-1.4698,0.0,-1.5846,0.0,-1.6325,-1.667,-1.686,0.0,0.0,-1.5948,-1.6235,-1.7137,-1.7282,-1.7713,-1.8545,-1.912,-1.9397,-1.9397,-1.9397,-1.9459,-1.961,-1.9736,-1.9736,-1.961,-1.961,-1.9522,-1.9371,-1.8982,-1.8744,-1.8532,-1.7999,-1.7666,-1.7452,-1.7061,-1.6918,-1.6809,-1.6081,-1.6162,-1.6441,-1.5474,-1.5656,-1.6107,-1.5017,-1.4606,-1.4294,-1.32,-1.2393,-1.1814,-1.1814,-1.1065,-1.0517,-1.1566,-1.1657,-1.1855,-1.3084,-1.3701,-1.3939,-1.3679,-1.0087,-0.5994,-0.2861,0.7764,1.7065,1.9672,2.1706,2.2611,2.1556,2.1854,2.1653,2.0033,2.0289,2.0839,2.1424,2.2195,2.2611,2.2383,2.2484,2.2151,2.113,2.1547,2.124,1.992,2.0638,2.0732,2.0045,2.0165,2.0265,2.0291,2.0321,2.0328,2.0313,2.1014,2.1418,-1.8093,-1.8009,-1.7666,-1.7394,-1.7105,-1.6802,-1.6292,-1.6507,-1.6612,-1.5684,-1.6298,0.0,0.0,0.0,0.0,0.0,0.0,0.0,-1.3967,-1.4154,-1.4644,0.0,-1.608,0.0,-1.7121,-1.7424,-1.7266,0.0,-1.6026,-1.6221,-1.7213,-1.7436,-1.8018,-1.897,-1.9535,-1.9798,-1.9798,-1.9798,-1.9798,-1.9798,-1.9798,-1.9798,-1.9798,-1.9798,-1.9798,-1.9786,0.0,-1.9233,-1.8958,-1.8376,-1.8054,-1.7855,-1.7268,-1.7105,-1.7075,-1.6243,-1.6176,-1.6466,-1.5948,-1.5963,-1.6103,-1.4937,-1.4729,-1.4709,-1.3721,-1.2674,-1.1826,-1.1713,-1.0853,-1.0256,-1.1108,-1.1316,-1.1516,-1.2579,-1.3277,-1.3766,-1.3993,-1.148,-0.7809,-0.3313,0.8335,1.8025,1.9822,2.1852,2.3191,2.303,2.3204,2.3077,2.2418,2.2158,2.2229,2.2847,2.3578,2.3969,2.3832,2.3705,2.3321,2.252,2.2578,2.2183,2.1205,2.1751,2.1828,2.1302,2.1405,2.1446,2.1446,2.148,2.1472,2.1445,2.1984,2.2386,-1.7915,-1.7666,-1.7188,-1.7271,-1.6909,-1.6371,-1.5819,-1.602,-1.5942,-1.4716,0.0,-1.617,-1.4728,-1.5281,-1.5518,-1.4117,0.0,-1.3763,-1.319,-1.36,-1.4206,-1.4876,-1.59,-1.6765,-1.7274,-1.7897,-1.7897,-1.695,-1.6356,-1.6384,-1.7166,-1.7591,-1.8193,-1.9071,-1.9572,-1.9798,-1.9798,-1.9798,-1.9798,-1.9798,-1.9798,-1.9798,-1.9798,-1.9798,-1.9798,-1.9798,0.0,0.0,-1.9083,-1.8544,-1.8214,-1.7934,-1.7322,-1.7209,-1.7357,-1.6752,-1.6587,-1.6669,-1.6676,-1.645,-1.5924,-1.4942,-1.4908,-1.5039,-1.4174,-1.3014,-1.1828,-1.1469,-1.0871,-1.0401,-1.0772,-1.125,-1.1855,-1.2531,-1.215,-1.1787,-1.2203,-1.112,-0.7715,0.019,0.8529,1.5484,1.9331,2.1321,2.2829,2.4194,2.4201,2.4118,2.4334,2.3611,2.3202,2.3452,2.4241,2.4815,2.5006,2.4592,2.4251,2.41,2.3476,2.301,2.2779,2.2912,2.2933,2.2824,2.2818,2.2832,2.2832,2.2873,2.2914,2.2894,2.3004,2.342,-1.7959,-1.7394,-1.6752,-1.7188,-1.6909,-1.6371,-1.5819,-1.5931,0.0,0.0,0.0,-1.4976,-1.4299,-1.4422,0.0,-1.4487,0.0,0.0,0.0,0.0,-1.5127,0.0,0.0,0.0,0.0,0.0,0.0,0.0,0.0,-1.683,-1.7721,-1.7381,-1.7937,-1.9609,-1.9761,-1.9798,-1.9798,-1.9798,-1.9798,-1.9798,-1.9798,-1.9798,-1.9798,-1.9798,-1.9798,-1.9798,-1.9798,0.0,-1.966,-1.9558,-1.912,-1.8478,-1.777,-1.7181,-1.6599,-1.5538,-1.5485,-1.5783,-1.4899,-1.55,-1.6588,-1.6058,-1.5564,-1.4861,-1.3521,-1.252,-1.1767,-1.1056,-1.0572,-1.0454,-1.1027,-1.1096,-1.1166,-1.1805,-1.1458,-1.0855,-1.0399,-0.8423,-0.5461,-0.1052,0.6384,1.39,1.9913,2.1696,2.2784,2.4198,2.4631,2.4626,2.4128,2.4118,2.4246,2.4514,2.4788,2.4972,2.5075,2.5006,2.4682,2.4064,2.4505,2.415,2.2687,2.3485,2.3624,2.2893,2.2946,2.297,2.297,2.297,2.2948,2.2914,2.3581,2.3879,-1.7626,-1.7118,-1.6552,-1.6837,-1.668,-1.6296,-1.5454,0.0,0.0,0.0,0.0,-1.4147,-1.305,0.0,0.0,0.0,0.0,0.0,0.0,0.0,0.0,0.0,0.0,0.0,0.0,0.0,0.0,0.0,0.0,-1.6725,-1.7135,-1.7607,-1.8465,-1.9734,-1.9798,-1.9798,-1.9798,-1.9798,-1.9798,-1.9798,-1.9798,-1.9798,-1.9798,-1.9798,-1.9798,-1.9798,-1.9798,0.0,-1.9747,-1.9371,-1.9044,-1.8608,-1.7468,-1.681,-1.6404,-1.5462,-1.5278,-1.5522,-1.5411,-1.5694,-1.6106,-1.6267,-1.6105,-1.5615,-1.4551,-1.3398,-1.2431,-1.2364,-1.1614,-1.1007,-1.1741,-1.1826,-1.1627,-1.1318,-1.0517,-0.9444,-0.8389,-0.7427,-0.5415,-0.0568,0.3894,0.9022,1.5699,1.8439,2.0336,2.229,2.3251,2.3626,2.3303,2.3386,2.3694,2.4316,2.4417,2.4432,2.4411,2.4619,2.4571,2.4189,2.4674,2.4629,2.3777,2.4315,2.4408,2.4006,2.412,2.4197,2.4197,2.4197,2.4129,2.4,2.4383,2.439,-1.734,-1.6909,-1.6522,-1.6522,-1.6522,-1.6233,-1.5233,-1.502,0.0,0.0,-1.3381,-1.3352,-1.2236,0.0,0.0,0.0,0.0,0.0,0.0,0.0,0.0,0.0,0.0,0.0,0.0,0.0,0.0,0.0,0.0,0.0,-1.6492,-1.7895,-1.8992,-1.9527,-1.9695,-1.9798,-1.9798,-1.9798,-1.9798,-1.9798,-1.9798,-1.9798,-1.9798,-1.9643,-1.9579,-1.9579,-1.9423,0.0,0.0,-1.8715,-1.8436,-1.834,-1.7034,-1.6492,-1.6436,-1.57,-1.541,-1.5468,-1.6036,-1.5864,-1.5526,-1.6093,-1.6265,-1.614,-1.5342,-1.4145,-1.3072,-1.3485,-1.263,-1.1736,-1.2536,-1.2697,-1.2316,-1.1028,-0.9769,-0.848,-0.7343,-0.7289,-0.6075,-0.1295,0.12,0.4461,1.0513,1.4223,1.7181,1.9635,2.0942,2.162,2.159,2.1639,2.1993,2.2829,2.3332,2.3625,2.3671,2.3916,2.4079,2.4134,2.4379,2.4514,2.4514,2.4733,2.4828,2.475,2.496,2.5038,2.4984,2.4984,2.4905,2.475,2.4652,2.4339,-1.7409,-1.6909,-1.6522,-1.6522,-1.6522,-1.6304,-1.5594,0.0,0.0,-1.3557,-1.2683,-1.2229,-1.2922,-1.2701,0.0,0.0,0.0,0.0,0.0,0.0,0.0,0.0,0.0,0.0,0.0,0.0,0.0,0.0,0.0,0.0,-1.6482,-1.7895,-1.8715,-1.8821,-1.9475,-1.9798,-1.9798,-1.9798,-1.9798,-1.9798,-1.9798,-1.9798,-1.9798,-1.9097,-1.8821,-1.8768,-1.8112,0.0,0.0,-1.7743,-1.7688,-1.7633,-1.681,-1.6492,-1.6436,-1.57,-1.541,-1.541,-1.5468,-1.5468,-1.541,-1.5468,-1.5526,-1.5342,-1.4569,-1.3726,-1.3,-1.3028,-1.2728,-1.2456,-1.3309,-1.3257,-1.2599,-1.0925,-0.9621,-0.8752,-0.8646,-0.7616,-0.6529,-0.5973,-0.1507,0.3232,0.6595,1.056,1.4203,1.679,1.7945,1.8451,1.8268,1.851,1.8875,1.9388,2.1353,2.2812,2.3218,2.3123,2.3205,2.3539,2.3599,2.3619,2.3619,2.4098,2.4236,2.3916,2.4236,2.4234,2.3952,2.3952,2.3934,2.3897,2.3541,2.2966,-1.7718,-1.7146,-1.6522,-1.6522,-1.6271,-1.5812,-1.5051,0.0,-1.374,-1.3257,-1.2685,-1.2394,-1.2758,-1.2659,-1.264,0.0,0.0,0.0,0.0,0.0,0.0,0.0,0.0,0.0,0.0,0.0,0.0,0.0,0.0,0.0,-1.6492,-1.7468,-1.8447,-1.9307,-1.9643,-1.9798,-1.9798,-1.9798,-1.9798,-1.9798,-1.9798,-1.9798,-1.9747,-1.9044,-1.8715,-1.8661,-1.7907,0.0,0.0,-1.7302,-1.7191,-1.7468,-1.6312,-1.5864,-1.5806,-1.5526,-1.541,-1.541,-1.541,-1.541,-1.541,-1.541,-1.541,-1.5235,-1.4451,-1.3666,-1.313,-1.3614,-1.3262,-1.2983,-1.4042,-1.3376,-1.2202,-1.1501,-1.0133,-0.8902,-0.8513,-0.7449,-0.6367,-0.5483,-0.2686,0.07,0.4518,0.7145,0.9452,1.1591,1.3383,1.4624,1.4965,1.5509,1.6072,1.6705,1.9053,2.0796,2.1342,2.1787,2.2136,2.2297,2.2444,2.2554,2.2554,2.2863,2.2968,2.2833,2.3088,2.3157,2.3031,2.3031,2.2781,2.2341,2.1821,2.0855,-1.7894,-1.7411,-1.6752,-1.6752,-1.622,-1.5524,0.0,0.0,-1.3516,-1.3176,-1.2713,-1.2416,-1.2572,-1.2424,-1.2284,0.0,0.0,0.0,0.0,0.0,0.0,0.0,0.0,0.0,0.0,0.0,0.0,0.0,0.0,0.0,0.0,-1.7633,-1.8394,-1.9423,-1.9695,-1.9798,-1.9798,-1.9798,-1.9798,-1.9798,-1.9798,-1.9695,-1.9475,-1.8715,-1.8286,-1.8004,0.0,0.0,0.0,-1.6698,-1.6585,-1.7135,-1.5911,-1.541,-1.541,-1.541,-1.541,-1.541,-1.541,-1.541,-1.541,-1.541,-1.541,-1.5235,-1.4451,-1.3666,-1.3252,-1.4273,-1.4154,-1.3903,-1.4754,-1.3458,-1.1958,-1.1958,-1.0546,-0.9072,-0.8621,-0.7743,-0.6619,-0.5215,-0.3613,-0.1208,0.2898,0.4439,0.577,0.7784,0.9313,1.0435,1.0962,1.2109,1.3211,1.4148,1.6242,1.8186,1.9597,2.0344,2.0831,2.1115,2.1154,2.1163,2.1163,2.1213,2.1199,2.1102,2.1149,2.113,2.1055,2.1055,2.0669,1.9984,1.9405,1.8022,-1.7855,-1.7611,-1.7312,-1.7312,-1.6484,-1.5591,0.0,-1.4269,-1.3445,-1.3577,-1.2654,-1.1982,-1.2514,-1.1894,-1.1412,-1.1762,0.0,0.0,0.0,0.0,0.0,0.0,0.0,0.0,0.0,0.0,0.0,0.0,0.0,0.0,0.0,-1.8661,-1.8715,-1.8715,-1.9423,-1.9798,-1.9798,-1.9798,-1.9798,-1.9798,-1.9798,-1.9423,-1.8715,-1.7961,-1.7191,0.0,0.0,0.0,0.0,-1.57,-1.5864,-1.6436,-1.569,-1.541,-1.541,-1.541,-1.541,-1.541,-1.541,-1.541,-1.541,-1.541,-1.541,-1.5235,-1.4451,-1.3666,-1.3304,-1.4932,-1.5352,-1.5352,-1.54,-1.3732,-1.2095,-1.2095,-1.0609,-0.9183,-0.9183,-0.867,-0.7751,-0.619,-0.4497,-0.2136,0.1594,0.2642,0.3796,0.6263,0.6245,0.5961,0.5961,0.8209,1.0261,1.1572,1.2902,1.5017,1.8328,1.8757,1.9207,2.0156,1.9717,1.9441,1.9441,1.9156,1.8871,1.8534,1.8223,1.7925,1.7671,1.7671,1.7293,1.6664,1.6184,1.4369,-1.6241,-1.6198,-1.6033,-1.5348,-1.4959,-1.4553,-1.3855,-1.3572,-1.33,-1.2756,-1.2152,-1.1779,-1.1953,-1.1261,-1.109,-1.2334,-1.2584,0.0,0.0,0.0,0.0,0.0,0.0,0.0,0.0,0.0,0.0,0.0,0.0,0.0,0.0,-1.9851,-1.9927,-1.9475,-1.9695,-1.9798,-1.9798,-1.9798,-1.9798,-1.9798,-1.9798,-1.9423,-1.8661,-1.7961,0.0,0.0,0.0,0.0,0.0,-1.569,-1.5806,-1.6436,-1.57,-1.541,-1.541,-1.541,-1.541,-1.541,-1.541,-1.541,-1.541,-1.541,-1.541,-1.5235,-1.4451,-1.3666,-1.313,-1.3606,-1.3786,-1.3914,-1.4451,-1.3237,-1.1879,-1.1879,-1.0811,-0.984,-0.984,-0.9091,-0.8259,-0.7615,-0.6201,-0.4584,-0.2705,-0.1376,-0.0,0.1825,0.2536,0.3406,0.4783,0.6207,0.778,0.9453,1.1254,1.3429,1.6258,1.6868,1.7021,1.6876,1.6673,1.6389,1.594,1.6271,1.6419,1.6319,1.666,1.6781,1.6723,1.6262,1.5014,1.3076,1.161,1.0154,0.0,-1.5551,-1.5556,-1.4921,-1.4435,-1.3896,-1.3273,-1.2991,-1.2628,-1.1961,-1.1483,-1.1209,-1.1292,-1.0607,-1.0534,-1.2239,-1.2334,0.0,0.0,0.0,0.0,0.0,0.0,0.0,0.0,0.0,0.0,0.0,0.0,0.0,0.0,-2.0756,-2.0818,-2.0207,-2.0207,-2.0055,-1.9798,-1.9798,-1.9798,-1.9798,-1.9527,-1.898,-1.8286,-1.7523,0.0,0.0,0.0,0.0,0.0,-1.569,-1.5806,-1.6436,-1.57,-1.541,-1.541,-1.541,-1.541,-1.541,-1.541,-1.541,-1.541,-1.541,-1.541,-1.5235,-1.4451,-1.3666,-1.2948,-1.2634,-1.2765,-1.313,-1.3606,-1.2712,-1.1585,-1.1585,-1.0838,-1.0114,-1.0114,-0.9601,-0.9008,-0.8609,-0.76,-0.6341,-0.4748,-0.368,-0.2771,-0.1836,-0.0222,0.1386,0.2656,0.428,0.5954,0.7482,0.9409,1.1303,1.3138,1.4327,1.4954,1.5019,1.4552,1.4125,1.3729,1.3852,1.392,1.392,1.4135,1.4078,1.3807,1.316,1.1985,1.0414,0.8671,0.7623,0.0,-1.5407,-1.5573,-1.5473,-1.4555,-1.3586,-1.3292,-1.2465,0.0,-1.1265,-1.0711,-1.0392,-1.0678,-0.9957,-0.9915,-1.1786,-1.1932,0.0,0.0,0.0,0.0,0.0,0.0,0.0,0.0,0.0,0.0,0.0,0.0,0.0,0.0,-2.139,-2.1424,-2.0795,-2.0795,-2.0497,-1.9798,-1.9747,-1.9747,-1.9798,-1.9032,-1.8328,-1.7688,-1.6978,0.0,0.0,0.0,0.0,0.0,-1.5748,-1.5864,-1.6368,-1.57,-1.541,-1.541,-1.541,-1.541,-1.541,-1.541,-1.541,-1.541,-1.541,-1.5294,-1.5108,-1.4332,-1.3606,-1.294,-1.2197,-1.2451,-1.3009,-1.3009,-1.2145,-1.1309,-1.1249,-1.0671,-1.0147,-1.0147,-1.0147,-0.989,-0.912,-0.8545,-0.7451,-0.5113,-0.4594,-0.4515,-0.4501,-0.212,-0.0222,-0.0,0.2544,0.4692,0.5716,0.7435,0.8822,0.9578,1.1442,1.3027,1.4076,1.3111,1.2474,1.2416,1.188,1.1554,1.1554,1.099,1.0383,0.9644,0.8962,0.8532,0.8366,0.6926,0.6289,-1.2212,0.0,-1.4435,-1.3299,-1.3176,-1.3041,0.0,-1.1976,-1.1936,-1.1122,0.0,-1.0515,-1.1003,-1.0158,-1.0386,-1.3536,-1.3502,0.0,0.0,0.0,0.0,0.0,0.0,0.0,0.0,0.0,0.0,0.0,0.0,0.0,0.0,-2.139,-2.1424,-2.0795,-2.0795,-2.0497,-1.9798,-1.9254,-1.9254,-1.9798,-1.9032,-1.8608,-1.8447,-1.8286,0.0,0.0,0.0,0.0,-1.57,-1.6093,-1.6036,-1.5642,-1.5468,-1.541,-1.541,-1.541,-1.541,-1.541,-1.541,-1.541,-1.541,-1.541,-1.4569,-1.3554,-1.3373,-1.3606,-1.3906,-1.3666,-1.3304,-1.3009,-1.3009,-1.2326,-1.1537,-1.0933,-1.0635,-1.0454,-1.0454,-1.0454,-1.0132,-0.9088,-0.8271,-0.7586,-0.6752,-0.5529,-0.4623,-0.4492,-0.3901,-0.2617,-0.0278,0.1603,0.3254,0.4692,0.5887,0.7228,0.8822,1.0367,1.1173,1.0906,1.062,1.0238,0.974,1.0049,1.0254,1.0254,1.0069,0.9629,0.8923,0.8074,0.6869,0.5374,0.3895,0.3456,-1.0906,-1.2378,-1.3696,-1.2761,-1.2859,-1.3012,-1.2343,0.0,0.0,0.0,0.0,-1.0148,-1.0829,-1.0171,0.0,-1.3395,-1.3617,0.0,0.0,0.0,0.0,0.0,0.0,0.0,0.0,0.0,0.0,0.0,0.0,0.0,0.0,-2.152,-2.1568,-2.1197,-2.093,-2.0497,-1.9798,-1.9423,-1.9254,-1.9307,-1.8874,-1.8501,-1.8178,-1.8178,-1.7731,0.0,0.0,0.0,-1.5921,-1.6322,-1.6093,-1.541,-1.541,-1.541,-1.541,-1.541,-1.541,-1.541,-1.541,-1.5167,-1.4815,-1.4451,-1.3734,-1.3009,-1.3009,-1.3312,-1.3485,-1.2757,-1.2512,-1.2389,-1.1965,-1.16,-1.117,-1.0681,-1.0624,-1.0624,-1.0624,-1.0624,-1.0319,-0.9205,-0.8567,-0.7947,-0.704,-0.6314,-0.5596,-0.4824,-0.4646,-0.3992,-0.2281,-0.0283,0.135,0.2327,0.4139,0.5675,0.6689,0.8081,0.9162,0.9762,0.951,0.9159,0.8804,0.9159,0.933,0.932,0.8448,0.7871,0.7751,0.6584,0.5474,0.4418,0.2233,0.2068,-1.0502,-1.1895,-1.3209,-1.272,-1.2871,-1.3071,-1.2841,0.0,0.0,0.0,0.0,0.0,0.0,0.0,0.0,0.0,0.0,0.0,0.0,0.0,0.0,0.0,0.0,0.0,0.0,0.0,0.0,0.0,0.0,0.0,0.0,-2.1383,-2.1424,-2.1411,-2.0917,-2.0346,-1.9811,-1.9579,-1.915,-1.8555,-1.8555,-1.8286,-1.7797,-1.7895,-1.7841,0.0,0.0,0.0,-1.6492,-1.6492,-1.6093,-1.541,-1.541,-1.541,-1.541,-1.541,-1.541,-1.5352,-1.5235,-1.4688,-1.3906,-1.3252,-1.2948,-1.2826,-1.2826,-1.2826,-1.252,-1.0989,-1.1288,-1.1772,-1.0989,-1.0807,-1.0744,-1.0624,-1.0624,-1.0624,-1.0624,-1.0624,-1.0301,-0.9268,-0.8885,-0.8229,-0.6674,-0.6757,-0.6565,-0.5312,-0.4965,-0.478,-0.4631,-0.2525,-0.0752,-0.0112,0.2277,0.3981,0.4481,0.5588,0.716,0.9176,0.8896,0.8646,0.8646,0.8599,0.8526,0.8375,0.6574,0.5868,0.6298,0.5072,0.4284,0.3772,0.1177,0.1513,-1.0852,-1.2016,-1.2618,-1.1549,-1.2039,-1.2437,-1.1138,0.0,0.0,0.0,0.0,0.0,0.0,0.0,0.0,0.0,0.0,0.0,0.0,0.0,0.0,0.0,0.0,0.0,0.0,0.0,0.0,0.0,0.0,0.0,0.0,-1.9974,-2.0233,-2.0118,-1.9991,-1.9901,-1.9798,-1.8555,-1.7907,-1.7797,-1.7797,-1.8058,-1.8555,-1.9202,-1.915,0.0,0.0,-1.7731,-1.6492,-1.6492,-1.6093,-1.541,-1.541,-1.541,-1.541,-1.541,-1.541,-1.5294,-1.4628,-1.3846,-1.3191,-1.307,-1.2512,-1.195,-1.195,-1.195,-1.1772,-1.0863,-1.1663,-1.2634,-1.1834,-1.1648,-1.1469,-1.0744,-1.0624,-1.0624,-1.0624,-1.0624,-1.0104,-0.8479,-0.813,-0.7842,-0.6807,-0.5954,-0.5594,-0.6095,-0.5417,-0.4908,-0.4968,-0.4364,-0.2982,-0.0581,0.0283,0.1717,0.4262,0.4703,0.5471,0.7009,0.7557,0.7883,0.7883,0.7705,0.7231,0.6356,0.5226,0.4688,0.4849,0.4626,0.3203,0.0672,0.0224,0.0895,-0.9818,-1.0844,-1.157,-1.0668,-1.1783,-1.2905,-1.2239,0.0,0.0,0.0,0.0,0.0,0.0,0.0,0.0,0.0,0.0,0.0,0.0,0.0,0.0,0.0,0.0,0.0,0.0,0.0,0.0,0.0,0.0,0.0,0.0,0.0,-1.9136,-1.9403,-1.9407,-1.9169,-1.8775,-1.8413,-1.8004,-1.7578,-1.7578,-1.7578,-1.7523,-1.8715,-1.9044,-1.8715,0.0,-1.8447,-1.709,-1.709,-1.6415,-1.541,-1.541,-1.541,-1.541,-1.541,-1.5108,-1.4628,-1.3846,-1.3,-1.2266,-1.1841,-1.1476,-1.1163,-1.1163,-1.1163,-1.1045,-1.0681,-1.1476,-1.2143,-1.1351,-1.1163,-1.1045,-1.0688,-1.0624,-1.0624,-1.0624,-1.0238,-0.9524,-0.8221,-0.7632,-0.7051,-0.6141,-0.6009,-0.5955,-0.5898,-0.5894,-0.5691,-0.5178,-0.5051,-0.4418,-0.2949,-0.1225,0.0342,0.1707,0.3482,0.512,0.6534,0.6912,0.7246,0.7538,0.6949,0.6882,0.7466,0.5503,0.3641,0.2076,0.2076,0.1345,-0.0,-0.0,0.0336,-0.9193,-1.0033,-1.0861,-1.0685,0.0,-1.2978,-1.3179,0.0,0.0,0.0,0.0,0.0,0.0,0.0,0.0,0.0,0.0,0.0,0.0,0.0,0.0,0.0,0.0,0.0,0.0,0.0,0.0,0.0,0.0,0.0,0.0,0.0,-1.8274,-1.8872,-1.8821,-1.8561,-1.7977,-1.8052,-1.7829,-1.7357,-1.7523,-1.7191,-1.6539,-1.7852,-1.8447,-1.8436,-1.8886,-1.8394,-1.7302,-1.7135,-1.6415,-1.541,-1.541,-1.541,-1.541,-1.541,-1.4864,-1.4085,-1.3312,-1.2451,-1.1648,-1.0863,-1.0624,-1.0624,-1.0624,-1.0624,-1.0624,-1.0624,-1.1045,-1.1406,-1.0744,-1.0624,-1.0624,-1.0624,-1.0624,-1.0624,-1.0624,-0.9913,-0.9075,-0.8156,-0.7307,-0.6396,-0.5557,-0.5947,-0.6137,-0.5491,-0.5947,-0.609,-0.526,-0.5293,-0.5234,-0.4999,-0.2817,-0.1107,-0.0347,0.1977,0.3895,0.4965,0.5462,0.5914,0.6317,0.5156,0.5246,0.6724,0.4209,0.1959,-0.0,-0.0,-0.0,-0.0,-0.0,-0.0,-1.0161,-1.0676,-1.1167,-1.2224,-1.2028,0.0,-1.2354,0.0,0.0,0.0,0.0,0.0,0.0,0.0,0.0,0.0,0.0,0.0,0.0,0.0,0.0,0.0,0.0,0.0,0.0,0.0,0.0,0.0,0.0,0.0,0.0,0.0,0.0,-1.8226,-1.8242,-1.8219,-1.8159,-1.698,-1.6433,-1.6606,-1.7246,-1.7191,-1.6549,-1.7302,-1.7688,-1.7633,-1.7034,-1.6652,-1.6549,-1.5864,-1.5526,-1.541,-1.541,-1.541,-1.541,-1.541,-1.4864,-1.4085,-1.3312,-1.2451,-1.1648,-1.0863,-1.0624,-1.0624,-1.0624,-1.0624,-1.0624,-1.0624,-1.0624,-1.0681,-1.0624,-1.0624,-1.0624,-1.0624,-1.0624,-1.0624,-1.0624,-0.9913,-0.9075,-0.8156,-0.7307,-0.6396,-0.5557,-0.5425,-0.5491,-0.5428,-0.5425,-0.5488,-0.5411,-0.522,-0.5198,-0.5329,-0.4817,-0.33,-0.028,0.0166,0.0387,0.0443,0.2148,0.3189,0.3247,0.1435,0.0499,0.0609,-0.089,-0.1171,-0.0,-0.0,-0.0,-0.0,-0.0,-0.0,-0.9094,-0.9962,-1.0886,-1.1584,0.0,0.0,0.0,0.0,0.0,0.0,0.0,0.0,0.0,0.0,0.0,0.0,0.0,0.0,0.0,0.0,0.0,0.0,0.0,0.0,0.0,0.0,0.0,0.0,0.0,0.0,0.0,0.0,0.0,-1.7149,-1.7501,-1.748,-1.707,-1.6966,-1.6508,-1.5668,-1.5506,-1.5454,-1.5461,-1.6208,-1.6526,-1.6591,-1.7004,-1.6922,-1.6492,-1.6208,-1.5806,-1.541,-1.541,-1.541,-1.541,-1.541,-1.4864,-1.4154,-1.3846,-1.3243,-1.2389,-1.1593,-1.1351,-1.1226,-1.0744,-1.0624,-1.0624,-1.0624,-1.0624,-1.0624,-1.0624,-1.0624,-1.0624,-1.0624,-1.0624,-1.0624,-1.0624,-0.9518,-0.842,-0.8091,-0.6859,-0.5815,-0.5425,-0.5428,-0.5428,-0.5428,-0.5428,-0.5428,-0.5428,-0.5311,-0.5343,-0.5415,-0.5167,-0.4391,-0.2952,-0.1894,-0.1762,-0.2736,-0.0331,0.0826,0.0165,-0.0553,-0.1499,-0.2788,-0.3355,-0.336,-0.2805,-0.0894,-0.0,-0.0,-0.0,-0.0,-0.8431,-0.9394,-1.0539,0.0,0.0,0.0,0.0,0.0,0.0,0.0,0.0,0.0,0.0,0.0,0.0,0.0,0.0,0.0,0.0,0.0,0.0,0.0,0.0,0.0,0.0,0.0,0.0,0.0,0.0,0.0,0.0,0.0,0.0,0.0,-1.6911,-1.6806,-1.6168,-1.635,-1.5969,-1.4963,-1.409,-1.4033,-1.458,-1.5097,-1.5357,-1.5378,-1.6169,-1.6293,-1.5936,-1.5936,-1.5743,-1.541,-1.541,-1.541,-1.541,-1.541,-1.505,-1.4569,-1.4273,-1.3846,-1.3183,-1.2135,-1.1834,-1.1648,-1.0863,-1.0624,-1.0624,-1.0624,-1.0624,-1.0624,-1.0624,-1.0624,-1.0624,-1.0624,-1.0624,-1.0624,-1.0624,-0.9256,-0.8027,-0.8027,-0.6601,-0.5428,-0.5428,-0.5428,-0.5428,-0.5428,-0.5428,-0.5428,-0.5428,-0.5428,-0.5408,-0.5294,-0.5203,-0.4964,-0.4624,-0.3582,-0.3412,-0.4442,-0.2554,-0.1716,-0.2445,-0.2443,-0.3118,-0.4487,-0.4487,-0.449,-0.4504,-0.2122,-0.0837,-0.0671,-0.0671,-0.0448,-0.8482,-0.9237,0.0,0.0,0.0,0.0,0.0,0.0,0.0,0.0,0.0,0.0,0.0,0.0,0.0,0.0,0.0,0.0,0.0,0.0,0.0,0.0,0.0,0.0,0.0,0.0,0.0,0.0,0.0,0.0,0.0,0.0,0.0,0.0,-1.6466,-1.6194,-1.5588,-1.5005,-1.4606,-1.438,-1.34,-1.332,-1.4077,-1.4077,-1.4077,-1.4077,-1.4077,-1.4375,-1.4775,-1.4775,-1.5029,-1.54,-1.54,-1.541,-1.541,-1.541,-1.541,-1.5294,-1.451,-1.4213,-1.3965,-1.232,-1.1834,-1.1648,-1.0863,-1.0624,-1.0624,-1.0624,-1.0624,-1.0624,-1.0624,-1.0624,-1.0624,-1.0624,-1.0624,-1.0624,-1.0624,-0.9256,-0.8027,-0.8027,-0.6601,-0.5428,-0.5428,-0.5428,-0.5428,-0.5428,-0.5428,-0.5428,-0.5428,-0.5428,-0.5304,-0.5148,-0.5131,-0.502,-0.4797,-0.4759,-0.4633,-0.449,-0.4525,-0.4525,-0.448,-0.4525,-0.4519,-0.4519,-0.4519,-0.4522,-0.448,-0.3514,-0.273,-0.2232,-0.2232,-0.1451,-0.857,-0.9261,0.0,0.0,0.0,0.0,0.0,0.0,0.0,0.0,0.0,0.0,0.0,0.0,0.0,0.0,0.0,0.0,0.0,0.0,0.0,0.0,0.0,0.0,0.0,0.0,0.0,0.0,0.0,0.0,0.0,0.0,0.0,0.0,-1.6095,-1.5599,-1.4971,-1.4376,-1.3805,-1.3342,-1.3027,-1.3164,-1.3691,-1.3691,-1.3691,-1.3711,-1.4004,-1.4209,-1.4326,-1.4326,-1.458,-1.4971,-1.4971,-1.5146,-1.541,-1.541,-1.541,-1.5352,-1.5118,-1.4688,-1.4025,-1.3,-1.2266,-1.1648,-1.0863,-1.0624,-1.0624,-1.0624,-1.0624,-1.0624,-1.0624,-1.0624,-1.0624,-1.0624,-1.0624,-1.0624,-1.0624,-0.9716,-0.8748,-0.8091,-0.7116,-0.6141,-0.5491,-0.5428,-0.5428,-0.5428,-0.5428,-0.5428,-0.5428,-0.5428,-0.5411,-0.5298,-0.5291,-0.5213,-0.5023,-0.5003,-0.4942,-0.4799,-0.4684,-0.4575,-0.4525,-0.4519,-0.4519,-0.4519,-0.4519,-0.4522,-0.448,-0.4193,-0.3971,-0.3811,-0.3811,-0.3585,-0.9056,0.0,0.0,0.0,0.0,0.0,0.0,0.0,0.0,0.0,0.0,0.0,0.0,0.0,0.0,0.0,0.0,0.0,0.0,0.0,0.0,0.0,0.0,0.0,0.0,0.0,0.0,0.0,0.0,0.0,0.0,0.0,0.0,0.0,-1.6151,-1.5555,-1.4698,-1.4329,-1.3742,-1.2881,-1.2881,-1.3018,-1.3262,-1.3262,-1.3092,-1.284,-1.3266,-1.3614,-1.3844,-1.4009,-1.4287,-1.4541,-1.4717,-1.4941,-1.5186,-1.5352,-1.541,-1.541,-1.541,-1.4864,-1.4094,-1.3252,-1.2451,-1.1648,-1.0863,-1.0624,-1.0624,-1.0624,-1.0624,-1.0624,-1.0624,-1.0624,-1.0624,-1.0624,-1.0624,-1.0624,-1.0624,-0.9913,-0.9139,-0.8613,-0.7502,-0.6527,-0.6009,-0.562,-0.5428,-0.5428,-0.5428,-0.5428,-0.5428,-0.5428,-0.5428,-0.5428,-0.5428,-0.5298,-0.5142,-0.5131,-0.5192,-0.5404,-0.5359,-0.5339,-0.5505,-0.5152,-0.5062,-0.5336,-0.5336,-0.5175,-0.4904,-0.4904,-0.4746,-0.4484,-0.4484,-0.4484,0.0,0.0,0.0,0.0,0.0,0.0,0.0,0.0,0.0,0.0,0.0,0.0,0.0,0.0,0.0,0.0,0.0,0.0,0.0,0.0,0.0,0.0,0.0,0.0,0.0,0.0,0.0,0.0,0.0,0.0,0.0,0.0,0.0,0.0,-1.6436,-1.5876,-1.4698,-1.4663,-1.4014,0.0,-1.2881,-1.2881,-1.2881,-1.2881,-1.255,-1.194,-1.2341,-1.2875,-1.3477,-1.3857,-1.4009,-1.4116,-1.457,-1.4775,-1.4893,-1.5273,-1.541,-1.541,-1.5294,-1.4746,-1.3965,-1.3122,-1.2328,-1.1524,-1.0807,-1.0624,-1.0624,-1.0624,-1.0624,-1.0624,-1.0624,-1.0624,-1.0624,-1.0624,-1.0624,-1.0624,-1.0624,-0.9977,-0.9402,-0.9338,-0.8027,-0.6915,-0.685,-0.6075,-0.5491,-0.5428,-0.5428,-0.5428,-0.5428,-0.5428,-0.5428,-0.5428,-0.5428,-0.5304,-0.5165,-0.5152,-0.5465,-0.6224,-0.6259,-0.6529,-0.7214,-0.6235,-0.5946,-0.6588,-0.6588,-0.6258,-0.5597,-0.5538,-0.5164,-0.457,-0.4515,-0.4522,0.0,0.0,0.0,0.0,0.0,0.0,0.0,0.0,0.0,0.0,0.0,0.0,0.0,0.0,0.0,0.0,0.0,0.0,0.0,0.0,0.0,0.0,0.0,0.0,0.0,0.0,0.0,0.0,0.0,0.0,0.0,0.0,0.0,-1.6522,-1.6051,-1.5466,-1.4698,-1.4236,-1.3647,0.0,-1.2881,-1.2881,-1.2881,-1.2881,-1.2822,-1.2676,-1.2772,-1.2909,-1.3027,-1.3115,-1.3545,-1.4087,-1.4238,-1.4687,-1.5283,-1.5381,-1.541,-1.5294,-1.4688,-1.3906,-1.313,-1.2328,-1.1531,-1.0807,-1.0618,-1.0624,-1.0624,-1.0624,-1.0624,-1.0624,-1.0624,-1.0624,-1.0624,-1.0624,-1.0624,-1.0624,-1.0624,-1.0434,-1.011,-0.9402,-0.9011,-0.8549,-0.7832,-0.6981,-0.6203,-0.5491,-0.5428,-0.5428,-0.5428,-0.5428,-0.5428,-0.5428,-0.5428,-0.5415,-0.5315,-0.5311,-0.5683,-0.654,-0.6467,-0.6979,-0.8391,-0.7339,-0.6708,-0.6588,-0.6588,-0.6529,-0.6367,-0.576,-0.5433,-0.5273,-0.4732,-0.4519,0.0,0.0,0.0,0.0,0.0,0.0,0.0,0.0,0.0,0.0,0.0,0.0,0.0,0.0,0.0,0.0,0.0,0.0,0.0,0.0,0.0,0.0,0.0,0.0,0.0,0.0,0.0,0.0,0.0,0.0,0.0,-1.6637,-1.6522,-1.6522,-1.6182,-1.5732,-1.5141,-1.4514,-1.392,-1.3334,-1.3065,-1.2881,-1.2881,-1.255,-1.2559,-1.2881,-1.251,-1.2559,-1.2881,-1.2881,-1.3262,-1.3857,-1.4,-1.4531,-1.5107,-1.5107,-1.5234,-1.5323,-1.4705,-1.3815,-1.2948,-1.2512,-1.16,-1.0624,-1.0624,-1.0624,-1.0624,-1.0624,-1.0624,-1.0624,-1.0624,-1.0624,-1.0624,-1.0624,-1.0624,-1.0624,-1.0624,-1.0624,-1.0498,-0.9977,-0.9594,-0.9139,-0.8683,-0.7897,-0.6854,-0.5624,-0.5752,-0.5881,-0.5425,-0.5428,-0.5428,-0.5428,-0.5428,-0.5428,-0.5428,-0.5749,-0.64,-0.7242,-0.7595,-0.831,-0.9364,-0.8854,-0.8409,-0.8099,-0.8087,-0.7695,-0.6854,-0.6462,-0.5852,-0.5003,-0.468,-0.4519,0.0,0.0,0.0,0.0,0.0,0.0,0.0,0.0,0.0,0.0,0.0,0.0,0.0,0.0,0.0,0.0,0.0,0.0,0.0,0.0,0.0,0.0,0.0,0.0,0.0,0.0,0.0,0.0,0.0,0.0,-1.6552,-1.6522,-1.6522,-1.6522,-1.6522,-1.6194,-1.5588,-1.5096,-1.4514,-1.3779,-1.32,-1.2881,-1.2881,-1.2295,-1.2344,-1.2881,-1.2236,-1.2344,-1.2881,-1.2881,-1.3174,-1.3652,-1.3941,-1.4443,-1.4883,-1.4814,-1.5049,-1.5352,-1.4762,-1.3889,-1.3009,-1.2826,-1.1787,-1.0624,-1.0624,-1.0624,-1.0624,-1.0624,-1.0624,-1.0624,-1.0624,-1.0624,-1.0624,-1.0624,-1.0624,-1.0624,-1.0624,-1.0624,-1.0624,-1.0624,-1.0047,-0.9466,-0.9338,-0.8683,-0.7702,-0.6079,-0.6465,-0.6593,-0.5752,-0.562,-0.562,-0.562,-0.562,-0.5686,-0.5818,-0.6531,-0.7307,-0.8156,-0.8877,-0.956,-1.0139,-1.0194,-1.008,-0.984,-0.9733,-0.8978,-0.7545,-0.7219,-0.637,-0.4942,-0.4639,-0.457,0.0,0.0,0.0,0.0,0.0,0.0,0.0,0.0,0.0,0.0,0.0,0.0,0.0,0.0,0.0,0.0,0.0,0.0,0.0,0.0,0.0,0.0,0.0,0.0,0.0,0.0,0.0,0.0,0.0,0.0,-1.6552,-1.6522,-1.6522,-1.6522,-1.6522,-1.6194,-1.5588,-1.5543,-1.4903,-1.3779,-1.32,-1.2881,-1.2881,-1.2774,-1.2822,-1.2881,-1.2774,-1.2822,-1.2881,-1.2881,-1.334,-1.4053,-1.4058,-1.4619,-1.5283,-1.4922,-1.5049,-1.5226,-1.4116,-1.3412,-1.2887,-1.2205,-1.1351,-1.0624,-1.0624,-1.0624,-1.0624,-1.0624,-1.0624,-1.0624,-1.0624,-1.0624,-1.0624,-1.0624,-1.0624,-1.0624,-1.0624,-1.0624,-1.0624,-1.0624,-1.0498,-1.0174,-0.9402,-0.9204,-0.8812,-0.7832,-0.7767,-0.7502,-0.6658,-0.6523,-0.6523,-0.6523,-0.6523,-0.685,-0.7572,-0.7767,-0.8221,-0.9075,-0.9204,-0.964,-1.0501,-1.0501,-1.0544,-1.0504,-0.994,-0.9601,-0.933,-0.7818,-0.6961,-0.67,-0.5187,-0.4787,0.0,0.0,0.0,0.0,0.0,0.0,0.0,0.0,0.0,0.0,0.0,0.0,0.0,0.0,0.0,0.0,0.0,0.0,0.0,0.0,0.0,0.0,0.0,0.0,0.0,0.0,0.0,0.0,0.0,-1.7312,-1.6552,-1.6522,-1.6522,-1.6522,-1.6522,-1.638,-1.6095,-1.5776,-1.4994,-1.3815,-1.3552,-1.3248,-1.2881,-1.2881,-1.2881,-1.2881,-1.2881,-1.2881,-1.2881,-1.2881,-1.3379,-1.4077,-1.4077,-1.4658,-1.5332,-1.4668,-1.4844,-1.5255,-1.425,-1.346,-1.2948,-1.2573,-1.16,-1.0624,-1.0624,-1.0624,-1.0624,-1.0624,-1.0624,-1.0624,-1.0624,-1.0624,-1.0624,-1.0624,-1.0624,-1.0624,-1.0624,-1.0624,-1.0624,-1.0624,-1.0624,-1.0301,-0.9466,-0.9722,-0.9588,-0.8221,-0.8027,-0.7897,-0.7502,-0.6981,-0.6915,-0.7372,-0.7437,-0.7567,-0.7962,-0.842,-0.8877,-0.9274,-0.9786,-1.0174,-1.0561,-1.0624,-1.0624,-1.0624,-1.0369,-0.9905,-0.9317,-0.8533,-0.7805,-0.7089,-0.6309,-0.6036,0.0,0.0,0.0,0.0,0.0,0.0,0.0,0.0,0.0,0.0,0.0,0.0,0.0,0.0,0.0,0.0,0.0,0.0,0.0,0.0,0.0,0.0,0.0,0.0,0.0,0.0,0.0,0.0,0.0,-1.7188,-1.6552,-1.6522,-1.6522,-1.6522,-1.6522,-1.6522,-1.6522,-1.5908,-1.5129,-1.4272,-1.4097,-1.3684,-1.3152,-1.3152,-1.3065,-1.2881,-1.2881,-1.2881,-1.2881,-1.2881,-1.3311,-1.3975,-1.3975,-1.4502,-1.5156,-1.435,-1.4678,-1.5245,-1.4275,-1.3579,-1.2948,-1.2757,-1.1725,-1.0624,-1.0863,-1.0744,-1.0624,-1.087,-1.0744,-1.0624,-1.0624,-1.0624,-1.0624,-1.0624,-1.0624,-1.0624,-1.0624,-1.0624,-1.0624,-1.0624,-1.0624,-1.0364,-0.9722,-1.0174,-1.0168,-0.8871,-0.8672,-0.8608,-0.835,-0.7762,-0.7632,-0.8285,-0.835,-0.842,-0.8608,-0.9262,-0.9658,-0.9658,-1.0238,-1.0624,-1.0624,-1.0624,-1.0624,-1.0624,-1.0624,-1.0197,-0.9408,-0.915,-0.846,-0.7458,-0.7229,-0.7053,0.0,0.0,0.0,0.0,0.0,0.0,0.0,0.0,0.0,0.0,0.0,0.0,0.0,0.0,0.0,0.0,0.0,0.0,0.0,0.0,0.0,0.0,0.0,0.0,0.0,0.0,0.0,0.0,0.0,-1.7585,-1.6552,-1.6522,-1.6522,-1.6522,-1.6522,-1.6522,-1.6522,-1.5908,-1.5588,-1.5499,-1.4926,-1.4329,-1.3732,-1.3732,-1.342,-1.2881,-1.2881,-1.2881,-1.2881,-1.2881,-1.3145,-1.3545,-1.3545,-1.4062,-1.4756,-1.4307,-1.4678,-1.5226,-1.4031,-1.3345,-1.2879,-1.2143,-1.1288,-1.0744,-1.1531,-1.1226,-1.0744,-1.1531,-1.117,-1.0624,-1.0624,-1.0624,-1.0624,-1.0624,-1.0624,-1.0624,-1.0624,-1.0624,-1.0624,-1.0624,-1.0624,-1.0561,-1.0561,-1.0561,-1.0561,-1.0491,-1.0428,-1.0174,-0.9332,-0.9204,-0.9204,-0.921,-0.921,-0.9594,-1.0364,-1.0498,-1.0561,-1.0561,-1.0561,-1.0624,-1.0624,-1.0624,-1.0624,-1.0624,-1.0624,-1.0548,-1.0534,-0.9494,-0.8854,-0.8522,-0.7532,-0.748,0.0,0.0,0.0,0.0,0.0,0.0,0.0,0.0,0.0,0.0,0.0,0.0,0.0,0.0,0.0,0.0,0.0,0.0,0.0,0.0,0.0,0.0,0.0,0.0,0.0,0.0,0.0,0.0,0.0,0.0,-1.7034,-1.6993,-1.6879,-1.6522,-1.6522,-1.6522,-1.6522,-1.6281,-1.5996,-1.5588,-1.5365,-1.4778,-1.3815,-1.3815,-1.3467,-1.2881,-1.2881,-1.2881,-1.2881,-1.2881,-1.3125,-1.3506,-1.3506,-1.4033,-1.4727,-1.4297,-1.4334,-1.4573,-1.4402,-1.3763,-1.2948,-1.2634,-1.2397,-1.2089,-1.1896,-1.1958,-1.2212,-1.2512,-1.2328,-1.2151,-1.2151,-1.1779,-1.1226,-1.0744,-1.0624,-1.0624,-1.0624,-1.0624,-1.0624,-1.0624,-1.0624,-1.0624,-1.0624,-1.0624,-1.0624,-1.0624,-1.011,-0.9849,-1.011,-0.9658,-0.953,-1.0047,-1.011,-1.0238,-1.0561,-1.0624,-1.0624,-1.0624,-1.0624,-1.0624,-1.0624,-1.0624,-1.0624,-1.0624,-1.0624,-1.0624,-1.0624,-1.0197,-0.955,-0.8722,-0.8768,-0.8588,-0.8078,0.0,0.0,0.0,0.0,0.0,0.0,0.0,0.0,0.0,0.0,0.0,0.0,0.0,0.0,0.0,0.0,0.0,0.0,0.0,0.0,0.0,0.0,0.0,0.0,0.0,0.0,0.0,0.0,0.0,-1.7353,-1.7463,-1.7312,-1.6795,-1.6595,-1.6522,-1.6522,-1.6522,-1.6281,-1.5908,-1.5688,-1.5096,-1.4097,-1.3909,-1.3467,-1.2881,-1.2881,-1.2881,-1.2881,-1.2881,-1.3047,-1.3301,-1.3301,-1.3818,-1.4531,-1.4184,-1.4334,-1.4591,-1.462,-1.4055,-1.3304,-1.2757,-1.2757,-1.2887,-1.2389,-1.2573,-1.307,-1.3312,-1.3,-1.2573,-1.2573,-1.202,-1.1288,-1.0744,-1.0624,-1.0624,-1.0624,-1.0624,-1.0624,-1.0624,-1.0624,-1.0624,-1.0624,-1.0624,-1.0624,-1.0624,-1.011,-0.9913,-1.0561,-1.011,-0.9983,-1.0561,-1.0624,-1.0624,-1.0624,-1.0624,-1.0624,-1.0624,-1.0624,-1.0624,-1.0624,-1.0624,-1.0624,-1.0624,-1.0624,-1.0514,-1.0414,-1.0577,-1.0099,-0.9101,-0.9623,-0.929,0.0,0.0,0.0,0.0,0.0,0.0,0.0,0.0,0.0,0.0,0.0,0.0,0.0,0.0,0.0,0.0,0.0,0.0,0.0,0.0,0.0,0.0,0.0,0.0,0.0,0.0,0.0,0.0,0.0,-1.8458,-1.7394,-1.7827,-1.7867,-1.7312,-1.6795,-1.6522,-1.6522,-1.6522,-1.6479,-1.6466,-1.5864,-1.5276,-1.4652,-1.405,-1.3467,-1.2881,-1.2881,-1.2881,-1.2881,-1.2881,-1.2881,-1.2881,-1.2881,-1.3389,-1.4058,-1.4077,-1.4612,-1.5216,-1.4501,-1.4213,-1.3965,-1.2381,-1.2451,-1.307,-1.307,-1.307,-1.3243,-1.4025,-1.3114,-1.1826,-1.1826,-1.1226,-1.0624,-1.0624,-1.0624,-1.0624,-1.0624,-1.0624,-1.0624,-1.0624,-1.0624,-1.0624,-1.0624,-1.0624,-1.0624,-1.0624,-1.0624,-1.0624,-1.0624,-1.0624,-1.0624,-1.0624,-1.0624,-1.0624,-1.0624,-1.0624,-1.0624,-1.0624,-1.0624,-1.0624,-1.0624,-1.0624,-1.0624,-1.0624,-1.0624,-1.0414,-1.0114,-1.0414,-1.0261,-0.9693,-0.9914,-0.9449,-0.7605,0.0,0.0,0.0,0.0,0.0,0.0,0.0,0.0,0.0,0.0,0.0,0.0,0.0,0.0,0.0,0.0,0.0,0.0,0.0,0.0,0.0,0.0,0.0,0.0,0.0,0.0,0.0,-1.9479,-1.9169,-1.8496,-1.8224,-1.7666,-1.6752,-1.6951,-1.6879,-1.6522,-1.6522,-1.6281,-1.5864,-1.5676,-1.505,-1.405,-1.3862,-1.3467,-1.2881,-1.2881,-1.2881,-1.2881,-1.2881,-1.2881,-1.2881,-1.2881,-1.3213,-1.3721,-1.397,-1.4088,-1.4181,-1.4828,-1.4688,-1.4145,-1.3657,-1.4085,-1.4628,-1.4025,-1.4264,-1.4805,-1.4991,-1.4323,-1.3295,-1.2074,-1.1648,-1.1351,-1.0744,-1.0624,-1.0624,-1.0624,-1.0624,-1.0624,-1.0624,-1.0624,-1.0624,-1.0624,-1.0624,-1.0624,-1.0624,-1.0624,-1.0624,-1.0624,-1.1108,-1.1226,-1.0681,-1.1108,-1.1226,-1.0624,-1.0624,-1.0624,-1.0624,-1.0624,-1.0624,-1.0624,-1.0624,-1.0624,-1.0624,-1.0624,-1.0414,-1.0114,-1.0414,-0.994,-0.878,-0.8853,-0.8627,0.0,0.0,0.0,0.0,0.0,0.0,0.0,0.0,0.0,0.0,0.0,0.0,0.0,0.0,0.0,0.0,0.0,0.0,0.0,0.0,0.0,0.0,0.0,0.0,0.0,0.0,0.0,-1.969,-1.969,-1.9566,-1.9244,-1.8496,-1.7827,-1.7188,-1.7229,-1.7034,-1.6522,-1.6522,-1.6194,-1.5588,-1.532,-1.4732,-1.3779,-1.3552,-1.3238,-1.2881,-1.2881,-1.2881,-1.2881,-1.2881,-1.2881,-1.2881,-1.2881,-1.3135,-1.3535,-1.3779,-1.3978,-1.4185,-1.4888,-1.4965,-1.4628,-1.4332,-1.4746,-1.5235,-1.4451,-1.4746,-1.541,-1.541,-1.4569,-1.3425,-1.2135,-1.1524,-1.1163,-1.0681,-1.0624,-1.0624,-1.0624,-1.0624,-1.0624,-1.0624,-1.0624,-1.0624,-1.0624,-1.0624,-1.0624,-1.0624,-1.0863,-1.1108,-1.1108,-1.1779,-1.202,-1.117,-1.1834,-1.1841,-1.0681,-1.0926,-1.0989,-1.0624,-1.0624,-1.0624,-1.0624,-1.0624,-1.0624,-1.0624,-1.0624,-1.0474,-1.0301,-1.0347,-0.9884,-0.8955,-0.878,-0.8537,-0.823,0.0,0.0,0.0,0.0,0.0,-1.0986,-1.0689,0.0,0.0,0.0,0.0,0.0,0.0,0.0,0.0,0.0,0.0,0.0,0.0,0.0,0.0,0.0,0.0,0.0,-1.8849,-1.9132,-1.9639,-1.969,-1.9639,-1.953,-1.865,-1.8106,-1.7947,-1.7504,-1.7034,-1.6522,-1.6522,-1.6151,-1.5499,-1.4971,-1.4329,-1.3684,-1.3152,-1.2881,-1.2881,-1.2881,-1.2881,-1.2881,-1.2881,-1.2881,-1.2881,-1.2881,-1.3105,-1.3447,-1.3486,-1.3994,-1.4658,-1.4756,-1.5029,-1.5226,-1.4551,-1.4815,-1.5294,-1.4569,-1.4805,-1.5352,-1.5294,-1.4273,-1.294,-1.2012,-1.1288,-1.0681,-1.0624,-1.0624,-1.0624,-1.0624,-1.0624,-1.0624,-1.0624,-1.0624,-1.0624,-1.0624,-1.0624,-1.0618,-1.0744,-1.1351,-1.1834,-1.1896,-1.2573,-1.2696,-1.1888,-1.2451,-1.2274,-1.0744,-1.1288,-1.1351,-1.0624,-1.0624,-1.0624,-1.0624,-1.0624,-1.0624,-1.0624,-1.0557,-1.0524,-1.0524,-1.0134,-0.9873,-0.9673,-0.9233,-0.8688,-0.8643,-0.9117,0.0,0.0,0.0,0.0,0.0,-0.8931,0.0,0.0,0.0,0.0,0.0,0.0,0.0,0.0,0.0,0.0,0.0,0.0,0.0,0.0,0.0,0.0,0.0,-1.8627,-1.9132,-1.9639,-1.969,-1.9332,-1.8458,-1.8612,-1.8145,-1.6837,-1.7105,-1.7034,-1.6522,-1.6522,-1.5964,-1.488,-1.4755,-1.4107,-1.3065,-1.2978,-1.2881,-1.2881,-1.2881,-1.2881,-1.2881,-1.2881,-1.2881,-1.2881,-1.2881,-1.293,-1.3047,-1.3379,-1.3613,-1.3857,-1.4551,-1.4834,-1.4961,-1.5119,-1.5284,-1.5352,-1.5225,-1.5294,-1.5235,-1.4628,-1.4213,-1.3606,-1.2197,-1.171,-1.1406,-1.0744,-1.0624,-1.0624,-1.0624,-1.0624,-1.0624,-1.0624,-1.0624,-1.0624,-1.0624,-1.0624,-1.0807,-1.1469,-1.171,-1.2012,-1.2696,-1.2887,-1.2696,-1.1888,-1.1958,-1.1655,-1.0681,-1.0744,-1.0744,-1.0624,-1.0624,-1.0624,-1.0624,-1.0624,-1.0624,-1.0624,-1.0094,-0.9853,-0.9853,-0.9319,-0.9279,-0.9673,-0.8521,-0.7578,-0.9136,-0.9748,0.0,-0.9413,0.0,0.0,0.0,0.0,0.0,0.0,0.0,0.0,0.0,0.0,0.0,0.0,0.0,0.0,0.0,0.0,0.0,0.0,0.0,0.0,0.0,-1.7627,-1.8266,-1.9131,-1.9495,-1.9369,-1.8535,-1.8727,-1.8302,-1.6951,-1.7146,-1.7034,-1.6522,-1.6194,-1.5599,-1.4698,-1.4376,-1.3789,-1.2881,-1.2881,-1.2881,-1.2881,-1.2881,-1.2881,-1.2881,-1.2881,-1.2881,-1.2881,-1.2881,-1.2881,-1.29,-1.3125,-1.333,-1.3574,-1.4004,-1.4424,-1.4814,-1.5029,-1.5244,-1.541,-1.541,-1.541,-1.5294,-1.4923,-1.451,-1.4025,-1.3235,-1.2381,-1.171,-1.1288,-1.0863,-1.0624,-1.0624,-1.0624,-1.0624,-1.0624,-1.0624,-1.0624,-1.0624,-1.0624,-1.0744,-1.117,-1.1903,-1.2512,-1.2948,-1.3364,-1.3304,-1.2512,-1.2389,-1.1903,-1.0681,-1.0989,-1.1052,-1.0624,-1.0624,-1.0624,-1.0624,-1.0624,-1.0624,-1.0624,-1.0127,-0.9973,-1.0181,-0.9385,-0.9098,-0.9239,-0.8172,-0.7289,0.0,0.0,0.0,0.0,0.0,-1.0187,0.0,0.0,0.0,0.0,0.0,0.0,0.0,0.0,0.0,0.0,0.0,0.0,0.0,0.0,0.0,0.0,0.0,0.0,0.0,-1.6431,-1.718,-1.8429,-1.8812,-1.8876,-1.8579,-1.8593,-1.8145,-1.7188,-1.7146,-1.6951,-1.6522,-1.5908,-1.5276,-1.4698,-1.4097,-1.3457,-1.2881,-1.2881,-1.2881,-1.2881,-1.2881,-1.2881,-1.2881,-1.2881,-1.2881,-1.2881,-1.2881,-1.2881,-1.2881,-1.2881,-1.3096,-1.3398,-1.3477,-1.4014,-1.4678,-1.4756,-1.5068,-1.541,-1.541,-1.541,-1.541,-1.541,-1.4932,-1.4392,-1.4034,-1.2992,-1.1958,-1.1648,-1.1045,-1.0624,-1.0624,-1.0624,-1.0624,-1.0624,-1.0624,-1.0624,-1.0624,-1.0624,-1.0618,-1.0807,-1.1965,-1.2818,-1.3009,-1.3425,-1.3485,-1.2818,-1.2642,-1.2027,-1.0681,-1.1226,-1.1288,-1.0624,-1.0624,-1.0624,-1.0624,-1.0624,-1.0624,-1.0624,-1.0267,-1.0234,-1.0474,-0.9646,-0.9097,-0.8971,-0.8098,-0.7402,0.0,0.0,0.0,0.0,-1.0691,0.0,0.0,0.0,0.0,0.0,0.0,0.0,0.0,0.0,0.0,0.0,0.0,0.0,0.0,0.0,0.0,0.0,0.0,0.0,0.0,0.0,-1.6442,-1.7712,-1.6954,-1.6673,-1.7287,-1.7423,-1.7188,-1.6595,-1.6595,-1.6552,-1.6522,-1.5908,-1.5276,-1.4698,-1.4097,-1.3457,-1.2881,-1.2881,-1.2881,-1.2881,-1.2881,-1.2881,-1.2881,-1.2881,-1.2881,-1.2881,-1.2881,-1.2881,-1.2881,-1.2881,-1.291,-1.3008,-1.3379,-1.3818,-1.4268,-1.4658,-1.5068,-1.541,-1.541,-1.541,-1.541,-1.541,-1.5352,-1.4932,-1.3494,-1.3,-1.252,-1.1052,-1.0688,-1.0624,-1.0624,-1.0624,-1.0624,-1.0624,-1.0624,-1.0624,-1.0624,-1.0624,-1.0863,-1.1593,-1.1834,-1.2205,-1.2887,-1.2451,-1.2012,-1.1958,-1.1288,-1.0807,-1.0624,-1.0681,-1.0681,-1.0624,-1.0624,-1.0624,-1.0624,-1.0624,-1.0624,-1.0624,-1.0267,-1.0134,-1.0167,-0.9489,-0.9359,-0.9573,-0.8269,-0.767,0.0,0.0,0.0,0.0,0.0,0.0,0.0,0.0,-0.768,0.0,0.0,0.0,0.0,0.0,0.0,0.0,0.0,0.0,0.0,0.0,0.0,0.0,0.0,0.0,0.0,0.0,0.0,0.0,0.0,-1.6117,-1.6614,-1.6984,-1.6851,-1.6045,-1.6358,-1.6522,-1.6522,-1.5555,-1.4971,-1.4709,-1.3742,-1.3152,-1.2881,-1.2881,-1.2881,-1.2881,-1.2881,-1.2881,-1.2881,-1.2881,-1.2881,-1.2881,-1.2881,-1.2881,-1.2881,-1.2881,-1.2881,-1.29,-1.3076,-1.3418,-1.3877,-1.4561,-1.5068,-1.541,-1.541,-1.541,-1.541,-1.541,-1.541,-1.5108,-1.3965,-1.3373,-1.2704,-1.1593,-1.0926,-1.0624,-1.0624,-1.0624,-1.0624,-1.0624,-1.0624,-1.0624,-1.0624,-1.0624,-1.0681,-1.1045,-1.1531,-1.1896,-1.2266,-1.202,-1.1834,-1.1834,-1.1108,-1.0624,-1.0624,-1.0624,-1.0624,-1.0624,-1.0624,-1.0624,-1.0624,-1.0624,-1.0624,-1.0624,-1.0441,-1.0374,-1.0374,-0.9953,-0.9813,-0.9913,-0.8423,-0.7805,-1.2743,0.0,0.0,0.0,0.0,0.0,0.0,0.0,0.0,0.0,0.0,0.0,0.0,0.0,0.0,0.0,0.0,0.0,0.0,0.0,0.0,0.0,0.0,0.0,0.0,0.0,0.0,0.0,0.0,0.0,-1.5901,-1.6236,-1.6239,-1.5871,-1.6124,-1.6358,-1.6522,-1.5287,-1.4698,-1.4709,-1.3478,-1.2881,-1.2881,-1.2881,-1.2881,-1.2881,-1.2881,-1.2881,-1.2881,-1.2881,-1.2881,-1.2881,-1.2881,-1.2881,-1.2881,-1.2881,-1.2881,-1.2881,-1.2881,-1.3154,-1.3643,-1.4512,-1.499,-1.5264,-1.5381,-1.541,-1.541,-1.541,-1.541,-1.5167,-1.4145,-1.3425,-1.2757,-1.1717,-1.1045,-1.0624,-1.0624,-1.0624,-1.0624,-1.0624,-1.0624,-1.0624,-1.0624,-1.0624,-1.0624,-1.0624,-1.1108,-1.1469,-1.1469,-1.1469,-1.1469,-1.1469,-1.0926,-1.0624,-1.0624,-1.0624,-1.0624,-1.0624,-1.0624,-1.0624,-1.0624,-1.0624,-1.0624,-1.0624,-1.0624,-1.0624,-1.0624,-1.0261,-1.0114,-1.01,-0.8802,-0.8373,0.0,0.0,0.0,-1.1507,0.0,0.0,0.0,0.0,-0.8886,0.0,0.0,0.0,0.0,0.0,0.0,0.0,0.0,0.0,0.0,0.0,0.0,0.0,0.0,0.0,0.0,0.0,0.0,0.0,0.0,0.0,-1.4897,-1.4735,-1.5123,-1.6218,-1.5896,-1.5969,-1.6509,-1.5287,-1.4698,-1.4709,-1.3478,-1.2881,-1.2881,-1.2881,-1.2881,-1.2881,-1.2881,-1.2881,-1.2881,-1.2881,-1.2881,-1.2881,-1.2881,-1.2881,-1.2881,-1.2881,-1.2881,-1.2881,-1.2881,-1.3154,-1.3643,-1.4512,-1.4795,-1.4883,-1.5283,-1.541,-1.541,-1.541,-1.541,-1.505,-1.3433,-1.3009,-1.2581,-1.0989,-1.0624,-1.0624,-1.0624,-1.0624,-1.0624,-1.0624,-1.0624,-1.0624,-1.0624,-1.0624,-1.0624,-1.0624,-1.0624,-1.0624,-1.0624,-1.0624,-1.0624,-1.0624,-1.0624,-1.0624,-1.0624,-1.0624,-1.0624,-1.0624,-1.0624,-1.0624,-1.0624,-1.0624,-1.0624,-1.0624,-1.0624,-1.0624,-1.0624,-1.0261,-1.0114,-1.0107,-0.98,-0.9659,0.0,0.0,-1.5166,-1.2897,0.0,0.0,0.0,0.0,0.0,0.0,0.0,0.0,0.0,0.0,0.0,0.0,0.0,0.0,0.0,0.0,0.0,0.0,0.0,0.0,0.0,0.0,0.0,0.0,0.0,0.0,0.0,-1.4365,-1.4791,-1.5734,-1.5732,-1.5957,-1.6509,-1.5287,-1.4698,-1.4709,-1.3478,-1.2881,-1.2881,-1.2881,-1.2881,-1.2881,-1.2881,-1.2881,-1.2881,-1.2881,-1.2881,-1.2881,-1.2881,-1.2881,-1.2881,-1.2881,-1.2881,-1.2881,-1.2881,-1.334,-1.3975,-1.4258,-1.4736,-1.5225,-1.5371,-1.541,-1.541,-1.541,-1.541,-1.505,-1.3425,-1.3009,-1.2581,-1.0989,-1.0624,-1.0624,-1.0624,-1.0624,-1.0624,-1.0624,-1.0624,-1.0624,-1.0624,-1.0624,-1.0624,-1.0624,-1.0624,-1.0624,-1.0624,-1.0624,-1.0624,-1.0624,-1.0624,-1.0624,-1.0624,-1.0624,-1.0624,-1.0624,-1.0624,-1.0624,-1.0624,-1.0624,-1.0624,-1.0624,-1.0624,-1.0624,-1.0624,-1.0461,-1.0408,-1.0408,-1.0314,-1.016,-1.5454,-1.5718,0.0,-1.3935,-1.2994,0.0,-0.9868,0.0,0.0,0.0,0.0,0.0,0.0,0.0,0.0,0.0,0.0,0.0,0.0,0.0,0.0,0.0,0.0,0.0,0.0,0.0,-0.9014,-1.1071,0.0,0.0,0.0,0.0,-1.4149,-1.5168,-1.5337,-1.5756,-1.6509,-1.5287,-1.4698,-1.4709,-1.3478,-1.2881,-1.2881,-1.2881,-1.2881,-1.2881,-1.2881,-1.2881,-1.2881,-1.2881,-1.2881,-1.2881,-1.2881,-1.2881,-1.2881,-1.2881,-1.2881,-1.2881,-1.2881,-1.3232,-1.374,-1.398,-1.4502,-1.5019,-1.5322,-1.541,-1.541,-1.541,-1.541,-1.5108,-1.3786,-1.3183,-1.2642,-1.1358,-1.0807,-1.0624,-1.0624,-1.0624,-1.0624,-1.0624,-1.0624,-1.0624,-1.0624,-1.0624,-1.0624,-1.0624,-1.0624,-1.0624,-1.0624,-1.0624,-1.0624,-1.0624,-1.0624,-1.0624,-1.0624,-1.0624,-1.0624,-1.0624,-1.0624,-1.0624,-1.0624,-1.0624,-1.0624,-1.0624,-1.0624,-1.0624,-1.0624,-1.0624,-1.0571,-1.0401,-1.0401,-1.0247]},{"header":{"parameterUnit":"m.s-1","parameterCategory":1,"la1":30.6,"la2":29.2853,"lo1":-89.7004,"lo2":-87.6739,"dy":0.0162,"dx":0.0183,"nx":112,"ny":82,"refTime":"2024-11-27T06:00:00:Z","depth":0,"parameterNumber":3,"parameterNumberName":"V-component_of_WINDS"},"data":[0.0,0.0,0.0,0.0,0.0,0.0,0.0,0.0,0.0,0.0,0.0,0.0,0.0,0.0,0.0,0.0,0.0,0.0,0.0,0.0,0.0,0.0,0.0,0.0,0.0,0.0,0.0,0.0,0.0,0.0,0.0,0.0,0.0,0.0,0.0,0.0,0.0,0.0,0.0,0.0,0.0,0.0,0.0,0.0,0.0,0.0,0.0,0.0,0.0,0.0,0.0,0.0,0.0,0.0,0.0,0.0,0.0,0.0,0.0,0.0,0.0,0.0,0.0,0.0,0.0,0.0,0.0,0.0,0.0,0.0,0.0,0.0,0.0,0.0,0.0,0.0,0.0,0.0,0.0,0.0,0.0,0.0,0.0,0.0,0.0,0.0,0.0,0.0,0.0,0.0,0.0,0.7146,0.7109,0.7237,0.7796,0.8036,0.8046,0.7848,0.0,0.0,0.0,0.0,0.0,0.0,0.0,0.0,0.0,0.0,0.0,0.0,0.0,0.0,0.0,0.0,0.0,0.0,0.0,0.0,0.0,0.0,0.0,0.0,0.0,0.0,0.0,0.0,0.0,0.0,0.0,0.0,0.0,0.0,0.0,0.0,0.0,0.0,0.0,0.0,0.0,0.0,0.0,0.0,0.0,0.0,0.0,0.0,0.0,0.0,0.0,0.0,0.0,0.0,0.0,0.0,0.0,0.0,0.0,0.0,0.0,0.0,0.0,0.0,0.0,0.0,0.0,0.0,0.0,0.0,0.0,0.0,0.0,0.0,0.0,0.0,0.0,0.0,0.0,0.0,0.0,0.0,0.0,0.0,0.0,0.0,0.0,0.0,0.0,0.0,0.0,0.0,0.0,0.0,0.0,0.0,0.0,0.0,0.0,0.0,0.0,0.0,0.0,0.0,0.6288,0.743,0.7514,0.765,0.802,0.824,0.8498,0.8843,0.0,0.0,0.0,0.0,0.0,0.0,0.0,0.0,0.0,0.0,0.0,0.0,0.0,0.0,0.0,0.0,0.0,0.0,0.0,0.0,0.0,0.0,0.0,0.0,0.0,0.0,0.0,0.0,0.0,0.0,0.0,0.0,0.0,0.0,0.0,0.0,0.0,0.0,0.0,0.0,0.0,0.0,0.0,0.0,0.0,0.0,0.0,0.0,0.0,0.0,0.0,0.0,0.0,0.0,0.0,0.0,0.0,0.0,0.0,0.0,0.0,0.0,0.0,0.0,0.0,0.0,0.0,0.0,0.0,0.0,0.0,0.0,0.0,0.0,0.0,0.0,0.0,0.0,0.0,0.0,0.0,0.0,0.0,0.0,0.0,0.0,0.0,0.0,0.0,0.0,0.0,0.0,0.0,0.0,0.0,0.0,0.0,0.0,0.0,0.0,0.0,0.0,0.0,0.6882,0.7009,0.7532,0.7605,0.7783,0.8227,0.8253,0.8456,0.8951,0.7476,0.0,0.0,0.0,0.0,0.0,0.0,0.0,0.0,0.0,0.0,0.0,0.0,0.0,0.0,0.0,0.0,0.0,0.0,0.0,0.0,0.0,0.0,0.0,0.0,0.0,0.0,0.0,0.0,0.0,0.0,0.0,0.0,0.0,0.0,0.0,0.0,0.0,0.0,0.0,0.0,0.0,0.0,0.0,0.0,0.0,0.0,0.0,0.0,0.0,0.0,0.0,0.0,0.0,0.0,0.0,0.0,0.0,0.0,0.0,0.0,0.0,0.0,0.0,0.0,0.0,0.0,0.0,0.0,0.0,0.0,0.0,0.0,0.0,0.0,0.0,0.0,0.0,0.0,0.0,0.0,0.0,0.0,0.0,0.0,0.0,0.0,0.0,0.0,0.0,0.0,0.0,0.0,0.0,0.0,0.0,0.0,0.0,0.0,0.0,0.0,0.0,0.0,0.7563,0.7679,0.7679,0.7679,0.7855,0.8296,0.824,0.8367,0.8824,0.7351,0.0,0.0,0.0,0.0,0.0,0.0,0.0,0.0,0.0,0.0,0.0,0.0,0.0,0.0,0.0,0.0,0.0,0.0,0.0,0.0,0.0,0.0,0.0,0.0,0.0,0.0,0.0,0.0,0.0,0.0,0.0,0.0,0.0,0.0,0.0,0.0,0.0,0.0,0.0,0.0,0.0,0.0,0.0,0.0,0.0,0.0,0.0,0.0,0.0,0.0,0.0,0.0,0.0,0.0,0.0,0.0,0.0,0.0,0.0,0.0,0.0,0.0,0.0,0.0,0.0,0.0,0.0,0.0,0.0,0.0,0.0,0.0,0.0,0.0,0.0,0.0,0.0,0.0,0.0,0.0,0.0,0.0,0.0,0.0,0.0,0.0,0.0,0.0,0.0,0.0,0.0,0.0,0.0,0.0,0.0,0.0,0.0,0.0,0.0,0.0,0.0,0.0,0.7497,0.7885,0.7885,0.7885,0.7956,0.8118,0.828,0.8479,0.8705,0.744,0.0,0.0,0.0,0.0,0.0,0.0,0.0,0.0,0.0,0.0,0.0,0.0,0.0,0.0,0.0,0.0,0.0,0.0,0.0,0.0,0.0,0.0,0.0,0.0,0.0,0.0,0.0,0.0,0.0,0.0,0.0,0.0,0.0,0.0,0.0,0.0,0.0,0.0,0.0,0.0,0.0,0.0,0.0,0.0,0.0,0.0,0.0,0.0,0.0,0.0,0.0,0.0,0.0,0.0,0.0,0.0,0.0,0.0,0.0,0.0,0.0,0.0,0.0,0.0,0.0,0.0,0.0,0.0,0.0,0.0,0.0,0.0,0.0,0.0,0.0,0.0,0.0,0.0,0.0,0.0,0.0,0.0,0.0,0.0,0.0,0.0,0.0,0.0,0.0,0.0,0.0,0.0,0.0,0.0,0.0,0.0,0.0,0.0,0.0,0.0,0.0,0.0,0.7749,0.7899,0.0,0.7899,0.7956,0.809,0.8094,0.8272,0.8681,0.0,0.0,0.0,0.0,0.0,0.0,0.0,0.0,0.0,0.0,0.0,0.0,0.0,0.0,0.0,0.0,0.0,0.0,0.0,0.0,0.0,0.0,0.0,0.0,0.0,0.0,0.0,0.0,0.0,0.0,0.0,0.0,0.0,0.0,0.0,0.0,0.0,0.0,0.0,0.0,0.0,0.0,0.0,0.0,0.0,0.0,0.0,0.0,0.0,0.0,0.0,0.0,0.0,0.0,0.0,0.0,0.0,0.0,0.0,0.0,0.0,0.0,0.0,0.0,0.0,0.0,0.0,0.0,0.0,0.0,0.0,0.0,0.0,0.0,0.0,0.0,0.0,0.0,0.0,0.0,0.0,0.0,0.0,0.0,0.0,0.0,0.0,0.0,0.0,0.0,0.0,0.0,0.0,0.0,0.0,0.0,0.0,0.0,0.0,0.0,0.0,0.0,0.7748,0.7899,0.7899,0.0,0.7899,0.7941,0.8037,0.7997,0.8149,0.8579,0.0,0.0,0.0,0.0,0.0,0.0,0.0,0.0,0.0,0.0,0.0,0.0,0.0,0.0,0.0,0.0,0.0,0.0,0.0,0.0,0.0,0.0,0.0,0.0,0.0,0.0,0.0,0.0,0.0,0.0,0.0,0.0,0.0,0.0,0.0,0.0,0.0,0.0,0.0,0.0,0.0,0.0,0.0,0.0,0.0,0.0,0.0,0.0,0.0,0.0,0.0,0.0,0.0,0.0,0.0,0.0,0.0,0.0,0.0,0.0,0.0,0.0,0.0,0.0,0.0,0.0,0.0,0.0,0.0,0.0,0.0,0.0,0.0,0.0,0.0,0.0,0.0,0.0,0.0,0.0,0.0,0.0,0.0,0.0,0.0,0.0,0.0,0.0,0.0,0.0,0.0,0.0,0.0,0.0,0.0,0.0,0.0,0.0,0.0,0.0,0.0,0.0,0.7748,0.7899,0.7899,0.7899,0.7899,0.7899,0.7899,0.8023,0.8185,0.0,0.0,0.0,0.0,0.0,0.0,0.0,0.0,0.0,0.0,0.0,0.0,0.0,0.0,0.0,0.0,0.0,0.0,0.0,0.0,0.0,0.0,0.0,0.0,0.0,0.0,0.0,0.0,0.0,0.0,0.0,0.0,0.0,0.0,0.0,0.0,0.0,0.0,0.0,0.0,0.0,0.0,0.0,0.0,0.0,0.0,0.0,0.0,0.0,0.0,0.0,0.0,0.0,0.0,0.0,0.0,0.0,0.0,0.0,0.0,0.0,0.0,0.0,0.0,0.0,0.0,0.0,0.0,0.0,0.0,0.0,0.0,0.0,0.0,0.0,0.0,0.0,0.0,0.0,0.0,0.0,0.0,0.0,0.0,0.0,0.0,0.0,0.0,0.0,0.0,0.0,0.0,0.0,0.0,0.0,0.0,0.0,0.0,0.0,0.0,0.0,0.0,0.0,0.7748,0.7899,0.7899,0.7899,0.7899,0.7899,0.7899,0.7927,0.8025,0.8171,0.0,0.0,0.0,0.0,0.0,0.0,0.0,0.0,0.0,0.0,0.0,0.0,0.0,0.0,0.0,0.0,0.0,0.0,0.0,0.0,0.0,0.0,0.0,0.0,0.0,0.0,0.0,0.0,0.0,0.0,0.0,0.0,0.0,0.0,0.0,0.0,0.0,0.0,0.0,0.0,0.0,0.0,0.0,0.0,0.0,0.0,0.0,0.0,0.0,0.0,0.0,0.0,0.0,0.0,0.0,0.0,0.0,0.0,0.0,0.0,0.0,0.0,0.0,0.0,0.0,0.0,0.0,0.0,0.0,0.0,0.0,0.0,0.0,0.0,0.0,0.0,0.0,0.0,0.0,0.0,0.0,0.0,0.0,0.0,0.0,0.0,0.0,0.0,0.0,0.0,0.0,0.0,0.0,0.0,0.0,0.0,0.0,0.0,0.0,0.0,0.0,0.0,0.7748,0.7899,0.7899,0.7899,0.7899,0.7899,0.7899,0.7899,0.797,0.8088,0.0,0.0,0.0,0.0,0.0,0.0,0.0,0.0,0.0,0.0,0.0,0.0,0.0,0.0,0.0,0.0,0.0,0.0,0.0,0.0,0.0,0.0,0.0,0.0,0.0,0.0,0.0,0.0,0.0,0.0,0.0,0.0,0.0,0.0,0.0,0.0,0.0,0.0,0.0,0.0,0.0,0.0,0.0,0.0,0.0,0.0,0.0,0.0,0.0,0.0,0.0,0.0,0.0,0.0,0.0,0.0,0.0,0.0,0.0,0.0,0.0,0.0,0.0,0.0,0.0,0.0,0.0,0.0,0.0,0.0,0.0,0.0,0.0,0.0,0.0,0.0,0.0,0.0,0.0,0.0,0.0,0.0,0.0,0.0,0.0,0.0,0.0,0.0,0.0,0.0,0.0,0.0,0.0,0.0,0.0,0.0,0.0,0.0,0.0,0.0,0.0,0.0,0.7763,0.7899,0.7899,0.7899,0.7899,0.7899,0.7899,0.7899,0.7956,0.8077,0.0,0.0,0.0,0.0,0.0,0.0,0.0,0.0,0.0,0.0,0.0,0.0,0.0,0.0,0.0,0.0,0.0,0.0,0.0,0.0,0.0,0.0,0.0,0.0,0.0,0.0,0.0,0.0,0.0,0.0,0.0,0.0,0.0,0.0,0.0,0.0,0.0,0.0,0.0,0.0,0.0,0.0,0.0,0.0,0.0,0.0,0.0,0.0,0.0,0.0,0.0,0.0,0.0,0.0,0.0,0.0,0.0,0.0,0.0,0.0,0.758,0.0,0.0,0.0,0.0,0.0,0.0,0.0,0.0,0.0,0.0,0.0,0.0,0.0,0.0,0.0,0.0,0.0,0.0,0.0,0.0,0.0,0.0,0.0,0.0,0.0,0.0,0.0,0.0,0.0,0.0,0.0,0.0,0.0,0.0,0.0,0.0,0.0,0.0,0.0,0.0,0.0,0.7748,0.7899,0.7899,0.7899,0.7899,0.7899,0.7899,0.7899,0.7914,0.7941,0.0,0.0,0.0,0.0,0.0,0.0,0.0,0.0,0.0,0.0,0.0,0.0,0.0,0.0,0.0,0.0,0.0,0.0,0.0,0.0,0.0,0.0,0.0,0.0,0.0,0.0,0.0,0.0,0.0,0.0,0.0,0.0,0.0,0.0,0.0,0.0,0.0,0.0,0.0,0.0,0.0,0.0,0.0,0.0,0.0,0.0,0.0,0.0,0.0,0.0,0.0,0.0,0.0,0.0,0.0,0.0,0.0,0.0,0.0,0.0,0.0,0.8719,0.0,0.0,0.0,0.0,0.0,0.0,0.0,0.0,0.0,0.0,0.0,0.0,0.0,0.0,0.0,0.0,0.0,0.0,0.0,0.0,0.0,0.0,0.0,0.0,0.0,0.0,0.0,0.0,0.0,0.0,0.0,0.0,0.0,0.0,0.0,0.0,0.0,0.0,0.0,0.0,0.7778,0.7899,0.8019,0.8334,0.8394,0.8394,0.8394,0.8394,0.8244,0.7914,0.7026,0.0,0.0,0.0,0.0,0.0,0.0,0.0,0.0,0.0,0.0,0.0,0.0,0.0,0.0,0.0,0.0,0.0,0.0,0.0,0.0,0.0,0.0,0.0,0.0,0.0,0.0,0.0,0.0,0.0,0.0,0.0,0.0,0.0,0.0,0.0,0.0,0.0,0.0,0.0,0.0,0.0,0.0,0.0,0.0,0.0,0.0,0.0,0.0,0.0,0.0,0.0,0.0,0.0,0.1194,0.0599,-0.1075,-0.109,-0.1318,-0.1352,0.4826,0.857,1.0243,0.0,0.0,0.0,0.0,0.0,0.0,0.0,0.0,0.0,0.0,0.0,0.0,0.0,0.0,0.0,0.0,0.0,0.0,0.0,0.0,0.0,0.0,0.0,0.0,0.0,1.2707,1.2133,0.0,0.0,0.0,0.0,0.0,0.0,0.0,0.0,0.0,0.0,0.0,0.0,0.7989,0.8064,0.8319,0.901,0.9085,0.9085,0.9085,0.9085,0.88,0.8109,0.7214,0.6716,0.0,0.0,0.0,0.0,0.0,0.0,0.0,0.0,0.0,0.0,0.0,0.0,0.0,0.0,0.0,0.0,0.0,0.0,0.0,0.0,0.0,0.0,0.0,0.0,0.0,0.0,0.0,0.0,0.0,0.0,0.0,0.0,-0.2613,-0.2269,0.0,0.0,0.0,0.0,0.0,0.0,0.0,0.0,0.0,0.0,0.0,0.0,0.0,-0.1773,-0.2025,-0.091,-0.0314,-0.0244,0.0428,0.0423,-0.0214,-0.134,-0.1218,-0.0104,-0.0077,0.0,0.1925,0.227,0.0,0.0,0.0,0.0,0.0,0.0,0.0,0.0,0.0,0.0,0.0,0.0,0.0,0.0,0.0,0.0,0.0,0.0,0.0,0.0,0.0,0.0,1.4368,1.4533,1.4547,1.4139,0.0,1.1088,0.9646,0.8743,0.7723,0.0,0.0,0.0,0.0,0.0,0.0,0.0,0.8604,0.877,0.904,0.9713,0.9755,0.9755,0.9755,0.9755,0.9488,0.8815,0.8275,0.7715,0.7143,0.621,0.0,0.0,0.0,0.0,0.0,0.0,0.0,0.0,0.0,0.0,0.0,0.0,0.0,0.0,0.0,0.0,0.0,0.0,0.0,0.0,0.0,0.0,0.0,0.0,0.0,0.0,0.0,0.0,0.0,-0.4311,-0.5086,-0.5369,-0.4913,-0.4535,0.0,0.0,0.0,0.0,0.0,0.0,0.0,0.0,0.0,-0.7002,-0.7249,-0.7454,-0.7665,-0.6824,-0.6367,-0.6296,-0.5426,-0.5813,-0.7247,-0.7497,-0.7634,-0.769,-0.8184,-0.753,-0.5802,-0.1737,0.0148,0.0532,0.0,0.0,0.0,0.0,0.6862,0.8913,1.0925,1.2357,0.0,0.0,0.0,0.0,0.0,0.0,0.0,0.0,0.0,0.0,0.0,0.0,0.0,1.6176,1.6243,1.5972,1.4988,1.3572,1.1938,0.0,0.9496,0.8957,0.7833,0.0,0.0,0.0,0.0,0.0,0.9338,0.9458,0.9713,1.0354,1.0413,1.0413,1.0413,1.0413,1.0144,0.9503,0.8677,0.8059,0.7782,0.6796,0.6231,0.0,0.0,0.0,0.0,0.0,0.0,0.0,0.0,0.0,0.0,0.0,0.0,0.0,0.0,0.0,0.0,0.0,0.0,0.0,0.0,0.0,0.0,0.0,0.0,0.0,0.0,0.0,0.0,-0.7066,-0.7668,-0.8266,-0.7721,-0.7251,0.0,0.0,0.0,0.0,0.0,0.0,-0.8819,-1.0079,-1.1063,-1.1692,-1.2165,-1.2577,-1.2891,-1.2314,-1.1969,-1.1895,-1.1143,-1.1771,-1.3603,-1.325,-1.3594,-1.4507,-1.4593,-1.384,-1.2003,-0.6053,-0.3443,-0.3288,-0.3646,-0.3185,-0.2019,0.021,0.2553,0.5063,0.8063,1.0386,1.2183,1.3095,0.0,1.4478,1.3387,0.0,0.0,0.0,0.0,1.5807,1.6778,1.7074,1.7262,1.7804,1.7882,1.7608,1.6801,1.5749,1.4208,0.0,1.1033,1.062,0.9372,0.0,0.0,0.0,0.0,0.9417,1.0149,1.0166,1.0387,1.1077,1.1092,1.1051,1.1051,1.1051,1.0783,1.0174,0.9203,0.8521,0.8215,0.7301,0.657,0.6084,0.0,0.0,0.0,0.0,0.0,0.0,0.0,0.0,0.0,0.0,0.0,0.0,0.0,0.0,0.0,0.0,0.0,0.0,0.0,0.0,0.0,0.0,0.0,0.0,0.0,0.0,0.0,0.0,0.0,-0.9839,-1.002,0.0,0.0,0.0,0.0,-1.1589,-1.1788,-1.2192,-1.2957,-1.3065,-1.3638,-1.4738,-1.452,-1.4667,-1.5338,-1.4917,-1.4714,-1.4701,-1.4636,-1.4968,-1.5551,-1.5915,-1.62,-1.6376,-1.677,-1.6687,-1.5944,-1.2143,-0.9882,-0.8623,-0.6698,-0.488,-0.3012,-0.0411,0.1143,0.2157,0.3292,0.4759,0.6596,0.9484,1.2576,1.5216,1.5524,1.5635,0.0,0.0,1.6769,1.7696,1.8703,1.8918,1.9016,1.9555,1.9495,1.8953,1.7714,1.6983,1.5795,0.0,1.1482,1.0397,0.9931,0.0,0.9548,0.9812,0.9845,1.0164,1.1033,1.0898,1.1107,1.2025,1.1894,1.1745,1.1745,1.1745,1.1476,1.0798,1.0213,0.9391,0.8257,0.766,0.7106,0.6579,0.6064,0.0,0.0,0.0,0.0,0.0,0.0,0.0,0.0,0.0,0.0,0.0,0.0,0.0,0.0,0.0,0.0,0.0,0.0,0.0,0.0,0.0,0.0,0.0,0.0,0.0,0.0,0.0,0.0,-1.087,-1.0593,0.0,-1.0534,-1.1351,-1.2187,-1.2852,-1.4404,-1.5366,-1.5473,-1.5564,-1.5663,-1.5817,-1.539,-1.5127,-1.512,-1.498,-1.4916,-1.4916,-1.5229,-1.566,-1.6095,-1.6587,-1.685,-1.6904,-1.704,-1.687,-1.6418,-1.5394,-1.4701,-1.4172,-1.2992,-1.1589,-0.9947,-0.7578,-0.4796,-0.1933,-0.0113,0.2359,0.53,0.9107,1.2103,1.4579,1.6459,1.7663,1.8592,1.965,2.0369,2.0798,2.0671,2.059,2.0422,1.9926,1.9524,1.9091,1.836,1.7398,1.6373,1.523,1.3901,1.2632,1.1624,1.1187,1.0871,1.0529,1.0469,1.081,1.1741,1.1612,1.164,1.2154,1.1961,1.1805,1.1805,1.1805,1.17,1.1461,1.0203,0.9304,0.8856,0.7585,0.6799,0.6599,0.6411,0.6051,0.0,0.0,0.0,0.0,0.0,0.0,0.0,0.0,0.0,0.0,0.0,0.0,0.0,0.0,0.0,0.0,0.0,0.0,0.0,0.0,0.0,0.0,0.0,0.0,0.0,0.0,-1.1917,-1.1894,-1.1911,-1.1933,-1.1932,-1.3041,-1.3915,-1.4269,-1.5841,-1.6681,-1.65,-1.6634,-1.6564,-1.6322,-1.5815,-1.5511,-1.5429,-1.5256,-1.5256,-1.5429,-1.5985,-1.6455,-1.6932,-1.7469,-1.7811,-1.7983,-1.7983,-1.783,-1.7605,-1.7865,-1.7983,-1.7846,-1.642,-1.5297,-1.4219,-1.2041,-0.949,-0.6703,-0.4234,-0.1284,0.2153,0.6629,0.9943,1.2773,1.589,1.8057,1.9727,2.1077,2.1958,2.2371,2.1964,2.1847,2.1528,2.0372,1.9792,1.93,1.8715,1.7795,1.7059,1.6951,1.5609,1.4183,1.331,1.2876,1.2499,1.2058,1.1758,1.1856,1.2572,1.2246,1.2045,1.2312,1.2003,1.1805,1.1805,1.1805,1.17,1.1491,1.0203,0.9309,0.8978,0.7609,0.6822,0.6702,0.6361,0.5978,0.5523,0.0,0.0,0.0,0.0,0.0,0.0,0.0,0.0,0.0,0.0,0.0,0.0,0.0,0.0,0.0,0.0,0.0,0.0,0.0,0.0,0.0,0.0,0.0,-1.1586,-1.2738,-1.3484,-1.3014,-1.4136,-1.4841,-1.4712,-1.5207,-1.5684,-1.6073,-1.6136,-1.6172,-1.6172,-1.6279,-1.6323,-1.6323,-1.5874,-1.5908,-1.6466,-1.5908,-1.5908,-1.6522,-1.7034,-1.7544,-1.8106,-1.8612,-1.9169,-1.969,-1.969,-1.969,-1.969,-1.969,-1.969,-1.9396,-1.6578,-1.5467,-1.5205,-1.3122,-1.2341,-1.1948,-0.9185,-0.6383,-0.3252,0.176,0.5954,0.9787,1.3773,1.6756,1.9023,2.0136,2.1339,2.2347,2.257,2.2637,2.2326,2.1054,2.0383,1.9795,1.8873,1.8256,1.7951,1.818,1.6462,1.4923,1.4853,1.4567,1.4335,1.4319,1.3705,0.0,1.36,1.2822,1.2354,1.2616,1.2159,1.1835,1.1835,1.1783,1.1499,1.0822,1.0264,0.9513,0.8519,0.7753,0.7193,0.6874,0.5901,0.5254,0.4979,0.0,0.0,0.0,0.0,0.0,0.0,0.0,0.0,0.0,0.0,0.0,0.0,0.0,0.0,0.0,0.0,0.0,0.0,0.0,0.0,0.0,0.0,-1.3661,-1.3452,-1.3984,-1.4483,-1.473,-1.4839,-1.4891,-1.4841,-1.5684,-1.6281,-1.6395,-1.7093,-1.757,-1.757,-1.7223,-1.7034,-1.7034,-1.6536,-1.6324,-1.6522,-1.6337,-1.6337,-1.6522,-1.6637,-1.6993,-1.7544,-1.8066,-1.8612,-1.9132,-1.953,-1.969,-1.969,-1.9281,-1.9132,-1.897,-1.7385,-1.6556,-1.6045,-1.4273,-1.3372,-1.2877,-1.1257,-0.9286,-0.6844,-0.3104,0.138,0.6169,1.0558,1.491,1.8783,2.1173,2.2948,2.4094,2.3775,2.3536,2.3151,2.2111,2.1422,2.0951,2.0695,2.0164,1.9613,1.9169,1.837,1.7359,1.6116,1.5602,1.5216,1.4729,1.4489,0.0,1.4377,1.3996,1.3735,1.3751,1.3023,1.2439,1.2176,1.1707,1.1081,1.0264,0.9348,0.8511,0.7814,0.684,0.6269,0.6171,0.5718,0.5209,0.0,0.0,0.0,0.0,0.0,0.0,0.0,0.0,0.0,0.0,0.0,0.0,0.0,0.0,0.0,0.0,0.0,0.0,0.0,0.0,0.0,0.0,-1.45,-1.5136,-1.5655,-1.5524,-1.5434,-1.5582,-1.5564,-1.5567,-1.5567,-1.6117,-1.6501,-1.6501,-1.7086,-1.7422,-1.7422,-1.7105,-1.6951,-1.6951,-1.6398,-1.6238,-1.6522,-1.6238,-1.6238,-1.6522,-1.671,-1.6993,-1.7353,-1.8106,-1.8612,0.0,-1.9479,-1.9566,-1.9332,-1.9043,-1.8765,0.0,0.0,0.0,0.0,0.0,-1.4178,-1.3846,-1.3171,-1.1875,-1.0,-0.7164,-0.3251,0.1231,0.5726,1.0784,1.5667,1.889,2.1789,2.3973,2.4315,2.428,2.3918,2.2905,2.229,2.182,2.1476,2.0926,2.0408,2.0092,0.0,0.0,1.7375,1.6757,1.6248,1.5702,1.5489,1.5318,1.5135,1.4741,1.4405,1.4232,1.347,1.2795,1.2347,1.1793,0.0,0.0,0.0,0.8173,0.713,0.6399,0.0,0.0,0.0,0.0,0.0,0.0,0.0,0.0,0.3505,0.3446,0.0,0.0,0.0,0.0,0.0,0.0,0.0,0.0,0.0,0.0,0.0,0.0,0.0,0.0,0.0,0.0,-1.5831,-1.6637,-1.7849,-1.7153,-1.6349,-1.6013,-1.6376,-1.668,-1.668,-1.668,-1.668,-1.6595,-1.6595,-1.6552,-1.6522,0.0,0.0,0.0,0.0,-1.5952,-1.6466,-1.5952,-1.5952,-1.6522,-1.6993,-1.7188,-1.7229,-1.8341,-1.8817,-1.8855,-1.9442,-1.9406,-1.8893,-1.8817,-1.8458,-1.7814,-1.6857,-1.6476,-1.6305,-1.5276,-1.488,-1.488,-1.4846,0.0,0.0,-1.0595,-0.7684,-0.4271,-0.0101,0.5321,1.0868,1.4627,1.8864,2.2685,2.4215,2.4724,2.4593,2.3642,2.3101,2.2605,2.1878,2.1217,2.0847,2.0964,1.9981,1.9,1.8493,1.784,1.7248,1.6917,1.654,1.6203,1.5871,1.528,1.4758,1.4415,0.0,0.0,1.2503,1.1966,1.0971,0.9398,0.8964,0.8059,0.6553,0.6271,0.5948,0.5539,0.5234,0.4825,0.4354,0.4396,0.4271,0.4032,0.3626,0.3615,0.0,0.0,0.0,0.0,0.0,0.0,0.0,0.0,0.0,0.0,0.0,0.0,0.0,0.0,0.0,-1.6878,-1.7378,-1.782,-1.8605,-1.8159,-1.773,-1.765,-1.7719,-1.7787,-1.7787,-1.7787,-1.7626,-1.7188,-1.7146,-1.6951,-1.6522,-1.6522,0.0,-1.6522,-1.638,-1.638,-1.6522,-1.638,-1.638,-1.6522,0.0,0.0,-1.668,-1.7787,-1.8263,-1.8302,-1.9281,-1.9406,-1.8855,-1.8419,-1.7666,-1.6837,-1.7063,-1.6854,-1.6454,-1.6238,-1.6151,-1.6064,-1.5588,-1.5264,-1.4812,-1.3346,-1.1202,-0.8572,-0.5053,0.0817,0.0,1.1174,1.6653,2.1624,2.3126,2.4276,2.4994,2.4793,2.4426,2.4024,2.3602,2.3067,2.2453,2.1609,2.1095,2.0245,1.8675,1.8026,1.7572,1.7248,1.7133,1.6962,1.6632,1.6239,1.5871,1.5521,1.4554,1.3785,1.3459,1.2116,1.0755,0.9447,0.8019,0.6973,0.6445,0.6064,0.5829,0.5744,0.5168,0.4808,0.4709,0.4512,0.4367,0.4315,0.4227,0.4225,0.0,0.0,0.0,0.0,0.0,0.0,0.0,0.0,0.0,0.0,0.0,-1.3447,-1.4966,0.0,-1.6682,-1.7999,-1.8314,-1.8607,-1.92,-1.8855,-1.8419,-1.8145,-1.8106,-1.8106,-1.8106,-1.8106,-1.7867,-1.7353,-1.7312,-1.7076,-1.6522,-1.6522,-1.6637,-1.6879,-1.6909,-1.6909,-1.6909,-1.6909,-1.6752,-1.6522,-1.6522,-1.6522,-1.6552,-1.7626,-1.8106,-1.8185,-1.9244,-1.9244,-1.8458,-1.7626,-1.6993,-1.6522,-1.6795,-1.6752,-1.6522,-1.6522,-1.6522,-1.6479,-1.6139,-1.5864,-1.5499,-1.488,-1.3669,-1.2022,-0.9586,-0.5176,0.0042,0.4878,1.0833,1.6475,1.9701,2.2259,2.412,2.4589,2.4632,2.4447,2.4082,2.3581,2.2922,2.2039,2.1302,2.0439,1.911,1.8424,1.7887,1.737,1.715,1.6977,1.6815,1.6501,1.6163,1.5827,1.4891,1.4148,1.3736,1.1689,1.0153,0.9538,0.7887,0.6799,0.6473,0.6041,0.5633,0.5305,0.498,0.4729,0.4606,0.4604,0.4595,0.4595,0.477,0.4767,0.0,0.0,0.0,0.0,0.0,0.0,0.0,0.0,-1.2456,-1.4009,-1.4755,-1.5521,-1.6845,-1.7518,-1.81,-1.8792,-1.8979,-1.9207,-1.9639,-1.9332,-1.8893,-1.8458,-1.8419,-1.8419,-1.8419,-1.8419,-1.8185,-1.7666,-1.7626,-1.7394,-1.6837,-1.6795,-1.6993,-1.7422,-1.7463,-1.7435,-1.7312,-1.7312,-1.7034,-1.6522,-1.6522,-1.6552,-1.668,-1.7666,-1.8185,-1.8302,-1.9169,-1.9043,-1.8185,-1.7188,-1.6795,-1.6795,-1.6795,-1.6752,-1.6637,-1.6552,-1.6522,-1.6522,-1.6522,-1.6269,-1.5928,-1.5928,-1.5624,-1.4975,-1.3761,-1.0844,-0.7032,-0.2303,0.3702,0.9877,1.4848,1.8843,2.1949,2.3493,2.4133,2.4299,2.3971,2.3476,2.2905,2.2252,2.1434,2.059,1.9767,1.9081,1.8349,1.7427,1.7023,1.6789,1.6712,1.6409,1.608,1.5827,1.5013,1.419,1.3361,1.1137,0.9699,0.9611,0.8121,0.7083,0.6774,0.6162,0.5568,0.5017,0.4943,0.4781,0.4576,0.4781,0.4894,0.49,0.517,0.5144,-0.8676,-0.8252,-0.8485,-0.9169,-1.0064,-1.1477,0.0,0.0,-1.5374,-1.6903,-1.7277,-1.7578,-1.8343,-1.8553,-1.8807,-1.9465,-1.9594,-1.9639,-1.969,-1.9639,-1.9603,-1.953,-1.953,-1.953,-1.953,-1.953,-1.9281,-1.8765,-1.8727,-1.8496,-1.7947,-1.7907,-1.7947,-1.8027,-1.8027,-1.7787,-1.7312,-1.7312,-1.7034,-1.6522,-1.6522,-1.6752,-1.7229,-1.7827,-1.838,-1.8817,-1.893,-1.893,-1.8765,-1.8185,-1.7907,-1.7907,-1.7907,-1.7626,-1.7146,-1.668,-1.6522,-1.6522,-1.6522,-1.6752,-1.7092,-1.7092,-1.7395,-1.7638,-1.7289,-1.4416,-1.0862,-0.8936,-0.3177,0.3581,0.8602,1.3327,1.7692,2.1372,2.2968,2.3609,2.3564,2.3147,2.266,2.2343,2.2169,2.1725,2.0582,2.0046,1.9233,1.7559,1.7029,1.6686,1.6394,1.6052,1.5856,1.5799,1.5013,1.3797,1.2078,1.0923,1.0114,0.9635,0.8412,0.7689,0.7648,0.6509,0.5861,0.5778,0.5418,0.5246,0.5215,0.5217,0.523,0.523,0.5295,0.5275,-1.0176,-0.9829,0.0,0.0,-1.2291,-1.365,-1.5513,-1.6352,-1.7052,-1.8071,-1.8597,-1.8957,-1.9226,-1.9271,-1.9361,0.0,-1.969,-1.969,-1.969,-1.969,-1.969,-1.969,-1.969,-1.969,-1.969,-1.969,-1.9479,-1.893,-1.8893,-1.865,-1.8145,-1.8106,-1.8263,-1.8574,-1.8574,-1.8302,-1.7787,-1.7787,-1.7504,-1.6964,-1.7372,-1.7813,-1.8385,-1.8887,-1.9214,-1.9369,-1.9043,-1.8893,-1.8855,-1.8341,-1.8106,-1.8106,-1.8106,-1.7947,-1.7706,-1.7146,-1.6951,-1.6951,-1.6951,-1.7312,-1.7814,-1.809,-1.8555,-1.8993,-1.9154,-1.802,-1.6227,-1.4,-0.9583,-0.4403,0.059,0.5895,1.13,1.6704,1.9168,2.0939,2.3228,2.3187,2.2485,2.1688,2.1554,2.1287,2.0512,1.9925,1.9296,1.861,1.7822,1.7345,1.7389,1.6578,1.5645,1.4794,1.4109,1.328,1.2256,1.0783,0.9843,0.9627,0.833,0.7382,0.695,0.6405,0.5948,0.5554,0.5372,0.5309,0.5309,0.5309,0.5151,0.4896,0.5018,0.4918,-1.1174,0.0,0.0,-1.2943,-1.4402,-1.5806,-1.6754,-1.7611,-1.8403,-1.8882,-1.9346,-1.9639,-1.953,-1.9479,-1.9479,-1.9479,-1.9479,-1.953,-1.969,-1.969,-1.969,-1.969,-1.969,-1.969,-1.969,-1.969,-1.953,-1.9169,-1.9132,-1.8968,-1.8574,-1.8535,-1.8727,-1.9132,-1.9132,-1.8855,-1.8341,-1.8341,-1.8135,-1.7785,-1.8298,-1.8891,-1.9599,-1.9944,-1.9965,-1.969,-1.9281,-1.9132,-1.9095,-1.8688,-1.8535,-1.8535,-1.8535,-1.8458,-1.8263,-1.7867,-1.7666,-1.7504,-1.7504,-1.7867,-1.8405,-1.8858,-1.9375,-1.9889,-2.0423,-2.0505,-2.0051,-1.813,-1.5237,-1.1614,-0.7035,-0.1913,0.3533,0.9244,1.3629,1.7282,2.0099,2.1816,2.2513,2.1549,2.1354,2.115,2.0583,2.0044,1.9601,1.9318,1.8688,1.8218,1.8098,1.6897,1.557,1.4216,1.3357,1.274,1.2354,1.061,0.959,0.959,0.8219,0.7152,0.661,0.6382,0.6033,0.5558,0.5558,0.5458,0.5286,0.5286,0.5046,0.4543,0.4678,0.4536,0.0,0.0,-1.357,-1.4581,-1.6425,-1.8112,-1.8525,-1.9151,-1.963,-1.966,-1.9675,-1.953,-1.9006,-1.893,-1.893,-1.893,-1.893,-1.9132,-1.9639,-1.969,-1.969,-1.969,-1.969,-1.969,0.0,-1.969,-1.969,-1.969,-1.969,-1.969,-1.9639,-1.9639,-1.9639,-1.969,-1.969,-1.9406,-1.8893,-1.8893,-1.891,-1.9058,-1.9072,-1.9711,-2.0862,-2.072,-2.0296,-1.969,-1.969,-1.969,-1.969,-1.9639,-1.9639,-1.9639,-1.9639,-1.9332,-1.8855,-1.8855,-1.8535,-1.8066,-1.8066,-1.8419,-1.8954,-1.9441,-1.9904,-2.0434,-2.129,-2.1275,-2.1039,-2.135,-1.9818,-1.7205,-1.3465,-0.9635,-0.5699,-0.1651,0.6193,1.2741,1.2674,1.8143,2.2919,2.2375,2.2254,2.1991,2.1134,2.0943,2.0469,1.9111,1.9325,1.9166,1.7879,1.6767,1.5698,1.4602,1.3255,1.2259,1.1847,1.0389,0.95,0.95,0.8179,0.7402,0.7348,0.6617,0.6176,0.6169,0.6169,0.5868,0.5317,0.5317,0.5006,0.4399,0.4404,0.4281,0.0,0.0,-1.4398,-1.6068,-1.7302,-1.8337,-1.9153,-1.9525,-1.969,-1.969,-1.969,-1.9639,-1.9442,-1.9442,-1.9442,-1.9442,-1.9442,-1.9479,-1.969,-1.969,-1.969,-1.969,-1.969,0.0,0.0,0.0,0.0,-1.969,-1.969,-1.969,-1.969,-2.0124,-2.0363,-2.0363,-2.0797,-2.0774,-2.0215,-2.0215,-2.0234,-2.0326,-2.109,-2.1715,-2.2102,-2.2032,-2.165,-2.0991,-2.0557,-2.0363,-2.0333,-1.9869,-1.9959,-2.0318,-1.9869,-1.9849,-2.0026,-1.9568,-1.9332,-1.9132,-1.8727,-1.8968,-1.9536,-2.0299,-2.0649,-2.0926,-2.1811,-2.1974,-2.1886,-2.2032,-2.1477,-2.032,-1.8085,-1.5441,-1.2049,-0.6881,-0.1676,0.3267,0.748,1.2531,1.654,1.7532,1.9471,2.0652,1.9612,1.951,1.9332,1.8482,1.8817,1.8738,1.7598,1.6756,1.5768,1.4312,1.3058,1.2015,1.1273,1.0086,0.9089,0.8496,0.7621,0.7064,0.6862,0.6213,0.5772,0.5602,0.5216,0.491,0.4683,0.4683,0.4461,0.4013,0.4143,0.3571,-1.2996,-1.4271,-1.5504,-1.7191,-1.8134,-1.8855,-1.953,-1.969,-1.969,-1.969,-1.9566,-1.9369,-1.9169,-1.9132,-1.9192,-1.9339,-1.9522,-1.9788,-2.0104,-2.0139,-2.0139,-2.0139,-2.0015,0.0,0.0,0.0,0.0,-1.969,-1.969,-1.969,-1.969,-2.0348,-2.0722,-2.0722,-2.135,-2.152,-2.1167,-2.1167,-2.1325,-2.1559,-2.2557,-2.2892,-2.2724,-2.2724,-2.2323,-2.168,-2.1246,-2.0932,-2.0677,-2.0382,-2.0531,-2.0946,-2.044,-2.0682,-2.1212,-2.0362,-2.0049,-1.9967,-1.9369,-1.95,-2.0035,-2.0764,-2.1086,-2.1354,-2.2077,-2.2377,-2.2436,-2.2436,-2.2385,-2.2101,-2.1147,-1.9625,-1.7362,-1.3498,-0.895,-0.4315,-0.0087,0.5001,0.958,1.2333,1.511,1.7344,1.8323,1.8052,1.7558,1.714,1.7424,1.7581,1.7263,1.6582,1.5513,1.4042,1.2467,1.1209,1.038,0.9039,0.7954,0.7382,0.6728,0.6301,0.6131,0.5756,0.5484,0.5291,0.4923,0.46,0.44,0.4489,0.4253,0.3737,0.3288,0.2276,-1.4488,-1.5847,-1.6923,-1.7901,-1.8893,-1.969,-1.969,-1.969,-1.9639,-1.9609,-1.92,-1.8669,0.0,0.0,-1.8271,-1.8749,-1.9273,-1.9974,-2.0862,-2.0991,-2.1007,0.0,0.0,0.0,0.0,0.0,0.0,-1.9888,0.0,-1.9741,-1.9735,-2.0393,-2.0782,-2.0812,-2.1455,-2.1799,-2.1799,-2.1799,-2.2113,-2.2727,-2.3325,-2.3295,-2.2768,-2.2768,-2.2383,-2.1799,-2.1754,-2.1395,-2.085,-2.1176,-2.143,-2.1564,-2.1414,-2.1838,-2.2366,-2.1197,-2.0745,-2.0655,-1.9987,-2.0,-2.0348,-2.0829,-2.1244,-2.1658,-2.2135,-2.2473,-2.2695,-2.2695,-2.2721,-2.2746,-2.2721,-2.2186,-2.1582,-2.115,-1.546,-1.0043,-0.9695,-0.4039,0.2237,0.6645,0.9197,1.2146,1.6889,1.6287,1.5168,1.5239,1.5266,1.5679,1.6819,1.6113,1.4976,1.3651,1.1516,0.9928,0.9295,0.7491,0.6356,0.6242,0.5655,0.5285,0.5265,0.5275,0.5275,0.5265,0.5221,0.4913,0.4347,0.4543,0.4244,0.3398,0.1825,0.059,-1.5364,-1.6625,-1.7885,-1.8531,-1.8893,-1.9207,-1.9603,-1.9406,-1.8987,-1.8592,-1.8078,-1.7641,0.0,0.0,0.0,-1.9122,-1.9737,0.0,-2.0926,-2.0991,0.0,-2.1221,0.0,-2.1275,-2.1823,-2.1775,0.0,0.0,-2.0973,-2.0228,-2.0423,-2.1341,-2.1972,-2.2199,-2.2787,-2.3116,-2.3116,-2.3116,-2.3191,-2.337,-2.352,-2.352,-2.337,-2.337,-2.3266,-2.3086,-2.2622,-2.2338,-2.2184,-2.1738,-2.211,-2.2847,-2.2335,-2.276,-2.3565,-2.2236,-2.1545,-2.1234,-2.0816,-2.0311,-1.998,-2.0764,-2.1055,-2.1291,-2.2077,-2.2473,-2.2695,-2.2695,-2.3069,-2.3346,-2.2822,-2.2754,-2.2652,-2.2101,-1.9567,-1.6909,-1.5462,-1.0676,-0.5994,-0.3884,0.0867,0.5627,0.9017,1.0064,1.1335,1.3999,1.3002,1.2691,1.4891,1.4539,1.3598,1.2307,1.0765,0.9714,0.9501,0.835,0.7037,0.5662,0.5372,0.5148,0.4874,0.5146,0.5169,0.4859,0.4332,0.3939,0.3806,0.3858,0.2857,0.0887,0.0275,-0.0561,-1.6652,-1.762,-1.8535,-1.8817,-1.908,-1.9244,-1.9245,-1.8905,-1.8289,-1.7495,-1.6951,0.0,0.0,0.0,0.0,0.0,0.0,0.0,-2.1507,-2.1385,-2.1408,0.0,-2.1534,0.0,-2.2313,-2.2202,-2.23,0.0,-2.2058,-2.1526,-2.1447,-2.2317,-2.2753,-2.2709,-2.3281,-2.3595,-2.3595,-2.3595,-2.3595,-2.3595,-2.3595,-2.3595,-2.3595,-2.3595,-2.3595,-2.358,0.0,-2.2921,-2.2694,-2.2491,-2.2799,-2.3375,-2.323,-2.3761,-2.45,-2.3414,-2.2888,-2.256,-2.185,-2.1475,-2.1272,-2.1633,-2.194,-2.2329,-2.3063,-2.3588,-2.385,-2.3492,-2.3815,-2.4015,-2.3157,-2.2947,-2.2848,-2.2347,-2.1666,-2.0798,-1.9527,-1.7182,-1.4161,-1.0198,-0.5837,-0.1221,0.3763,0.5601,0.7312,1.0073,1.0452,1.0822,1.1795,1.2156,1.1944,1.0897,0.9526,0.8136,0.6947,0.5418,0.406,0.2965,0.2822,0.2675,0.2463,0.2671,0.268,0.2474,0.2061,0.1829,0.1829,0.1879,0.1172,-0.014,-0.1441,-0.2452,-1.7993,-1.8535,-1.9006,-1.893,-1.9281,-1.951,-1.8852,-1.8267,-1.7551,-1.6343,0.0,-1.5079,-1.441,-1.6033,-1.7617,-1.8069,0.0,-2.15,-2.2061,-2.1764,-2.1771,-2.2476,-2.1884,-2.175,-2.2614,-2.23,-2.23,-2.2907,-2.3359,-2.3291,-2.2574,-2.3134,-2.3286,-2.2828,-2.3325,-2.3595,-2.3595,-2.3595,-2.3595,-2.3595,-2.3595,-2.3595,-2.3595,-2.3595,-2.3595,-2.3595,0.0,0.0,-2.2843,-2.3209,-2.3418,-2.3585,-2.4062,-2.4692,-2.5255,-2.4604,-2.4362,-2.414,-2.3059,-2.2957,-2.3278,-2.29,-2.3178,-2.3836,-2.4428,-2.4999,-2.5366,-2.4736,-2.4706,-2.4653,-2.3638,-2.3067,-2.2652,-2.2262,-2.2495,-2.2643,-2.2243,-2.2674,-2.1198,-1.455,-1.2125,-0.8805,-0.1309,0.1071,0.2702,0.4812,0.7284,0.8659,0.7906,0.9123,0.967,0.8827,0.7353,0.5558,0.3237,0.0913,-0.0582,-0.1,-0.0974,-0.0904,-0.0795,-0.09,-0.0851,-0.0598,-0.0797,-0.0947,-0.0947,-0.0899,-0.085,-0.085,-0.3182,-0.4393,-1.8196,-1.8817,-1.9442,-1.9006,-1.9281,-1.951,-1.8852,-1.7693,0.0,0.0,0.0,-1.3019,-1.3218,-1.4359,0.0,-1.7496,0.0,0.0,0.0,0.0,-2.1405,0.0,0.0,0.0,0.0,0.0,0.0,0.0,0.0,-2.4834,-2.3305,-2.3705,-2.3803,-2.3473,-2.355,-2.3595,-2.3595,-2.3595,-2.3595,-2.3595,-2.3595,-2.3595,-2.3595,-2.3595,-2.3595,-2.3595,-2.3595,0.0,-2.343,-2.3516,-2.3823,-2.43,-2.4798,-2.5352,-2.5806,-2.548,-2.5146,-2.4775,-2.4314,-2.4098,-2.3911,-2.3256,-2.3403,-2.4016,-2.4773,-2.525,-2.5524,-2.5733,-2.5366,-2.4779,-2.4337,-2.366,-2.3021,-2.2678,-2.2855,-2.3147,-2.3356,-2.3953,-2.3655,-2.095,-2.0718,-1.8871,-1.2323,-0.8058,-0.4069,0.0264,0.1938,0.2806,0.3176,0.5181,0.5933,0.4267,0.2934,0.2075,0.1753,-0.0819,-0.3304,-0.5335,-0.4431,-0.3448,-0.2735,-0.3405,-0.311,-0.1601,-0.3021,-0.3792,-0.3792,-0.3792,-0.3686,-0.3527,-0.4158,-0.4696,-1.8574,-1.9095,-1.9639,-1.9369,-1.953,-1.942,-1.8418,0.0,0.0,0.0,0.0,-1.161,-1.1394,0.0,0.0,0.0,0.0,0.0,0.0,0.0,0.0,0.0,0.0,0.0,0.0,0.0,0.0,0.0,0.0,-2.5631,-2.4815,-2.4458,-2.4064,-2.3623,-2.3595,-2.3595,-2.3595,-2.3595,-2.3595,-2.3595,-2.3595,-2.3595,-2.3595,-2.3595,-2.3595,-2.3595,-2.3595,0.0,-2.3638,-2.3921,-2.4158,-2.4471,-2.5297,-2.5762,-2.5999,-2.6118,-2.6067,-2.5832,-2.5397,-2.5361,-2.5403,-2.4811,-2.48,-2.5111,-2.572,-2.6295,-2.6658,-2.6215,-2.6086,-2.5775,-2.4478,-2.385,-2.3447,-2.3077,-2.3346,-2.3821,-2.4192,-2.4484,-2.4426,-2.3645,-2.327,-2.2054,-1.8876,-1.4021,-0.9537,-0.6444,-0.3891,-0.2223,-0.1885,-0.2975,-0.27,0.0,-0.0906,-0.1976,-0.262,-0.4674,-0.624,-0.705,-0.6152,-0.5404,-0.5,-0.5002,-0.4634,-0.3748,-0.4253,-0.4485,-0.4485,-0.4485,-0.4636,-0.4883,-0.4961,-0.5575,-1.8841,-1.9281,-1.969,-1.969,-1.969,-1.9346,-1.7915,-1.6463,0.0,0.0,-1.1429,-1.0573,-0.9997,0.0,0.0,0.0,0.0,0.0,0.0,0.0,0.0,0.0,0.0,0.0,0.0,0.0,0.0,0.0,0.0,0.0,-2.6013,-2.4973,-2.4199,-2.3794,-2.3681,-2.3595,-2.3595,-2.3595,-2.3595,-2.3595,-2.3595,-2.3595,-2.3595,-2.3724,-2.3752,-2.3752,-2.3879,0.0,0.0,-2.4389,-2.4576,-2.4672,-2.5615,-2.6013,-2.6049,-2.6521,-2.6691,-2.6657,-2.6297,-2.6401,-2.6624,-2.6262,-2.6156,-2.621,-2.6708,-2.7317,-2.7717,-2.6754,-2.678,-2.6673,-2.4871,-2.4261,-2.4041,-2.3649,-2.388,-2.4284,-2.4591,-2.4607,-2.4593,-2.4712,-2.3896,-2.2949,-2.2164,-1.7961,-1.4163,-1.2509,-0.9434,-0.7339,-0.7487,-1.0789,-1.1085,-0.5639,-0.5387,-0.6,-0.7012,-0.8352,-0.8823,-0.8075,-0.757,-0.7261,-0.7261,-0.6396,-0.6018,-0.6171,-0.5534,-0.5265,-0.5425,-0.5425,-0.5692,-0.6171,-0.6318,-0.7094,-1.875,-1.9281,-1.969,-1.969,-1.969,-1.926,-1.7549,0.0,0.0,-1.2206,-1.0833,-1.0036,-1.0141,-1.0992,0.0,0.0,0.0,0.0,0.0,0.0,0.0,0.0,0.0,0.0,0.0,0.0,0.0,0.0,0.0,0.0,-2.5997,-2.4973,-2.4389,-2.4307,-2.3837,-2.3595,-2.3595,-2.3595,-2.3595,-2.3595,-2.3595,-2.3595,-2.3595,-2.4116,-2.4307,-2.4348,-2.4816,0.0,0.0,-2.5105,-2.5144,-2.5182,-2.5762,-2.6013,-2.6049,-2.6521,-2.6691,-2.6691,-2.6657,-2.6657,-2.6691,-2.6657,-2.6624,-2.6708,-2.7115,-2.753,-2.788,-2.778,-2.7295,-2.6711,-2.6121,-2.5467,-2.4861,-2.4682,-2.4423,-2.4209,-2.4247,-2.4528,-2.4799,-2.4879,-2.4641,-2.3746,-2.1573,-1.9757,-1.7776,-1.5385,-1.3894,-1.3283,-1.3955,-1.4724,-1.5081,-1.4676,-1.1836,-0.9742,-0.9322,-1.0054,-1.021,-0.957,-0.9475,-0.9423,-0.9423,-0.8122,-0.77,-0.841,-0.77,-0.7641,-0.8306,-0.8306,-0.8358,-0.8404,-0.8978,-0.9926,-1.8268,-1.9043,-1.969,-1.969,-1.939,-1.8678,-1.7012,0.0,-1.3326,-1.1273,-1.0,-0.9255,-0.9355,-1.0251,-1.1531,0.0,0.0,0.0,0.0,0.0,0.0,0.0,0.0,0.0,0.0,0.0,0.0,0.0,0.0,0.0,-2.6013,-2.5297,-2.4592,-2.3948,-2.3724,-2.3595,-2.3595,-2.3595,-2.3595,-2.3595,-2.3595,-2.3595,-2.3638,-2.4158,-2.4389,-2.443,-2.4989,0.0,0.0,-2.5411,-2.5486,-2.5297,-2.6104,-2.6401,-2.6436,-2.6624,-2.6691,-2.6691,-2.6691,-2.6691,-2.6691,-2.6691,-2.6691,-2.6791,-2.7178,-2.756,-2.784,-2.7607,-2.7496,-2.7219,-2.6134,-2.5559,-2.5297,-2.5237,-2.5081,-2.4964,-2.5079,-2.4947,-2.4842,-2.4991,-2.5032,-2.4658,-2.3515,-2.2322,-2.1105,-1.9875,-1.8763,-1.814,-1.8316,-1.8321,-1.8326,-1.831,-1.5637,-1.3699,-1.3207,-1.277,-1.2397,-1.2106,-1.1746,-1.1492,-1.1492,-1.054,-1.0166,-1.0466,-0.9741,-0.9474,-0.9776,-0.9776,-1.0202,-1.0957,-1.142,-1.2655,-1.7431,-1.8508,-1.9442,-1.9442,-1.9075,-1.8257,0.0,0.0,-1.2826,-1.0575,-0.958,-0.9062,-0.8844,-0.9794,-1.1109,0.0,0.0,0.0,0.0,0.0,0.0,0.0,0.0,0.0,0.0,0.0,0.0,0.0,0.0,0.0,0.0,-2.5182,-2.4632,-2.3879,-2.3681,-2.3595,-2.3595,-2.3595,-2.3595,-2.3595,-2.3595,-2.3681,-2.3837,-2.4389,-2.4712,-2.4894,0.0,0.0,0.0,-2.5835,-2.5908,-2.5524,-2.635,-2.6691,-2.6691,-2.6691,-2.6691,-2.6691,-2.6691,-2.6691,-2.6691,-2.6691,-2.6691,-2.6791,-2.7178,-2.756,-2.7783,-2.7272,-2.7334,-2.7287,-2.6211,-2.5715,-2.5499,-2.5499,-2.5461,-2.5443,-2.5579,-2.5327,-2.5139,-2.5348,-2.531,-2.5147,-2.4949,-2.4245,-2.3582,-2.3264,-2.2483,-2.1877,-2.1749,-2.1402,-2.104,-2.0682,-1.885,-1.7183,-1.6083,-1.5192,-1.4586,-1.4242,-1.3936,-1.3744,-1.3744,-1.3191,-1.2991,-1.3186,-1.2583,-1.2385,-1.2589,-1.2589,-1.3104,-1.4058,-1.4556,-1.5944,-1.6218,-1.7688,-1.8893,-1.8893,-1.8796,-1.8174,0.0,-1.4648,-1.2984,-1.0185,-0.9754,-0.9659,-0.8926,-0.9675,-1.1069,-1.3063,0.0,0.0,0.0,0.0,0.0,0.0,0.0,0.0,0.0,0.0,0.0,0.0,0.0,0.0,0.0,-2.443,-2.4389,-2.4389,-2.3879,-2.3595,-2.3595,-2.3595,-2.3595,-2.3595,-2.3595,-2.3879,-2.4389,-2.495,-2.5486,0.0,0.0,0.0,0.0,-2.6521,-2.6401,-2.6049,-2.6505,-2.6691,-2.6691,-2.6691,-2.6691,-2.6691,-2.6691,-2.6691,-2.6691,-2.6691,-2.6691,-2.6791,-2.7178,-2.756,-2.7736,-2.6939,-2.6725,-2.6725,-2.6674,-2.61,-2.55,-2.55,-2.5456,-2.5403,-2.5403,-2.5541,-2.5753,-2.6032,-2.5505,-2.5046,-2.5164,-2.5135,-2.5026,-2.4888,-2.459,-2.4359,-2.4359,-2.3841,-2.3182,-2.2468,-2.1687,-2.011,-1.7317,-1.7113,-1.6696,-1.5536,-1.5967,-1.6241,-1.6241,-1.6003,-1.6189,-1.6835,-1.6626,-1.6862,-1.7518,-1.7518,-1.7674,-1.7949,-1.8617,-2.0051,-1.4243,-1.5305,-1.6173,-1.6103,-1.6041,-1.5538,-1.3794,-1.288,-1.1819,-0.9877,-0.9666,-0.9753,-0.9508,-1.0319,-1.1636,-1.352,-1.4162,0.0,0.0,0.0,0.0,0.0,0.0,0.0,0.0,0.0,0.0,0.0,0.0,0.0,0.0,-2.3448,-2.3435,-2.3837,-2.3681,-2.3595,-2.3595,-2.3595,-2.3595,-2.3595,-2.3595,-2.3879,-2.443,-2.495,0.0,0.0,0.0,0.0,0.0,-2.6505,-2.6436,-2.6049,-2.6521,-2.6691,-2.6691,-2.6691,-2.6691,-2.6691,-2.6691,-2.6691,-2.6691,-2.6691,-2.6691,-2.6791,-2.7178,-2.756,-2.784,-2.7589,-2.75,-2.7457,-2.7178,-2.7291,-2.7484,-2.7484,-2.7271,-2.7034,-2.7034,-2.678,-2.6394,-2.5916,-2.5829,-2.5668,-2.5207,-2.5197,-2.5254,-2.5305,-2.5185,-2.5023,-2.4896,-2.4439,-2.3944,-2.3544,-2.2695,-2.1387,-1.9375,-1.8899,-1.8656,-1.8498,-1.8681,-1.8853,-1.9081,-1.88,-1.8723,-1.8939,-1.8666,-1.8637,-1.8819,-1.904,-1.9745,-2.0825,-2.1721,-2.2674,0.0,-1.3399,-1.413,-1.4098,-1.4124,-1.3836,-1.2486,-1.1957,-1.137,-0.9992,-1.007,-1.0317,-1.0168,-1.0936,-1.2064,-1.3474,-1.394,0.0,0.0,0.0,0.0,0.0,0.0,0.0,0.0,0.0,0.0,0.0,0.0,0.0,0.0,-2.2651,-2.262,-2.3246,-2.3246,-2.3377,-2.3595,-2.3595,-2.3595,-2.3595,-2.3794,-2.4184,-2.4712,-2.5259,0.0,0.0,0.0,0.0,0.0,-2.6505,-2.6436,-2.6049,-2.6521,-2.6691,-2.6691,-2.6691,-2.6691,-2.6691,-2.6691,-2.6691,-2.6691,-2.6691,-2.6691,-2.6791,-2.7178,-2.756,-2.7926,-2.8047,-2.801,-2.784,-2.7589,-2.7733,-2.7969,-2.7969,-2.7869,-2.7787,-2.7787,-2.7493,-2.7117,-2.6693,-2.6287,-2.5915,-2.5618,-2.5379,-2.5298,-2.5461,-2.5468,-2.5392,-2.5271,-2.4908,-2.4562,-2.4284,-2.3583,-2.267,-2.1545,-2.0749,-2.0302,-2.0205,-2.0496,-2.0745,-2.094,-2.0929,-2.0931,-2.0931,-2.0857,-2.0872,-2.0959,-2.1371,-2.2073,-2.2985,-2.3823,-2.4362,0.0,-1.1716,-1.2611,-1.2642,-1.2877,-1.2837,-1.1916,-1.1777,0.0,-1.0458,-1.0805,-1.1193,-1.0866,-1.1505,-1.2353,-1.3147,-1.3487,0.0,0.0,0.0,0.0,0.0,0.0,0.0,0.0,0.0,0.0,0.0,0.0,0.0,0.0,-2.2053,-2.1993,-2.2694,-2.2694,-2.2965,-2.3595,-2.3638,-2.3638,-2.3595,-2.4142,-2.4657,-2.5144,-2.5652,0.0,0.0,0.0,0.0,0.0,-2.647,-2.6401,-2.6068,-2.6521,-2.6691,-2.6691,-2.6691,-2.6691,-2.6691,-2.6691,-2.6691,-2.6691,-2.6691,-2.6758,-2.6841,-2.7241,-2.7589,-2.7908,-2.8219,-2.8129,-2.7897,-2.7897,-2.7602,-2.7301,-2.7326,-2.7619,-2.7879,-2.7879,-2.7879,-2.7929,-2.8067,-2.6898,-2.5984,-2.6304,-2.5726,-2.5284,-2.5524,-2.5517,-2.5487,-2.5508,-2.5263,-2.5013,-2.4759,-2.4318,-2.3913,-2.3557,-2.2579,-2.168,-2.0967,-2.1607,-2.2048,-2.2058,-2.2462,-2.2675,-2.2675,-2.3041,-2.332,-2.3572,-2.4132,-2.4432,-2.4469,-2.4975,-2.5224,-0.7051,0.0,-0.9509,-1.0067,-1.0575,-1.0894,0.0,-1.107,-1.1228,-1.0835,0.0,-1.1425,-1.1851,-1.2052,-1.2599,-1.3835,-1.4542,0.0,0.0,0.0,0.0,0.0,0.0,0.0,0.0,0.0,0.0,0.0,0.0,0.0,0.0,-2.2053,-2.1993,-2.2694,-2.2694,-2.2965,-2.3595,-2.3991,-2.3991,-2.3595,-2.4142,-2.4471,-2.4592,-2.4712,0.0,0.0,0.0,0.0,-2.6521,-2.6262,-2.6297,-2.6556,-2.6657,-2.6691,-2.6691,-2.6691,-2.6691,-2.6691,-2.6691,-2.6691,-2.6691,-2.6691,-2.7115,-2.7636,-2.7725,-2.7589,-2.7439,-2.756,-2.7736,-2.7897,-2.7897,-2.8013,-2.82,-2.8481,-2.8636,-2.8723,-2.8723,-2.8723,-2.8611,-2.818,-2.7922,-2.7589,-2.7081,-2.6579,-2.6217,-2.614,-2.5721,-2.5432,-2.5487,-2.5301,-2.5142,-2.5013,-2.4759,-2.4401,-2.3913,-2.3285,-2.2909,-2.2994,-2.317,-2.3406,-2.366,-2.353,-2.3441,-2.3441,-2.3436,-2.3684,-2.4188,-2.4484,-2.4768,-2.5015,-2.5307,-2.5391,-0.5527,-0.6756,-0.8189,-0.8812,-0.9515,-1.012,-1.0266,0.0,0.0,0.0,0.0,-1.1881,-1.2403,-1.2673,0.0,-1.4746,-1.5256,0.0,0.0,0.0,0.0,0.0,0.0,0.0,0.0,0.0,0.0,0.0,0.0,0.0,0.0,-2.1899,-2.1852,-2.2239,-2.2543,-2.2965,-2.3595,-2.3879,-2.3991,-2.3948,-2.4266,-2.4552,-2.4792,-2.4792,-2.5089,0.0,0.0,0.0,-2.6367,-2.612,-2.6262,-2.6691,-2.6691,-2.6691,-2.6691,-2.6691,-2.6691,-2.6691,-2.6691,-2.6808,-2.7004,-2.7178,-2.7547,-2.7897,-2.7897,-2.7754,-2.7648,-2.7992,-2.8102,-2.8156,-2.836,-2.8533,-2.8725,-2.8952,-2.8994,-2.8994,-2.8994,-2.8994,-2.8938,-2.8758,-2.8465,-2.8178,-2.7975,-2.7347,-2.6905,-2.7014,-2.6688,-2.632,-2.6072,-2.5975,-2.5765,-2.5323,-2.5071,-2.4828,-2.4534,-2.4153,-2.3868,-2.3714,-2.3837,-2.4016,-2.419,-2.4016,-2.3992,-2.4121,-2.4192,-2.4407,-2.4773,-2.5007,-2.5213,-2.538,-2.5527,-2.5561,-0.5066,-0.6458,-0.7937,-0.8419,-0.9266,-1.0075,-1.0306,0.0,0.0,0.0,0.0,0.0,0.0,0.0,0.0,0.0,0.0,0.0,0.0,0.0,0.0,0.0,0.0,0.0,0.0,0.0,0.0,0.0,0.0,0.0,0.0,-2.176,-2.1801,-2.1979,-2.2529,-2.3098,-2.361,-2.3752,-2.4074,-2.4511,-2.4511,-2.4712,-2.5067,-2.4973,-2.5012,0.0,0.0,0.0,-2.6013,-2.6013,-2.6262,-2.6691,-2.6691,-2.6691,-2.6691,-2.6691,-2.6691,-2.6725,-2.6791,-2.7051,-2.7439,-2.7783,-2.7926,-2.7982,-2.7982,-2.7982,-2.812,-2.8815,-2.8658,-2.842,-2.8815,-2.8905,-2.8929,-2.8994,-2.8994,-2.8994,-2.8994,-2.8994,-2.9089,-2.9394,-2.8838,-2.8463,-2.8908,-2.8145,-2.7609,-2.7977,-2.7802,-2.7458,-2.6949,-2.6835,-2.6513,-2.5781,-2.5386,-2.5136,-2.5091,-2.4948,-2.4564,-2.3905,-2.4114,-2.4247,-2.4247,-2.4284,-2.4413,-2.4672,-2.4969,-2.5165,-2.5262,-2.5497,-2.5601,-2.5622,-2.5676,-2.5658,-0.5589,-0.7078,-0.8431,-0.8624,-0.9619,-1.0669,-1.1041,0.0,0.0,0.0,0.0,0.0,0.0,0.0,0.0,0.0,0.0,0.0,0.0,0.0,0.0,0.0,0.0,0.0,0.0,0.0,0.0,0.0,0.0,0.0,0.0,-2.199,-2.2177,-2.3245,-2.3406,-2.3508,-2.3595,-2.4511,-2.4989,-2.5067,-2.5067,-2.4855,-2.4511,-2.4032,-2.4074,0.0,0.0,-2.5089,-2.6013,-2.6013,-2.6262,-2.6691,-2.6691,-2.6691,-2.6691,-2.6691,-2.6691,-2.6758,-2.7083,-2.747,-2.7811,-2.7869,-2.8102,-2.8324,-2.8324,-2.8324,-2.842,-2.8863,-2.8507,-2.8047,-2.8394,-2.8471,-2.8565,-2.8929,-2.8994,-2.8994,-2.8994,-2.8994,-2.9138,-2.957,-2.9567,-2.9523,-2.9779,-2.9264,-2.8778,-2.8676,-2.8195,-2.7832,-2.7822,-2.7171,-2.6689,-2.6615,-2.5897,-2.5352,-2.5129,-2.507,-2.4934,-2.4648,-2.4526,-2.4444,-2.4444,-2.4623,-2.4807,-2.5026,-2.5126,-2.5292,-2.554,-2.5581,-2.5621,-2.5675,-2.5702,-2.5629,-0.5331,-0.7042,-0.8759,-0.9192,-1.0703,-1.2193,-1.2509,0.0,0.0,0.0,0.0,0.0,0.0,0.0,0.0,0.0,0.0,0.0,0.0,0.0,0.0,0.0,0.0,0.0,0.0,0.0,0.0,0.0,0.0,0.0,0.0,0.0,-2.1821,-2.2028,-2.2723,-2.3254,-2.3498,-2.4324,-2.4894,-2.5221,-2.5221,-2.5221,-2.5259,-2.4389,-2.4158,-2.4389,0.0,-2.4592,-2.5577,-2.5577,-2.6016,-2.6691,-2.6691,-2.6691,-2.6691,-2.6691,-2.6841,-2.7083,-2.747,-2.788,-2.821,-2.8412,-2.8583,-2.8707,-2.8707,-2.8707,-2.8773,-2.8952,-2.8583,-2.8264,-2.8633,-2.8707,-2.8773,-2.897,-2.8994,-2.8994,-2.8994,-2.9112,-2.9312,-2.9643,-2.978,-2.9943,-3.0182,-2.987,-2.9602,-2.9653,-2.9296,-2.8938,-2.8637,-2.8283,-2.7894,-2.7479,-2.671,-2.615,-2.6038,-2.5584,-2.5168,-2.4818,-2.4716,-2.466,-2.4655,-2.4847,-2.5028,-2.5206,-2.5347,-2.5503,-2.5658,-2.5658,-2.5668,-2.5703,-2.5703,-2.5642,-0.5442,-0.7157,-0.8993,-0.9791,0.0,-1.3206,-1.3827,0.0,0.0,0.0,0.0,0.0,0.0,0.0,0.0,0.0,0.0,0.0,0.0,0.0,0.0,0.0,0.0,0.0,0.0,0.0,0.0,0.0,0.0,0.0,0.0,0.0,-2.1302,-2.0959,-2.1939,-2.2617,-2.3009,-2.374,-2.4539,-2.5373,-2.5259,-2.5486,-2.5961,-2.5028,-2.4592,-2.4576,-2.4282,-2.4632,-2.5411,-2.5524,-2.6016,-2.6691,-2.6691,-2.6691,-2.6691,-2.6691,-2.6954,-2.7348,-2.7754,-2.8129,-2.8471,-2.8863,-2.8994,-2.8994,-2.8994,-2.8994,-2.8994,-2.8994,-2.8773,-2.859,-2.8929,-2.8994,-2.8994,-2.8994,-2.8994,-2.8994,-2.8994,-2.9203,-2.9454,-2.9661,-2.9861,-3.0089,-3.0355,-3.0241,-3.0163,-3.0367,-3.0241,-2.9934,-2.9456,-2.9271,-2.8945,-2.8352,-2.7375,-2.6696,-2.6502,-2.5842,-2.5307,-2.496,-2.4896,-2.4873,-2.4874,-2.5061,-2.5222,-2.5314,-2.5495,-2.5609,-2.5684,-2.5684,-2.5684,-2.5703,-2.5703,-2.5664,-0.6694,-0.79,-0.9083,-1.0257,-1.1414,0.0,-1.4337,0.0,0.0,0.0,0.0,0.0,0.0,0.0,0.0,0.0,0.0,0.0,0.0,0.0,0.0,0.0,0.0,0.0,0.0,0.0,0.0,0.0,0.0,0.0,0.0,0.0,0.0,-2.1625,-2.1739,-2.1809,-2.1834,-2.2739,-2.4136,-2.5941,-2.5449,-2.5486,-2.5977,-2.5411,-2.5144,-2.5182,-2.5615,-2.5888,-2.5977,-2.6401,-2.6624,-2.6691,-2.6691,-2.6691,-2.6691,-2.6691,-2.6954,-2.7348,-2.7754,-2.8129,-2.8471,-2.8863,-2.8994,-2.8994,-2.8994,-2.8994,-2.8994,-2.8994,-2.8994,-2.8952,-2.8994,-2.8994,-2.8994,-2.8994,-2.8994,-2.8994,-2.8994,-2.9203,-2.9454,-2.9661,-2.9861,-3.0089,-3.0355,-3.0379,-3.0367,-3.0398,-3.0379,-3.0348,-3.0302,-2.9602,-2.911,-2.9106,-2.767,-2.6396,-2.5662,-2.5429,-2.5329,-2.5367,-2.5182,-2.5071,-2.5084,-2.5272,-2.5386,-2.5383,-2.5473,-2.554,-2.5605,-2.5605,-2.5644,-2.5703,-2.5703,-2.5664,-0.625,-0.7679,-0.9298,-1.0339,0.0,0.0,0.0,0.0,0.0,0.0,0.0,0.0,0.0,0.0,0.0,0.0,0.0,0.0,0.0,0.0,0.0,0.0,0.0,0.0,0.0,0.0,0.0,0.0,0.0,0.0,0.0,0.0,0.0,-2.0438,-2.0857,-2.1205,-2.1461,-2.2211,-2.3251,-2.4593,-2.4695,-2.5096,-2.5732,-2.5198,-2.4968,-2.4948,-2.5329,-2.5689,-2.6013,-2.6191,-2.6436,-2.6691,-2.6691,-2.6691,-2.6691,-2.6691,-2.6954,-2.7334,-2.747,-2.7765,-2.8156,-2.8515,-2.8633,-2.8682,-2.8929,-2.8994,-2.8994,-2.8994,-2.8994,-2.8994,-2.8994,-2.8994,-2.8994,-2.8994,-2.8994,-2.8994,-2.8994,-2.9293,-2.9607,-2.9678,-3.0007,-3.0267,-3.0379,-3.0398,-3.0398,-3.0398,-3.0398,-3.0398,-3.0398,-3.0121,-2.9917,-2.9944,-2.8937,-2.7721,-2.6418,-2.626,-2.6015,-2.5498,-2.531,-2.524,-2.5273,-2.5365,-2.5425,-2.5453,-2.5483,-2.5522,-2.5609,-2.5609,-2.5625,-2.5703,-2.5703,-2.5684,-0.6498,-0.7917,-0.9573,0.0,0.0,0.0,0.0,0.0,0.0,0.0,0.0,0.0,0.0,0.0,0.0,0.0,0.0,0.0,0.0,0.0,0.0,0.0,0.0,0.0,0.0,0.0,0.0,0.0,0.0,0.0,0.0,0.0,0.0,0.0,-2.0154,-2.057,-2.0976,-2.1599,-2.2388,-2.3375,-2.3684,-2.4306,-2.5253,-2.4879,-2.4696,-2.473,-2.4898,-2.533,-2.5878,-2.5878,-2.62,-2.6691,-2.6691,-2.6691,-2.6691,-2.6691,-2.6873,-2.7115,-2.7272,-2.747,-2.7794,-2.8246,-2.8394,-2.8471,-2.8863,-2.8994,-2.8994,-2.8994,-2.8994,-2.8994,-2.8994,-2.8994,-2.8994,-2.8994,-2.8994,-2.8994,-2.8994,-2.9357,-2.9696,-2.9696,-3.0085,-3.0398,-3.0398,-3.0398,-3.0398,-3.0398,-3.0398,-3.0398,-3.0398,-3.0398,-3.0283,-3.0025,-2.9506,-2.8516,-2.691,-2.6753,-2.6362,-2.5515,-2.536,-2.5333,-2.539,-2.5371,-2.5395,-2.5447,-2.5447,-2.5466,-2.5543,-2.5537,-2.5572,-2.5636,-2.5636,-2.5641,-0.7772,-0.8766,0.0,0.0,0.0,0.0,0.0,0.0,0.0,0.0,0.0,0.0,0.0,0.0,0.0,0.0,0.0,0.0,0.0,0.0,0.0,0.0,0.0,0.0,0.0,0.0,0.0,0.0,0.0,0.0,0.0,0.0,0.0,0.0,-1.9711,-1.9909,-2.0314,-2.0748,-2.1552,-2.2681,-2.2413,-2.3071,-2.4506,-2.4506,-2.4506,-2.4506,-2.4506,-2.4898,-2.5592,-2.5592,-2.6031,-2.6674,-2.6674,-2.6691,-2.6691,-2.6691,-2.6691,-2.6758,-2.7147,-2.7303,-2.7409,-2.8166,-2.8394,-2.8471,-2.8863,-2.8994,-2.8994,-2.8994,-2.8994,-2.8994,-2.8994,-2.8994,-2.8994,-2.8994,-2.8994,-2.8994,-2.8994,-2.9357,-2.9696,-2.9696,-3.0085,-3.0398,-3.0398,-3.0398,-3.0398,-3.0398,-3.0398,-3.0398,-3.0398,-3.0398,-3.0083,-2.9198,-2.9102,-2.8467,-2.686,-2.6649,-2.6274,-2.5466,-2.5341,-2.5341,-2.5409,-2.5341,-2.5303,-2.5303,-2.5303,-2.5322,-2.5409,-2.5403,-2.544,-2.5508,-2.5508,-2.5545,-0.7616,-0.8712,0.0,0.0,0.0,0.0,0.0,0.0,0.0,0.0,0.0,0.0,0.0,0.0,0.0,0.0,0.0,0.0,0.0,0.0,0.0,0.0,0.0,0.0,0.0,0.0,0.0,0.0,0.0,0.0,0.0,0.0,0.0,0.0,-1.9965,-2.033,-2.0797,-2.1213,-2.1774,-2.2425,-2.2338,-2.2801,-2.3714,-2.3714,-2.3714,-2.3748,-2.4255,-2.4611,-2.4814,-2.4814,-2.5253,-2.593,-2.593,-2.6234,-2.6691,-2.6691,-2.6691,-2.6725,-2.6858,-2.7051,-2.7378,-2.788,-2.821,-2.8471,-2.8863,-2.8994,-2.8994,-2.8994,-2.8994,-2.8994,-2.8994,-2.8994,-2.8994,-2.8994,-2.8994,-2.8994,-2.8994,-2.9249,-2.9532,-2.9678,-2.9927,-3.0182,-3.0367,-3.0398,-3.0398,-3.0398,-3.0398,-3.0398,-3.0398,-3.0398,-3.0302,-3.0044,-3.0006,-2.9563,-2.8486,-2.8371,-2.8025,-2.7217,-2.6563,-2.5947,-2.5341,-2.5303,-2.5303,-2.5303,-2.5303,-2.5322,-2.5409,-2.5398,-2.5434,-2.5498,-2.5498,-2.5511,-0.8445,0.0,0.0,0.0,0.0,0.0,0.0,0.0,0.0,0.0,0.0,0.0,0.0,0.0,0.0,0.0,0.0,0.0,0.0,0.0,0.0,0.0,0.0,0.0,0.0,0.0,0.0,0.0,0.0,0.0,0.0,0.0,0.0,0.0,-1.9945,-2.0364,-2.0991,-2.1244,-2.1675,-2.231,-2.231,-2.2547,-2.297,-2.297,-2.3022,-2.3164,-2.3932,-2.4185,-2.41,-2.4388,-2.4746,-2.5186,-2.549,-2.5879,-2.6302,-2.659,-2.6691,-2.6691,-2.6691,-2.6954,-2.7365,-2.7783,-2.8129,-2.8471,-2.8863,-2.8994,-2.8994,-2.8994,-2.8994,-2.8994,-2.8994,-2.8994,-2.8994,-2.8994,-2.8994,-2.8994,-2.8994,-2.9203,-2.9434,-2.9551,-2.9813,-3.0061,-3.0209,-3.0323,-3.0398,-3.0398,-3.0398,-3.0398,-3.0398,-3.0398,-3.0398,-3.0398,-3.0398,-3.0044,-2.9159,-2.9102,-2.8714,-2.78,-2.7251,-2.6539,-2.5626,-2.5321,-2.516,-2.5103,-2.5103,-2.5157,-2.5231,-2.5231,-2.5301,-2.5428,-2.5428,-2.5428,0.0,0.0,0.0,0.0,0.0,0.0,0.0,0.0,0.0,0.0,0.0,0.0,0.0,0.0,0.0,0.0,0.0,0.0,0.0,0.0,0.0,0.0,0.0,0.0,0.0,0.0,0.0,0.0,0.0,0.0,0.0,0.0,0.0,0.0,-1.9762,-2.0139,-2.0991,-2.1039,-2.1477,0.0,-2.231,-2.231,-2.231,-2.231,-2.2409,-2.2695,-2.3456,-2.359,-2.3342,-2.4002,-2.4388,-2.4574,-2.5236,-2.5592,-2.5795,-2.6454,-2.6691,-2.6691,-2.6758,-2.7019,-2.7409,-2.7823,-2.8183,-2.8522,-2.8905,-2.8994,-2.8994,-2.8994,-2.8994,-2.8994,-2.8994,-2.8994,-2.8994,-2.8994,-2.8994,-2.8994,-2.8994,-2.9181,-2.9372,-2.9392,-2.9696,-2.9954,-2.9969,-3.0196,-3.0367,-3.0398,-3.0398,-3.0398,-3.0398,-3.0398,-3.0398,-3.0398,-3.0398,-3.0083,-2.9294,-2.9217,-2.8783,-2.7788,-2.766,-2.7196,-2.6233,-2.5479,-2.5006,-2.4804,-2.4804,-2.4869,-2.4986,-2.4979,-2.5099,-2.5274,-2.5284,-2.5322,0.0,0.0,0.0,0.0,0.0,0.0,0.0,0.0,0.0,0.0,0.0,0.0,0.0,0.0,0.0,0.0,0.0,0.0,0.0,0.0,0.0,0.0,0.0,0.0,0.0,0.0,0.0,0.0,0.0,0.0,0.0,0.0,0.0,-1.969,-2.0,-2.0431,-2.0991,-2.1306,-2.1735,0.0,-2.231,-2.231,-2.231,-2.231,-2.2321,-2.2405,-2.2575,-2.2587,-2.2564,-2.2716,-2.346,-2.4523,-2.4661,-2.5439,-2.6471,-2.664,-2.6691,-2.6758,-2.7051,-2.7439,-2.784,-2.8183,-2.854,-2.8905,-2.8975,-2.8994,-2.8994,-2.8994,-2.8994,-2.8994,-2.8994,-2.8994,-2.8994,-2.8994,-2.8994,-2.8994,-2.8994,-2.9062,-2.9156,-2.9372,-2.9474,-2.957,-2.9748,-2.9939,-3.015,-3.0367,-3.0398,-3.0398,-3.0398,-3.0398,-3.0398,-3.0398,-3.0398,-3.0321,-3.014,-3.0121,-2.9934,-2.9499,-2.8874,-2.8252,-2.7661,-2.6462,-2.5479,-2.4804,-2.4804,-2.4799,-2.4842,-2.4949,-2.5022,-2.5077,-2.5224,-2.5303,0.0,0.0,0.0,0.0,0.0,0.0,0.0,0.0,0.0,0.0,0.0,0.0,0.0,0.0,0.0,0.0,0.0,0.0,0.0,0.0,0.0,0.0,0.0,0.0,0.0,0.0,0.0,0.0,0.0,0.0,0.0,-1.9566,-1.969,-1.969,-1.9894,-2.0227,-2.0649,-2.1118,-2.1538,-2.1974,-2.218,-2.231,-2.231,-2.2409,-2.2426,-2.231,-2.2453,-2.2426,-2.231,-2.231,-2.297,-2.4002,-2.4371,-2.5169,-2.6167,-2.6167,-2.6387,-2.6674,-2.6529,-2.7113,-2.7926,-2.8102,-2.8533,-2.8994,-2.8994,-2.8994,-2.8994,-2.8994,-2.8994,-2.8994,-2.8994,-2.8994,-2.8994,-2.8994,-2.8994,-2.8994,-2.8994,-2.8994,-2.904,-2.9181,-2.931,-2.9434,-2.9551,-2.9731,-2.9988,-3.0343,-3.0299,-3.0254,-3.0379,-3.0398,-3.0398,-3.0398,-3.0398,-3.0398,-3.0398,-3.0279,-3.0109,-2.9877,-2.9366,-2.8745,-2.7987,-2.725,-2.647,-2.5687,-2.565,-2.5566,-2.5359,-2.5442,-2.5349,-2.5152,-2.5253,-2.5303,0.0,0.0,0.0,0.0,0.0,0.0,0.0,0.0,0.0,0.0,0.0,0.0,0.0,0.0,0.0,0.0,0.0,0.0,0.0,0.0,0.0,0.0,0.0,0.0,0.0,0.0,0.0,0.0,0.0,0.0,-1.9639,-1.969,-1.969,-1.969,-1.969,-1.9909,-2.0314,-2.0682,-2.1118,-2.1628,-2.2077,-2.231,-2.231,-2.2527,-2.25,-2.231,-2.2537,-2.25,-2.231,-2.231,-2.2818,-2.3646,-2.4269,-2.5017,-2.5778,-2.5659,-2.6065,-2.659,-2.5959,-2.668,-2.7897,-2.7982,-2.8456,-2.8994,-2.8994,-2.8994,-2.8994,-2.8994,-2.8994,-2.8994,-2.8994,-2.8994,-2.8994,-2.8994,-2.8994,-2.8994,-2.8994,-2.8994,-2.8994,-2.8994,-2.9178,-2.9351,-2.9392,-2.9551,-2.9782,-3.0215,-3.0095,-3.0047,-3.0299,-3.0323,-3.0323,-3.0323,-3.0323,-3.0311,-3.0286,-3.008,-2.9861,-2.9661,-2.9494,-2.8992,-2.8048,-2.8007,-2.7695,-2.7034,-2.6741,-2.6447,-2.6099,-2.6029,-2.5787,-2.5423,-2.534,-2.5274,0.0,0.0,0.0,0.0,0.0,0.0,0.0,0.0,0.0,0.0,0.0,0.0,0.0,0.0,0.0,0.0,0.0,0.0,0.0,0.0,0.0,0.0,0.0,0.0,0.0,0.0,0.0,0.0,0.0,0.0,-1.9639,-1.969,-1.969,-1.969,-1.969,-1.9909,-2.0314,-2.0348,-2.0797,-2.1628,-2.2077,-2.231,-2.231,-2.2349,-2.2321,-2.231,-2.2349,-2.2321,-2.231,-2.231,-2.3105,-2.434,-2.4472,-2.5321,-2.6471,-2.5845,-2.6065,-2.6639,-2.6272,-2.69,-2.7954,-2.8237,-2.8633,-2.8994,-2.8994,-2.8994,-2.8994,-2.8994,-2.8994,-2.8994,-2.8994,-2.8994,-2.8994,-2.8994,-2.8994,-2.8994,-2.8994,-2.8994,-2.8994,-2.8994,-2.904,-2.9134,-2.9372,-2.9414,-2.9513,-2.9748,-2.9765,-2.9813,-3.0032,-3.0042,-3.0042,-3.0042,-3.0042,-2.9969,-2.9815,-2.9765,-2.9643,-2.9454,-2.9414,-2.9233,-2.8851,-2.8851,-2.8773,-2.8663,-2.731,-2.656,-2.6532,-2.6182,-2.5978,-2.5905,-2.5493,-2.5214,0.0,0.0,0.0,0.0,0.0,0.0,0.0,0.0,0.0,0.0,0.0,0.0,0.0,0.0,0.0,0.0,0.0,0.0,0.0,0.0,0.0,0.0,0.0,0.0,0.0,0.0,0.0,0.0,0.0,-1.8893,-1.9639,-1.969,-1.969,-1.969,-1.969,-1.9782,-1.9965,-2.0193,-2.0732,-2.1582,-2.1794,-2.2049,-2.231,-2.231,-2.231,-2.231,-2.231,-2.231,-2.231,-2.231,-2.3173,-2.4506,-2.4506,-2.5389,-2.6556,-2.5406,-2.571,-2.6555,-2.5575,-2.6417,-2.7926,-2.8075,-2.8533,-2.8994,-2.8994,-2.8994,-2.8994,-2.8994,-2.8994,-2.8994,-2.8994,-2.8994,-2.8994,-2.8994,-2.8994,-2.8994,-2.8994,-2.8994,-2.8994,-2.8994,-2.8994,-2.9089,-2.9351,-2.9267,-2.9291,-2.9643,-2.9696,-2.9731,-2.9813,-2.9939,-2.9954,-2.9845,-2.9829,-2.9796,-2.9713,-2.9607,-2.9494,-2.9412,-2.9246,-2.9134,-2.9017,-2.8994,-2.8994,-2.8994,-2.8297,-2.7779,-2.7446,-2.727,-2.6776,-2.6004,-2.5782,-2.5386,0.0,0.0,0.0,0.0,0.0,0.0,0.0,0.0,0.0,0.0,0.0,0.0,0.0,0.0,0.0,0.0,0.0,0.0,0.0,0.0,0.0,0.0,0.0,0.0,0.0,0.0,0.0,0.0,0.0,-1.9006,-1.9639,-1.969,-1.969,-1.969,-1.969,-1.969,-1.969,-2.0089,-2.0634,-2.1259,-2.1399,-2.1688,-2.2106,-2.2106,-2.218,-2.231,-2.231,-2.231,-2.231,-2.231,-2.3054,-2.4205,-2.4205,-2.5118,-2.6251,-2.498,-2.5423,-2.6538,-2.536,-2.6224,-2.7926,-2.7992,-2.8482,-2.8994,-2.8863,-2.8929,-2.8994,-2.8881,-2.8929,-2.8994,-2.8994,-2.8994,-2.8994,-2.8994,-2.8994,-2.8994,-2.8994,-2.8994,-2.8994,-2.8994,-2.8994,-2.9067,-2.9267,-2.9134,-2.9115,-2.9475,-2.9514,-2.9533,-2.9607,-2.9746,-2.978,-2.9625,-2.9607,-2.9607,-2.9533,-2.9375,-2.9289,-2.9289,-2.9112,-2.8994,-2.8994,-2.8994,-2.8994,-2.8994,-2.8994,-2.8795,-2.8322,-2.816,-2.7457,-2.6226,-2.6067,-2.5649,0.0,0.0,0.0,0.0,0.0,0.0,0.0,0.0,0.0,0.0,0.0,0.0,0.0,0.0,0.0,0.0,0.0,0.0,0.0,0.0,0.0,0.0,0.0,0.0,0.0,0.0,0.0,0.0,0.0,-1.8612,-1.9639,-1.969,-1.969,-1.969,-1.969,-1.969,-1.969,-2.0089,-2.0314,-2.0382,-2.0829,-2.1244,-2.1658,-2.1658,-2.1899,-2.231,-2.231,-2.231,-2.231,-2.231,-2.2767,-2.346,-2.346,-2.4357,-2.5558,-2.478,-2.5423,-2.6639,-2.6251,-2.6912,-2.7936,-2.8264,-2.8658,-2.8929,-2.854,-2.8682,-2.8929,-2.854,-2.8725,-2.8994,-2.8994,-2.8994,-2.8994,-2.8994,-2.8994,-2.8994,-2.8994,-2.8994,-2.8994,-2.8994,-2.8994,-2.9017,-2.9017,-2.9017,-2.9017,-2.9021,-2.9044,-2.9134,-2.9373,-2.9414,-2.9414,-2.9433,-2.9433,-2.931,-2.9067,-2.904,-2.9017,-2.9017,-2.9017,-2.8994,-2.8994,-2.8994,-2.8994,-2.8994,-2.8994,-2.898,-2.8943,-2.8376,-2.766,-2.6823,-2.6266,-2.5874,0.0,0.0,0.0,0.0,0.0,0.0,0.0,0.0,0.0,0.0,0.0,0.0,0.0,0.0,0.0,0.0,0.0,0.0,0.0,0.0,0.0,0.0,0.0,0.0,0.0,0.0,0.0,0.0,0.0,0.0,-1.9169,-1.9207,-1.9332,-1.969,-1.969,-1.969,-1.969,-1.9839,-2.0019,-2.0314,-2.0483,-2.091,-2.1582,-2.1582,-2.1869,-2.231,-2.231,-2.231,-2.231,-2.231,-2.2733,-2.3393,-2.3393,-2.4306,-2.5507,-2.4763,-2.5595,-2.698,-2.6116,-2.6723,-2.7926,-2.8047,-2.8174,-2.8308,-2.8368,-2.8342,-2.8255,-2.8102,-2.8183,-2.8281,-2.8281,-2.8438,-2.8682,-2.8929,-2.8994,-2.8994,-2.8994,-2.8994,-2.8994,-2.8994,-2.8994,-2.8994,-2.8994,-2.8994,-2.8994,-2.8994,-2.9156,-2.9225,-2.9156,-2.9289,-2.933,-2.9178,-2.9156,-2.9112,-2.9017,-2.8994,-2.8994,-2.8994,-2.8994,-2.8994,-2.8994,-2.8994,-2.8994,-2.8994,-2.8994,-2.8994,-2.8994,-2.8795,-2.8336,-2.7661,-2.6785,-2.6433,-0.7402,0.0,0.0,0.0,0.0,0.0,0.0,0.0,0.0,0.0,0.0,0.0,0.0,0.0,0.0,0.0,0.0,0.0,0.0,0.0,0.0,0.0,0.0,0.0,0.0,0.0,0.0,0.0,0.0,0.0,-1.8855,-1.8727,-1.8893,-1.9406,-1.9603,-1.969,-1.969,-1.969,-1.9839,-2.0089,-2.0261,-2.0682,-2.1399,-2.1521,-2.1869,-2.231,-2.231,-2.231,-2.231,-2.231,-2.2598,-2.3038,-2.3038,-2.3934,-2.5169,-2.4692,-2.5595,-2.7014,-2.6375,-2.6857,-2.7736,-2.7992,-2.7992,-2.7954,-2.8156,-2.8075,-2.7869,-2.7754,-2.788,-2.8075,-2.8075,-2.8316,-2.8658,-2.8929,-2.8994,-2.8994,-2.8994,-2.8994,-2.8994,-2.8994,-2.8994,-2.8994,-2.8994,-2.8994,-2.8994,-2.8994,-2.9156,-2.9203,-2.9017,-2.9156,-2.92,-2.9017,-2.8994,-2.8994,-2.8994,-2.8994,-2.8994,-2.8994,-2.8994,-2.8994,-2.8994,-2.8994,-2.8994,-2.8994,-2.8994,-2.8888,-2.8613,-2.8865,-2.8519,-2.7601,-2.7175,-2.698,0.0,0.0,0.0,0.0,0.0,0.0,0.0,0.0,0.0,0.0,0.0,0.0,0.0,0.0,0.0,0.0,0.0,0.0,0.0,0.0,0.0,0.0,0.0,0.0,0.0,0.0,0.0,0.0,0.0,-1.7747,-1.8817,-1.838,-1.8341,-1.8893,-1.9406,-1.969,-1.969,-1.969,-1.9726,-1.9711,-2.0124,-2.055,-2.1023,-2.143,-2.1869,-2.231,-2.231,-2.231,-2.231,-2.231,-2.231,-2.231,-2.231,-2.319,-2.4472,-2.4506,-2.5438,-2.6757,-2.7129,-2.7303,-2.7409,-2.8139,-2.8129,-2.7869,-2.7869,-2.7869,-2.7765,-2.7378,-2.7805,-2.8376,-2.8376,-2.8682,-2.8994,-2.8994,-2.8994,-2.8994,-2.8994,-2.8994,-2.8994,-2.8994,-2.8994,-2.8994,-2.8994,-2.8994,-2.8994,-2.8994,-2.8994,-2.8994,-2.8994,-2.8994,-2.8994,-2.8994,-2.8994,-2.8994,-2.8994,-2.8994,-2.8994,-2.8994,-2.8994,-2.8994,-2.8994,-2.8994,-2.8994,-2.8994,-2.8994,-2.8613,-2.7787,-2.8613,-2.8191,-2.6631,-2.7423,-2.7442,-0.6908,0.0,0.0,0.0,0.0,0.0,0.0,0.0,0.0,0.0,0.0,0.0,0.0,0.0,0.0,0.0,0.0,0.0,0.0,0.0,0.0,0.0,0.0,0.0,0.0,0.0,0.0,0.0,-1.671,-1.7034,-1.7706,-1.7987,-1.8535,-1.9442,-1.9244,-1.9332,-1.969,-1.969,-1.9839,-2.0124,-2.0246,-2.0715,-2.143,-2.1552,-2.1869,-2.231,-2.231,-2.231,-2.231,-2.231,-2.231,-2.231,-2.231,-2.2885,-2.3765,-2.432,-2.5285,-2.6392,-2.6751,-2.7051,-2.7317,-2.7542,-2.7348,-2.7083,-2.7378,-2.7255,-2.6987,-2.6906,-2.7224,-2.7718,-2.8272,-2.8471,-2.8633,-2.8929,-2.8994,-2.8994,-2.8994,-2.8994,-2.8994,-2.8994,-2.8994,-2.8994,-2.8994,-2.8994,-2.8994,-2.8994,-2.8994,-2.8994,-2.8994,-2.8749,-2.8682,-2.8952,-2.8749,-2.8682,-2.8994,-2.8994,-2.8994,-2.8994,-2.8994,-2.8994,-2.8994,-2.8994,-2.8994,-2.8994,-2.8994,-2.8613,-2.7787,-2.8613,-2.8264,-2.6822,-2.7045,-2.6749,0.0,0.0,0.0,0.0,0.0,0.0,0.0,0.0,0.0,0.0,0.0,0.0,0.0,0.0,0.0,0.0,0.0,0.0,0.0,0.0,0.0,0.0,0.0,0.0,0.0,0.0,0.0,-1.6522,-1.6522,-1.6637,-1.6951,-1.7706,-1.838,-1.9006,-1.8968,-1.9169,-1.969,-1.969,-1.9909,-2.0314,-2.0516,-2.0943,-2.1628,-2.1794,-2.2032,-2.231,-2.231,-2.231,-2.231,-2.231,-2.231,-2.231,-2.231,-2.275,-2.3444,-2.3866,-2.4832,-2.599,-2.618,-2.6585,-2.7083,-2.7241,-2.7019,-2.6791,-2.7178,-2.7019,-2.6691,-2.6691,-2.7115,-2.7678,-2.8246,-2.8522,-2.8707,-2.8952,-2.8994,-2.8994,-2.8994,-2.8994,-2.8994,-2.8994,-2.8994,-2.8994,-2.8994,-2.8994,-2.8994,-2.8994,-2.8863,-2.8749,-2.8749,-2.8438,-2.8316,-2.8725,-2.8394,-2.8412,-2.8952,-2.8839,-2.8815,-2.8994,-2.8994,-2.8994,-2.8994,-2.8994,-2.8994,-2.8994,-2.8994,-2.8778,-2.8301,-2.8429,-2.7911,-2.6764,-2.6431,-2.608,-0.856,0.0,0.0,0.0,0.0,0.0,-0.9301,-0.9582,0.0,0.0,0.0,0.0,0.0,0.0,0.0,0.0,0.0,0.0,0.0,0.0,0.0,0.0,0.0,0.0,0.0,-1.7272,-1.7076,-1.6552,-1.6522,-1.6552,-1.668,-1.7544,-1.8106,-1.8263,-1.8688,-1.9169,-1.969,-1.969,-1.9945,-2.0382,-2.0797,-2.1244,-2.1688,-2.2106,-2.231,-2.231,-2.231,-2.231,-2.231,-2.231,-2.231,-2.231,-2.231,-2.2699,-2.3291,-2.3359,-2.4239,-2.5389,-2.5558,-2.6031,-2.6639,-2.708,-2.7004,-2.6758,-2.7115,-2.6987,-2.6725,-2.6758,-2.7272,-2.7908,-2.8298,-2.8658,-2.8952,-2.8994,-2.8994,-2.8994,-2.8994,-2.8994,-2.8994,-2.8994,-2.8994,-2.8994,-2.8994,-2.8994,-2.8975,-2.8929,-2.8633,-2.8394,-2.8368,-2.8075,-2.802,-2.835,-2.8129,-2.8228,-2.8929,-2.8658,-2.8633,-2.8994,-2.8994,-2.8994,-2.8994,-2.8994,-2.8994,-2.8994,-2.881,-2.8718,-2.8718,-2.7842,-2.7126,-2.6576,-2.5717,-2.5411,-0.9432,-0.9523,0.0,0.0,0.0,0.0,0.0,-0.8292,0.0,0.0,0.0,0.0,0.0,0.0,0.0,0.0,0.0,0.0,0.0,0.0,0.0,0.0,0.0,0.0,0.0,-1.6994,-1.7076,-1.6552,-1.6522,-1.6879,-1.7747,-1.7585,-1.8066,-1.9369,-1.908,-1.9169,-1.969,-1.969,-2.007,-2.0862,-2.0975,-2.1415,-2.218,-2.2254,-2.231,-2.231,-2.231,-2.231,-2.231,-2.231,-2.231,-2.231,-2.231,-2.2395,-2.2598,-2.3173,-2.3579,-2.4002,-2.5203,-2.5693,-2.5913,-2.6588,-2.6741,-2.6725,-2.6774,-2.6758,-2.6791,-2.7083,-2.7303,-2.7589,-2.8219,-2.8446,-2.859,-2.8929,-2.8994,-2.8994,-2.8994,-2.8994,-2.8994,-2.8994,-2.8994,-2.8994,-2.8994,-2.8994,-2.8905,-2.8565,-2.8446,-2.8298,-2.802,-2.7954,-2.802,-2.835,-2.8342,-2.8489,-2.8952,-2.8929,-2.8929,-2.8994,-2.8994,-2.8994,-2.8994,-2.8994,-2.8994,-2.8994,-2.7732,-2.7071,-2.7071,-2.5603,-2.5493,-2.6576,-2.5282,-2.4785,-1.051,-1.0591,0.0,-1.005,0.0,0.0,0.0,0.0,0.0,0.0,0.0,0.0,0.0,0.0,0.0,0.0,0.0,0.0,0.0,0.0,0.0,0.0,0.0,0.0,0.0,-1.6437,-1.6375,-1.6124,-1.6358,-1.6837,-1.7666,-1.7463,-1.7907,-1.9244,-1.9043,-1.9169,-1.969,-1.9909,-2.033,-2.0991,-2.1213,-2.1645,-2.231,-2.231,-2.231,-2.231,-2.231,-2.231,-2.231,-2.231,-2.231,-2.231,-2.231,-2.231,-2.2344,-2.2733,-2.3088,-2.3511,-2.4255,-2.4983,-2.5659,-2.6031,-2.6404,-2.6691,-2.6691,-2.6691,-2.6758,-2.6922,-2.7147,-2.7378,-2.7747,-2.8139,-2.8446,-2.8658,-2.8863,-2.8994,-2.8994,-2.8994,-2.8994,-2.8994,-2.8994,-2.8994,-2.8994,-2.8994,-2.8929,-2.8725,-2.8386,-2.8102,-2.7926,-2.7707,-2.7736,-2.8102,-2.8156,-2.8386,-2.8952,-2.8815,-2.8791,-2.8994,-2.8994,-2.8994,-2.8994,-2.8994,-2.8994,-2.8994,-2.7824,-2.7402,-2.7783,-2.5786,-2.4997,-2.5383,-2.4781,-2.4607,0.0,0.0,0.0,0.0,0.0,-1.0688,0.0,0.0,0.0,0.0,0.0,0.0,0.0,0.0,0.0,0.0,0.0,0.0,0.0,0.0,0.0,0.0,0.0,0.0,0.0,-1.5457,-1.5333,-1.5532,-1.5926,-1.6481,-1.7249,-1.7491,-1.8066,-1.9006,-1.9043,-1.9244,-1.969,-2.0089,-2.055,-2.0991,-2.1399,-2.1853,-2.231,-2.231,-2.231,-2.231,-2.231,-2.231,-2.231,-2.231,-2.231,-2.231,-2.231,-2.231,-2.231,-2.231,-2.2682,-2.3207,-2.3342,-2.4272,-2.5423,-2.5558,-2.6099,-2.6691,-2.6691,-2.6691,-2.6691,-2.6691,-2.6939,-2.721,-2.7396,-2.7862,-2.8342,-2.8471,-2.8773,-2.8994,-2.8994,-2.8994,-2.8994,-2.8994,-2.8994,-2.8994,-2.8994,-2.8994,-2.8975,-2.8905,-2.836,-2.7964,-2.7897,-2.7678,-2.7648,-2.7964,-2.8065,-2.8334,-2.8952,-2.8682,-2.8658,-2.8994,-2.8994,-2.8994,-2.8994,-2.8994,-2.8994,-2.8994,-2.8209,-2.8117,-2.8778,-2.6502,-2.5164,-2.4649,-2.4559,-2.4594,0.0,0.0,0.0,0.0,-1.2573,0.0,0.0,0.0,0.0,0.0,0.0,0.0,0.0,0.0,0.0,0.0,0.0,0.0,0.0,0.0,0.0,0.0,0.0,0.0,0.0,0.0,-1.3919,-1.4928,-1.5,-1.5684,-1.7212,-1.82,-1.9006,-1.9603,-1.9603,-1.9639,-1.969,-2.0089,-2.055,-2.0991,-2.1399,-2.1853,-2.231,-2.231,-2.231,-2.231,-2.231,-2.231,-2.231,-2.231,-2.231,-2.231,-2.231,-2.231,-2.231,-2.231,-2.2361,-2.253,-2.3173,-2.3934,-2.4712,-2.5389,-2.6099,-2.6691,-2.6691,-2.6691,-2.6691,-2.6691,-2.6725,-2.6939,-2.7666,-2.788,-2.812,-2.8791,-2.897,-2.8994,-2.8994,-2.8994,-2.8994,-2.8994,-2.8994,-2.8994,-2.8994,-2.8994,-2.8863,-2.8515,-2.8394,-2.8237,-2.7954,-2.8129,-2.8298,-2.8342,-2.8658,-2.8905,-2.8994,-2.8952,-2.8952,-2.8994,-2.8994,-2.8994,-2.8994,-2.8994,-2.8994,-2.8994,-2.8209,-2.7842,-2.7934,-2.6248,-2.5713,-2.63,-2.5078,-2.4512,0.0,0.0,0.0,0.0,0.0,0.0,0.0,0.0,-0.8381,0.0,0.0,0.0,0.0,0.0,0.0,0.0,0.0,0.0,0.0,0.0,0.0,0.0,0.0,0.0,0.0,0.0,0.0,0.0,0.0,-1.4704,-1.6614,-1.7511,-1.8309,-1.9121,-1.9495,-1.969,-1.969,-2.0364,-2.0797,-2.1007,-2.1675,-2.2106,-2.231,-2.231,-2.231,-2.231,-2.231,-2.231,-2.231,-2.231,-2.231,-2.231,-2.231,-2.231,-2.231,-2.231,-2.231,-2.2344,-2.2649,-2.3241,-2.4036,-2.522,-2.6099,-2.6691,-2.6691,-2.6691,-2.6691,-2.6691,-2.6691,-2.6841,-2.7409,-2.7725,-2.8037,-2.8515,-2.8839,-2.8994,-2.8994,-2.8994,-2.8994,-2.8994,-2.8994,-2.8994,-2.8994,-2.8994,-2.8952,-2.8773,-2.854,-2.8368,-2.821,-2.8316,-2.8394,-2.8394,-2.8749,-2.8994,-2.8994,-2.8994,-2.8994,-2.8994,-2.8994,-2.8994,-2.8994,-2.8994,-2.8994,-2.8994,-2.8686,-2.8503,-2.8503,-2.7346,-2.6961,-2.7236,-2.5356,-2.4756,-1.5186,0.0,0.0,0.0,0.0,0.0,0.0,0.0,0.0,0.0,0.0,0.0,0.0,0.0,0.0,0.0,0.0,0.0,0.0,0.0,0.0,0.0,0.0,0.0,0.0,0.0,0.0,0.0,0.0,0.0,-1.5558,-1.6522,-1.7491,-1.85,-1.9131,-1.9495,-1.969,-2.0565,-2.0991,-2.1007,-2.1886,-2.231,-2.231,-2.231,-2.231,-2.231,-2.231,-2.231,-2.231,-2.231,-2.231,-2.231,-2.231,-2.231,-2.231,-2.231,-2.231,-2.231,-2.231,-2.2784,-2.363,-2.5135,-2.5964,-2.6437,-2.664,-2.6691,-2.6691,-2.6691,-2.6691,-2.6808,-2.7317,-2.7678,-2.7992,-2.8464,-2.8773,-2.8994,-2.8994,-2.8994,-2.8994,-2.8994,-2.8994,-2.8994,-2.8994,-2.8994,-2.8994,-2.8994,-2.8749,-2.8565,-2.8565,-2.8565,-2.8565,-2.8565,-2.8839,-2.8994,-2.8994,-2.8994,-2.8994,-2.8994,-2.8994,-2.8994,-2.8994,-2.8994,-2.8994,-2.8994,-2.8994,-2.8994,-2.8994,-2.8191,-2.7787,-2.775,-2.593,-2.5393,0.0,0.0,0.0,-1.3775,0.0,0.0,0.0,0.0,-1.0544,0.0,0.0,0.0,0.0,0.0,0.0,0.0,0.0,0.0,0.0,0.0,0.0,0.0,0.0,0.0,0.0,0.0,0.0,0.0,0.0,0.0,-1.3952,-1.5528,-1.687,-1.8091,-1.853,-1.9031,-1.9675,-2.0565,-2.0991,-2.1007,-2.1886,-2.231,-2.231,-2.231,-2.231,-2.231,-2.231,-2.231,-2.231,-2.231,-2.231,-2.231,-2.231,-2.231,-2.231,-2.231,-2.231,-2.231,-2.231,-2.2784,-2.363,-2.5135,-2.5625,-2.5778,-2.6471,-2.6691,-2.6691,-2.6691,-2.6691,-2.6873,-2.7695,-2.7897,-2.8093,-2.8815,-2.8994,-2.8994,-2.8994,-2.8994,-2.8994,-2.8994,-2.8994,-2.8994,-2.8994,-2.8994,-2.8994,-2.8994,-2.8994,-2.8994,-2.8994,-2.8994,-2.8994,-2.8994,-2.8994,-2.8994,-2.8994,-2.8994,-2.8994,-2.8994,-2.8994,-2.8994,-2.8994,-2.8994,-2.8994,-2.8994,-2.8994,-2.8994,-2.8994,-2.8191,-2.7787,-2.7769,-2.6924,-2.6539,0.0,0.0,-1.8074,-1.5439,0.0,0.0,0.0,0.0,0.0,0.0,0.0,0.0,0.0,0.0,0.0,0.0,0.0,0.0,0.0,0.0,0.0,0.0,0.0,0.0,0.0,0.0,0.0,0.0,0.0,0.0,0.0,-1.4554,-1.5931,-1.7398,-1.8258,-1.9016,-1.9675,-2.0565,-2.0991,-2.1007,-2.1886,-2.231,-2.231,-2.231,-2.231,-2.231,-2.231,-2.231,-2.231,-2.231,-2.231,-2.231,-2.231,-2.231,-2.231,-2.231,-2.231,-2.231,-2.231,-2.3105,-2.4205,-2.4695,-2.5524,-2.637,-2.6623,-2.6691,-2.6691,-2.6691,-2.6691,-2.6873,-2.7678,-2.7897,-2.8093,-2.8815,-2.8994,-2.8994,-2.8994,-2.8994,-2.8994,-2.8994,-2.8994,-2.8994,-2.8994,-2.8994,-2.8994,-2.8994,-2.8994,-2.8994,-2.8994,-2.8994,-2.8994,-2.8994,-2.8994,-2.8994,-2.8994,-2.8994,-2.8994,-2.8994,-2.8994,-2.8994,-2.8994,-2.8994,-2.8994,-2.8994,-2.8994,-2.8994,-2.8994,-2.8741,-2.8594,-2.8594,-2.8338,-2.7915,-1.8418,-1.8732,0.0,-1.6608,-1.5485,0.0,-1.1709,0.0,0.0,0.0,0.0,0.0,0.0,0.0,0.0,0.0,0.0,0.0,0.0,0.0,0.0,0.0,0.0,0.0,0.0,0.0,-0.794,-0.9046,0.0,0.0,0.0,0.0,-1.4845,-1.6698,-1.78,-1.8777,-1.9675,-2.0565,-2.0991,-2.1007,-2.1886,-2.231,-2.231,-2.231,-2.231,-2.231,-2.231,-2.231,-2.231,-2.231,-2.231,-2.231,-2.231,-2.231,-2.231,-2.231,-2.231,-2.231,-2.231,-2.2919,-2.3799,-2.4337,-2.5118,-2.6015,-2.6539,-2.6691,-2.6691,-2.6691,-2.6691,-2.6841,-2.75,-2.7794,-2.8065,-2.8651,-2.8905,-2.8994,-2.8994,-2.8994,-2.8994,-2.8994,-2.8994,-2.8994,-2.8994,-2.8994,-2.8994,-2.8994,-2.8994,-2.8994,-2.8994,-2.8994,-2.8994,-2.8994,-2.8994,-2.8994,-2.8994,-2.8994,-2.8994,-2.8994,-2.8994,-2.8994,-2.8994,-2.8994,-2.8994,-2.8994,-2.8994,-2.8994,-2.8994,-2.8994,-2.8847,-2.8576,-2.8576,-2.8154]}]]